ftp/pub/palmer/observations_modified/2019/June/AR190602_BASE.txt

Download

Sample DateTime	Unit Id	WS Avg 2min	WD Avg 2min	WGS 10min	WGD 10min	Air Temp	Rel Humidity	Dew Point	Pyranometer	Quantum	Air Pressure	Snow Level	Rainfall	PW Current	Visibility	CBase 1	CBase 2	CBase 3	Vert Vis
2019/06/02  00:00:00  BASE  2.68128  249  4.08072  239  -3.5  100   -3.5  0     0     1007.2   NA       0.0000   BR       3800  0     0    
2019/06/02  00:01:00  BASE  2.98704  249  4.08072  239  -3.5  100   -3.5  0     0     1007.2   NA       0.0000   BR       4400  0     0    
2019/06/02  00:02:00  BASE  2.90472  245  4.08072  239  -3.5  100   -3.5  0     0     1007.2   NA       0.0000   BR       4200  0     0    
2019/06/02  00:03:00  BASE  2.95176  250  4.08072  239  -3.5  100   -3.5  0     0     1007.2   NA       0.0000   BR       3600  0     0    
2019/06/02  00:04:00  BASE  3.18108  254  3.69264  244  -3.6  100   -3.6  0     0     1007.2   NA       0.0000   BR       3500  0     0    
2019/06/02  00:05:00  BASE  2.93412  253  3.69264  244  -3.5  100   -3.6  0     0     1007.2   NA       0.0000   BR       2500  0     0    
2019/06/02  00:06:00  BASE  2.89296  251  3.69264  244  -3.6  100   -3.6  0     0     1007.2   NA       0.0000   BR       1900  0     0    
2019/06/02  00:07:00  BASE  2.84592  239  3.69264  244  -3.5  100   -3.5  0     0     1007.2   NA       0.0000   BR       2400  0     0    
2019/06/02  00:08:00  BASE  2.37552  228  3.69264  244  -3.5  100   -3.5  0     0     1007.2   NA       0.0000   BR       4500  0     0    
2019/06/02  00:09:00  BASE  2.08152  236  3.69264  244  -3.5  100   -3.5  0     0     1007.2   NA       0.0000   BR       5000  0     0    
2019/06/02  00:10:00  BASE  1.96392  247  3.69264  244  -3.6  100   -3.6  0     0     1007.2   NA       0.0000   BR       3500  0     0    
2019/06/02  00:11:00  BASE  1.63464  250  3.69264  244  -3.6  100   -3.6  0     0     1007.2   NA       0.0000   BR       2300  0     0    
2019/06/02  00:12:00  BASE  2.0874   252  3.69264  244  -3.6  100   -3.6  0     0     1007.1   NA       0.0000   -SN      BR    2300  0    
2019/06/02  00:13:00  BASE  2.92824  257  3.62796  250  -3.6  100   -3.6  0     0     1007.1   NA       0.0000   -SN      BR    2500  0    
2019/06/02  00:14:00  BASE  2.95176  260  3.62796  250  -3.6  100   -3.6  0     0     1007.1   NA       0.0000   -SN      BR    2100  0    
2019/06/02  00:15:00  BASE  2.646    257  3.62796  250  -3.6  100   -3.6  0     0     1007.2   NA       0.0000   -SN      BR    2100  0    
2019/06/02  00:16:00  BASE  2.48724  257  3.62796  250  -3.6  100   -3.6  0     0     1007.1   NA       0.0000   -SN      BR    1900  0    
2019/06/02  00:17:00  BASE  2.13444  259  3.62796  250  -3.6  100   -3.6  0     0     1007.1   NA       0.0000   -SN      BR    1500  0    
2019/06/02  00:18:00  BASE  1.8816   262  3.62796  250  -3.7  100   -3.7  0     0     1007.1   NA       0.0000   -SN      BR    1300  0    
2019/06/02  00:19:00  BASE  1.96392  274  3.62796  250  -3.7  100   -3.7  0     0     1007.0   NA       0.0000   -SN      BR    1400  0    
2019/06/02  00:20:00  BASE  2.2932   286  3.62796  250  -3.7  100   -3.7  0     0     1007.0   NA       0.0000   -SN      BR    1900  0    
2019/06/02  00:21:00  BASE  2.63424  283  3.62796  250  -3.7  100   -3.7  0     0     1007.0   NA       0.0000   -SN      BR    2900  0    
2019/06/02  00:22:00  BASE  2.98116  265  3.62796  250  -3.7  100   -3.7  0     0     1007.0   NA       0.0000   -SN      BR    3600  0    
2019/06/02  00:23:00  BASE  3.34572  260  4.1454   255  -3.7  100   -3.7  0     0     1007.0   NA       0.0000   -SN      BR    3600  0    
2019/06/02  00:24:00  BASE  3.13404  271  4.1454   255  -3.7  100   -3.7  0     0     1006.9   NA       0.0000   -SN      BR    3000  0    
2019/06/02  00:25:00  BASE  2.7048   278  4.1454   255  -3.7  100   -3.7  0     0     1006.9   NA       0.0000   -SN      BR    2500  0    
2019/06/02  00:26:00  BASE  2.45784  278  4.1454   255  -3.7  100   -3.7  0     0     1006.9   NA       0.0000   -SN      BR    2100  0    
2019/06/02  00:27:00  BASE  2.24028  273  4.1454   255  -3.7  100   -3.7  0     0     1006.9   NA       0.0000   -SN      BR    1700  0    
2019/06/02  00:28:00  BASE  2.05212  275  4.1454   255  -3.7  100   -3.7  0     0     1006.9   NA       0.0000   -SN      BR    1700  0    
2019/06/02  00:29:00  BASE  2.01096  268  4.1454   255  -3.7  100   -3.7  0     0     1006.9   NA       0.0000   -SN      BR    2000  0    
2019/06/02  00:30:00  BASE  2.41668  257  4.1454   255  -3.8  100   -3.8  0     0     1006.9   NA       0.0000   -SN      BR    2500  0    
2019/06/02  00:31:00  BASE  3.12816  260  4.263    263  -3.8  100   -3.8  0     0     1006.9   NA       0.0000   -SN      BR    3000  0    
2019/06/02  00:32:00  BASE  3.45156  264  4.263    263  -3.8  100   -3.8  0     0     1006.8   NA       0.0000   -SN      BR    3600  0    
2019/06/02  00:33:00  BASE  3.26928  271  4.263    263  -3.8  100   -3.8  0     0     1006.9   NA       0.0000   -SN      BR    3600  0    
2019/06/02  00:34:00  BASE  3.16344  266  4.263    263  -3.8  100   -3.8  0     0     1006.8   NA       0.0000   -SN      BR    3500  0    
2019/06/02  00:35:00  BASE  3.12816  258  4.263    263  -3.8  100   -3.8  0     0     1006.9   NA       0.0000   -SN      BR    4300  0    
2019/06/02  00:36:00  BASE  2.63424  258  4.263    263  -3.8  100   -3.8  0     0     1006.9   NA       0.0000   -SN      BR    6000  0    
2019/06/02  00:37:00  BASE  2.0286   266  4.263    263  -3.8  100   -3.8  0     0     1006.8   NA       0.0000   -SN      BR    4500  0    
2019/06/02  00:38:00  BASE  2.25792  271  4.263    263  -3.8  100   -3.8  0     0     1006.7   NA       0.0000   -SN      BR    3800  0    
2019/06/02  00:39:00  BASE  2.66364  264  4.263    263  -3.8  100   -3.8  0     0     1006.7   NA       0.0000   -SN      BR    4400  0    
2019/06/02  00:40:00  BASE  2.55192  266  4.263    263  -3.8  100   -3.8  0     0     1006.7   NA       0.0000   -SN      BR    4100  0    
2019/06/02  00:41:00  BASE  2.35788  263  3.81024  250  -3.8  100   -3.8  0     0     1006.7   NA       0.0000   -SN      BR    4100  0    
2019/06/02  00:42:00  BASE  2.10504  256  3.78084  267  -3.8  100   -3.8  0     0     1006.7   NA       0.0000   -SN      BR    3600  0    
2019/06/02  00:43:00  BASE  1.7934   258  3.78084  267  -3.8  100   -3.8  0     0     1006.7   NA       0.0000   -SN      BR    2800  0    
2019/06/02  00:44:00  BASE  2.13444  267  3.51036  246  -3.8  100   -3.8  0     0     1006.7   NA       0.0000   -SN      BR    3000  0    
2019/06/02  00:45:00  BASE  2.76948  269  3.83964  254  -3.8  100   -3.8  0     0     1006.6   NA       0.0000   -SN      BR    4600  0    
2019/06/02  00:46:00  BASE  2.78712  252  3.83964  254  -3.8  100   -3.8  0     0     1006.6   NA       0.0000   -SN      BR    7000  0    
2019/06/02  00:47:00  BASE  2.25204  254  3.83964  254  -3.8  100   -3.8  0     0     1006.6   NA       0.0000   -SN      BR    5000  0    
2019/06/02  00:48:00  BASE  2.16384  255  3.83964  254  -3.8  100   -3.8  0     0     1006.6   NA       0.0000   -SN      BR    4600  0    
2019/06/02  00:49:00  BASE  2.68716  251  3.83964  254  -3.8  100   -3.8  0     0     1006.6   NA       0.0000   -SN      BR    7000  0    
2019/06/02  00:50:00  BASE  3.11052  256  3.83964  254  -3.8  100   -3.8  0     0     1006.6   NA       0.0000   -SN      BR    7000  0    
2019/06/02  00:51:00  BASE  2.84592  264  3.83964  254  -3.8  100   -3.8  0     0     1006.6   NA       0.0000   -SN      BR    5000  0    
2019/06/02  00:52:00  BASE  2.55192  271  3.83964  254  -3.8  100   -3.8  0     0     1006.6   NA       0.0000   -SN      BR    4800  0    
2019/06/02  00:53:00  BASE  2.62836  276  3.83964  254  -3.8  100   -3.8  0     0     1006.6   NA       0.0000   -SN      BR    5000  0    
2019/06/02  00:54:00  BASE  2.29908  281  3.83964  254  -3.8  100   -3.8  0     0     1006.6   NA       0.0000   -SN      BR    5000  0    
2019/06/02  00:55:00  BASE  1.78752  283  3.62796  255  -3.9  100   -3.9  0     0     1006.6   NA       0.0000   -SN      BR    6000  0    
2019/06/02  00:56:00  BASE  1.41708  283  3.62796  255  -3.9  100   -3.9  0     0     1006.6   NA       0.0000   -SN      BR    5000  0    
2019/06/02  00:57:00  BASE  1.27008  276  3.62796  255  -3.9  100   -3.9  0     0     1006.5   NA       0.0000   -SN      BR    5000  0    
2019/06/02  00:58:00  BASE  1.176    266  3.62796  255  -3.9  100   -3.9  0     0     1006.5   NA       0.0000   -SN      BR    5000  0    
2019/06/02  00:59:00  BASE  1.27596  257  3.62796  255  -3.9  100   -3.9  0     0     1006.5   NA       0.0000   -SN      BR    5000  0    
2019/06/02  01:00:00  BASE  1.45824  258  3.1164   272  -3.9  100   -3.9  0     0     1006.5   NA       0.0000   -SN      BR    6000  0    
2019/06/02  01:01:00  BASE  1.81104  256  3.1164   272  -3.9  100   -3.9  0     0     1006.5   NA       0.0000   -SN      BR    7000  0    
2019/06/02  01:02:00  BASE  2.31672  247  2.87532  287  -3.9  100   -3.9  0     0     1006.5   NA       0.0000   -SN      BR    9999  0    
2019/06/02  01:03:00  BASE  2.56368  241  2.84592  246  -3.9  100   -3.9  0     0     1006.5   NA       0.0000   -SN      BR    9999  200  
2019/06/02  01:04:00  BASE  2.4696   240  2.84592  246  -3.9  100   -3.9  0     0     1006.5   NA       0.0000   -SN      BR    9999  0    
2019/06/02  01:05:00  BASE  2.18736  247  2.84592  246  -3.9  100   -3.9  0     0     1006.5   NA       0.0000   -SN      BR    9999  0    
2019/06/02  01:06:00  BASE  2.00508  251  2.84592  246  -3.9  100   -3.9  0     0     1006.5   NA       0.0000   -SN      BR    9999  0    
2019/06/02  01:07:00  BASE  1.8228   260  2.84592  246  -3.9  100   -3.9  0     0     1006.4   NA       0.0000   -SN      BR    9999  0    
2019/06/02  01:08:00  BASE  1.63464  277  2.84592  246  -3.9  100   -3.9  0     0     1006.4   NA       0.0000   -SN      BR    7000  0    
2019/06/02  01:09:00  BASE  1.911    285  2.84592  246  -3.9  100   -3.9  0     0     1006.4   NA       0.0000   -SN      BR    5000  0    
2019/06/02  01:10:00  BASE  2.39316  289  2.84592  246  -3.9  100   -3.9  0     0     1006.4   NA       0.0000   -SN      BR    5000  0    
2019/06/02  01:11:00  BASE  2.6754   294  3.26928  298  -3.9  100   -3.9  0     0     1006.4   NA       0.0000   -SN      BR    5000  0    
2019/06/02  01:12:00  BASE  2.60484  294  3.26928  298  -3.8  100   -3.8  0     0     1006.4   NA       0.0000   -SN      BR    5000  0    
2019/06/02  01:13:00  BASE  2.36376  290  3.26928  298  -3.8  100   -3.8  0     0     1006.4   NA       0.0000   -SN      BR    5000  0    
2019/06/02  01:14:00  BASE  2.6166   282  3.59856  267  -3.8  100   -3.8  0     0     1006.4   NA       0.0000   -SN      BR    4800  0    
2019/06/02  01:15:00  BASE  2.96352  277  3.59856  267  -3.7  100   -3.7  0     0     1006.4   NA       0.0000   -SN      BR    6000  0    
2019/06/02  01:16:00  BASE  2.97528  274  3.59856  267  -3.8  100   -3.8  0     0     1006.4   NA       0.0000   -SN      BR    9999  0    
2019/06/02  01:17:00  BASE  2.59896  270  3.59856  267  -3.8  100   -3.8  0     0     1006.4   NA       0.0000   -SN      BR    9000  0    
2019/06/02  01:18:00  BASE  2.09328  271  3.59856  267  -3.8  100   -3.8  0     0     1006.4   NA       0.0000   -SN      BR    7000  0    
2019/06/02  01:19:00  BASE  2.0874   276  3.59856  267  -3.9  100   -3.9  0     0     1006.4   NA       0.0000   -SN      BR    6000  0    
2019/06/02  01:20:00  BASE  1.92864  283  3.59856  267  -3.9  100   -3.9  0     0     1006.4   NA       0.0000   -SN      BR    5000  0    
2019/06/02  01:21:00  BASE  1.8228   290  3.59856  267  -3.9  100   -3.9  0     0     1006.3   NA       0.0000   -SN      BR    4300  0    
2019/06/02  01:22:00  BASE  2.06388  297  3.59856  267  -3.9  100   -3.9  0     0     1006.3   NA       0.0000   -SN      BR    4300  0    
2019/06/02  01:23:00  BASE  2.2932   296  3.59856  267  -3.9  100   -3.9  0     0     1006.3   NA       0.0000   BR       4300  0     0    
2019/06/02  01:24:00  BASE  2.45784  292  3.41628  268  -3.9  100   -3.9  0     0     1006.3   NA       0.0000   BR       4300  0     0    
2019/06/02  01:25:00  BASE  2.60484  291  3.48096  277  -3.9  100   -3.9  0     0     1006.3   NA       0.0000   BR       4200  0     0    
2019/06/02  01:26:00  BASE  3.08112  286  3.75144  282  -3.9  100   -3.9  0     0     1006.3   NA       0.0000   BR       4100  0     0    
2019/06/02  01:27:00  BASE  3.29868  278  3.75144  282  -3.9  100   -3.9  0     0     1006.3   NA       0.0000   BR       3400  0     0    
2019/06/02  01:28:00  BASE  3.16932  281  3.75144  282  -3.8  100   -3.8  0     0     1006.3   NA       0.0000   BR       2800  0     0    
2019/06/02  01:29:00  BASE  3.16344  285  3.75144  282  -3.8  100   -3.8  0     0     1006.3   NA       0.0000   BR       2700  0     0    
2019/06/02  01:30:00  BASE  3.01056  284  3.75144  282  -3.8  100   -3.8  0     0     1006.3   NA       0.0000   BR       2700  0     0    
2019/06/02  01:31:00  BASE  3.0576   285  3.90432  285  -3.7  100   -3.7  0     0     1006.3   NA       0.0000   BR       2700  0     0    
2019/06/02  01:32:00  BASE  2.82828  279  3.90432  285  -3.7  100   -3.7  0     0     1006.3   NA       0.0000   BR       2600  0     0    
2019/06/02  01:33:00  BASE  2.29908  271  3.90432  285  -3.7  100   -3.7  0     0     1006.3   NA       0.0000   BR       2600  0     0    
2019/06/02  01:34:00  BASE  2.18736  278  3.90432  285  -3.7  100   -3.7  0     0     1006.3   NA       0.0000   BR       3100  0     0    
2019/06/02  01:35:00  BASE  2.25204  289  3.90432  285  -3.7  100   -3.7  0     0     1006.3   NA       0.0000   BR       4100  0     0    
2019/06/02  01:36:00  BASE  2.48724  297  3.90432  285  -3.8  100   -3.8  0     0     1006.3   NA       0.0000   -SN      BR    4000  0    
2019/06/02  01:37:00  BASE  2.48136  303  3.90432  285  -3.8  100   -3.8  0     0     1006.3   NA       0.0000   -SN      BR    4000  0    
2019/06/02  01:38:00  BASE  2.32848  308  3.90432  285  -3.7  100   -3.7  0     0     1006.3   NA       0.0000   -SN      BR    4000  0    
2019/06/02  01:39:00  BASE  2.29908  315  3.90432  285  -3.7  100   -3.7  0     0     1006.3   NA       0.0000   -SN      BR    4000  0    
2019/06/02  01:40:00  BASE  2.29908  310  3.90432  285  -3.7  100   -3.7  0     0     1006.3   NA       0.0000   -SN      BR    4000  0    
2019/06/02  01:41:00  BASE  2.24028  303  2.81064  301  -3.7  100   -3.7  0     0     1006.3   NA       0.0000   -SN      BR    4000  0    
2019/06/02  01:42:00  BASE  2.08152  298  2.81064  301  -3.7  100   -3.7  0     0     1006.2   NA       0.0000   -SN      BR    3900  0    
2019/06/02  01:43:00  BASE  1.92864  294  2.81064  301  -3.7  100   -3.7  0     0     1006.1   NA       0.0000   -SN      BR    4100  0    
2019/06/02  01:44:00  BASE  2.5284   294  3.81024  286  -3.7  100   -3.7  0     0     1006.1   NA       0.0000   -SN      BR    5000  0    
2019/06/02  01:45:00  BASE  3.41628  290  4.08072  278  -3.7  100   -3.7  0     0     1006.1   NA       0.0000   -SN      BR    6000  0    
2019/06/02  01:46:00  BASE  3.51036  290  4.08072  278  -3.7  100   -3.7  0     0     1006.1   NA       0.0000   -SN      BR    6000  0    
2019/06/02  01:47:00  BASE  3.57504  293  4.29828  292  -3.6  100   -3.6  0     0     1006.1   NA       0.0000   -SN      BR    7000  0    
2019/06/02  01:48:00  BASE  3.68676  285  4.29828  292  -3.6  100   -3.6  0     0     1006.1   NA       0.0000   -SN      BR    9999  0    
2019/06/02  01:49:00  BASE  3.23988  271  4.29828  292  -3.6  100   -3.6  0     0     1006.1   NA       0.0000   -SN      BR    9999  0    
2019/06/02  01:50:00  BASE  2.69304  268  4.29828  292  -3.7  100   -3.7  0     0     1006.1   NA       0.0000   -SN      BR    9999  0    
2019/06/02  01:51:00  BASE  2.51664  277  4.29828  292  -3.7  100   -3.7  0     0     1006.1   NA       0.0000   -SN      BR    9999  0    
2019/06/02  01:52:00  BASE  2.83416  274  4.29828  292  -3.7  100   -3.7  0     0     1006.1   NA       0.0000   -SN      BR    9999  0    
2019/06/02  01:53:00  BASE  3.01644  269  4.29828  292  -3.6  100   -3.6  0     0     1006.1   NA       0.0000   BR       9999  0     0    
2019/06/02  01:54:00  BASE  2.62836  285  4.29828  292  -3.6  100   -3.6  0     0     1006.1   NA       0.0000   9999     230   0     0    
2019/06/02  01:55:00  BASE  2.205    296  4.29828  292  -3.6  100   -3.6  0     0     1006.1   NA       0.0000   9999     0     0     0    
2019/06/02  01:56:00  BASE  2.33436  293  4.29828  292  -3.6  100   -3.6  0     0     1006.1   NA       0.0000   9999     0     0     0    
2019/06/02  01:57:00  BASE  2.54604  279  4.2042   265  -3.6  100   -3.6  0     0     1006.1   NA       0.0000   9999     0     0     0    
2019/06/02  01:58:00  BASE  2.75184  270  3.75144  268  -3.6  100   -3.6  0     0     1006.1   NA       0.0000   9999     0     0     0    
2019/06/02  01:59:00  BASE  3.06936  278  3.75144  268  -3.6  100   -3.6  0     0     1006.1   NA       0.0000   8000     0     0     0    
2019/06/02  02:00:00  BASE  3.12228  282  3.75144  268  -3.6  100   -3.6  0     0     1006.1   NA       0.0000   6000     0     0     0    
2019/06/02  02:01:00  BASE  2.94588  282  3.75144  268  -3.7  100   -3.7  0     0     1006.1   NA       0.0000   5000     0     0     0    
2019/06/02  02:02:00  BASE  2.55192  286  3.75144  268  -3.7  100   -3.7  0     0     1006.1   NA       0.0000   BR       5000  0     0    
2019/06/02  02:03:00  BASE  2.1756   295  3.59856  252  -3.7  100   -3.7  0     0     1006.1   NA       0.0000   BR       8000  0     0    
2019/06/02  02:04:00  BASE  2.5284   297  3.59856  252  -3.7  100   -3.7  0     0     1006.0   NA       0.0000   BR       9999  0     0    
2019/06/02  02:05:00  BASE  2.79888  287  3.59856  252  -3.7  100   -3.7  0     0     1005.9   NA       0.0000   BR       9999  0     0    
2019/06/02  02:06:00  BASE  2.48724  277  3.59856  252  -3.6  100   -3.6  0     0     1005.9   NA       0.0000   BR       9999  230   0    
2019/06/02  02:07:00  BASE  2.8224   276  3.69264  280  -3.6  100   -3.6  0     0     1005.9   NA       0.0000   BR       9999  0     0    
2019/06/02  02:08:00  BASE  3.07524  283  3.69264  280  -3.6  100   -3.6  0     0     1005.9   NA       0.0000   BR       9999  0     0    
2019/06/02  02:09:00  BASE  3.19284  287  4.02192  296  -3.5  100   -3.5  0     0     1005.9   NA       0.0000   BR       9999  0     0    
2019/06/02  02:10:00  BASE  2.97528  284  4.02192  296  -3.5  100   -3.5  0     0     1005.9   NA       0.0000   BR       9999  230   0    
2019/06/02  02:11:00  BASE  2.39316  279  4.02192  296  -3.5  100   -3.5  0     0     1005.9   NA       0.0000   9999     260   0     0    
2019/06/02  02:12:00  BASE  2.76948  275  5.08032  266  -3.4  100   -3.4  0     0     1005.9   NA       0.0000   9999     460   0     0    
2019/06/02  02:13:00  BASE  3.38688  271  5.08032  266  -3.4  100   -3.4  0     0     1005.9   NA       0.0000   9999     460   0     0    
2019/06/02  02:14:00  BASE  3.15168  266  5.08032  266  -3.4  100   -3.4  0     0     1005.9   NA       0.0000   9999     390   0     0    
2019/06/02  02:15:00  BASE  3.28104  259  5.08032  266  -3.4  100   -3.4  0     0     1005.9   NA       0.0000   9999     390   0     0    
2019/06/02  02:16:00  BASE  3.48096  259  5.08032  266  -3.4  100   -3.4  0     0     1005.9   NA       0.0000   9999     520   0     0    
2019/06/02  02:17:00  BASE  2.77536  258  5.08032  266  -3.4  100   -3.4  0     0     1005.9   NA       0.0000   9999     430   0     0    
2019/06/02  02:18:00  BASE  2.40492  259  5.08032  266  -3.5  100   -3.5  0     0     1005.8   NA       0.0000   9999     430   0     0    
2019/06/02  02:19:00  BASE  2.47548  271  5.08032  266  -3.5  100   -3.5  0     0     1005.8   NA       0.0000   9999     360   0     0    
2019/06/02  02:20:00  BASE  2.65776  278  5.08032  266  -3.5  100   -3.5  0     0     1005.8   NA       0.0000   9999     360   0     0    
2019/06/02  02:21:00  BASE  2.84592  278  5.08032  266  -3.5  100   -3.5  0     0     1005.8   NA       0.0000   9999     360   0     0    
2019/06/02  02:22:00  BASE  2.94588  267  4.47468  257  -3.4  100   -3.4  0     0     1005.8   NA       0.0000   9999     360   0     0    
2019/06/02  02:23:00  BASE  3.16344  257  4.47468  257  -3.4  100   -3.4  0     0     1005.8   NA       0.0000   9999     300   0     0    
2019/06/02  02:24:00  BASE  3.087    259  4.47468  257  -3.4  100   -3.4  0     0     1005.8   NA       0.0000   9999     230   0     0    
2019/06/02  02:25:00  BASE  2.65188  266  4.263    248  -3.4  100   -3.4  0     0     1005.8   NA       0.0000   9999     230   0     0    
2019/06/02  02:26:00  BASE  2.7636   274  4.263    248  -3.4  100   -3.4  0     0     1005.9   NA       0.0000   9999     230   0     0    
2019/06/02  02:27:00  BASE  3.06348  273  4.263    248  -3.4  100   -3.4  0     0     1005.9   NA       0.0000   9999     230   0     0    
2019/06/02  02:28:00  BASE  2.66952  275  4.263    248  -3.4  100   -3.4  0     0     1005.9   NA       0.0000   9999     230   0     0    
2019/06/02  02:29:00  BASE  2.33436  278  4.263    248  -3.4  100   -3.4  0     0     1005.9   NA       0.0000   9999     230   0     0    
2019/06/02  02:30:00  BASE  2.83416  278  4.263    248  -3.4  100   -3.4  0     0     1005.8   NA       0.0000   9999     260   0     0    
2019/06/02  02:31:00  BASE  3.13992  276  4.263    248  -3.4  100   -3.4  0     0     1005.9   NA       0.0000   9999     300   0     0    
2019/06/02  02:32:00  BASE  3.02232  270  4.263    248  -3.4  100   -3.4  0     0     1005.9   NA       0.0000   9999     300   0     0    
2019/06/02  02:33:00  BASE  2.68716  267  3.86904  277  -3.4  100   -3.4  0     0     1005.9   NA       0.0000   9999     260   0     0    
2019/06/02  02:34:00  BASE  2.78712  259  3.86904  277  -3.4  100   -3.4  0     0     1005.9   NA       0.0000   9999     330   0     0    
2019/06/02  02:35:00  BASE  2.9106   247  3.86904  277  -3.4  100   -3.4  0     0     1005.9   NA       0.0000   9999     260   0     0    
2019/06/02  02:36:00  BASE  2.56368  249  3.86904  277  -3.3  100   -3.3  0     0     1005.8   NA       0.0000   9999     230   0     0    
2019/06/02  02:37:00  BASE  2.64012  256  3.86904  277  -3.3  100   -3.3  0     0     1005.9   NA       0.0000   9999     300   0     0    
2019/06/02  02:38:00  BASE  2.6166   263  3.86904  277  -3.3  100   -3.3  0     0     1005.8   NA       0.0000   9999     390   0     0    
2019/06/02  02:39:00  BASE  2.99292  271  3.93372  275  -3.4  100   -3.4  0     0     1005.8   NA       0.0000   9999     300   0     0    
2019/06/02  02:40:00  BASE  3.22812  280  3.93372  275  -3.4  100   -3.4  0     0     1005.8   NA       0.0000   9999     260   0     0    
2019/06/02  02:41:00  BASE  2.88708  283  3.93372  275  -3.4  100   -3.4  0     0     1005.8   NA       0.0000   9999     230   0     0    
2019/06/02  02:42:00  BASE  2.8224   276  3.93372  275  -3.4  100   -3.4  0     0     1005.8   NA       0.0000   9999     230   0     0    
2019/06/02  02:43:00  BASE  2.8224   272  3.93372  269  -3.4  100   -3.4  0     0     1005.8   NA       0.0000   9999     300   0     0    
2019/06/02  02:44:00  BASE  2.68716  268  3.93372  269  -3.4  100   -3.4  0     0     1005.8   NA       0.0000   9999     200   0     0    
2019/06/02  02:45:00  BASE  2.48724  263  3.93372  269  -3.4  100   -3.4  0     0     1005.8   NA       0.0000   9999     200   0     0    
2019/06/02  02:46:00  BASE  2.71068  260  4.116    253  -3.4  100   -3.4  0     0     1005.8   NA       0.0000   9999     230   0     0    
2019/06/02  02:47:00  BASE  3.13404  261  4.116    253  -3.4  100   -3.4  0     0     1005.7   NA       0.0000   9999     300   0     0    
2019/06/02  02:48:00  BASE  3.1458   268  4.29828  263  -3.4  100   -3.4  0     0     1005.7   NA       0.0000   9999     260   0     0    
2019/06/02  02:49:00  BASE  3.43392  275  4.29828  263  -3.4  100   -3.4  0     0     1005.7   NA       0.0000   9999     0     0     0    
2019/06/02  02:50:00  BASE  3.69264  278  4.29828  263  -3.4  100   -3.4  0     0     1005.7   NA       0.0000   9999     0     0     0    
2019/06/02  02:51:00  BASE  3.36336  280  4.29828  263  -3.4  100   -3.4  0     0     1005.7   NA       0.0000   9999     0     0     0    
2019/06/02  02:52:00  BASE  3.27516  284  4.29828  263  -3.5  100   -3.5  0     0     1005.7   NA       0.0000   9999     0     0     0    
2019/06/02  02:53:00  BASE  3.18696  281  4.29828  263  -3.5  100   -3.5  0     0     1005.7   NA       0.0000   9999     0     0     0    
2019/06/02  02:54:00  BASE  3.31044  280  4.29828  263  -3.5  100   -3.5  0     0     1005.6   NA       0.0000   9999     0     0     0    
2019/06/02  02:55:00  BASE  3.36924  287  4.29828  263  -3.5  100   -3.5  0     0     1005.7   NA       0.0000   9999     0     0     0    
2019/06/02  02:56:00  BASE  2.8518   278  4.29828  263  -3.5  100   -3.5  0     0     1005.7   NA       0.0000   9999     0     0     0    
2019/06/02  02:57:00  BASE  2.54604  263  4.29828  263  -3.5  100   -3.5  0     0     1005.7   NA       0.0000   9999     0     0     0    
2019/06/02  02:58:00  BASE  2.25204  263  4.1454   283  -3.5  100   -3.5  0     0     1005.6   NA       0.0000   9999     0     0     0    
2019/06/02  02:59:00  BASE  2.1462   273  4.1454   283  -3.5  100   -3.5  0     0     1005.6   NA       0.0000   9999     0     0     0    
2019/06/02  03:00:00  BASE  2.79888  275  4.68636  259  -3.5  100   -3.5  0     0     1005.6   NA       0.0000   9999     0     0     0    
2019/06/02  03:01:00  BASE  3.77496  266  4.89804  254  -3.5  100   -3.5  0     0     1005.6   NA       0.0000   9999     0     0     0    
2019/06/02  03:02:00  BASE  3.75732  259  4.89804  254  -3.5  100   -3.5  0     0     1005.6   NA       0.0000   9999     0     0     0    
2019/06/02  03:03:00  BASE  3.95136  259  4.99212  258  -3.5  100   -3.5  0     0     1005.6   NA       0.0000   9999     0     0     0    
2019/06/02  03:04:00  BASE  4.41     258  4.99212  258  -3.5  100   -3.5  0     0     1005.6   NA       0.0000   9000     0     0     0    
2019/06/02  03:05:00  BASE  3.98076  261  4.99212  258  -3.6  100   -3.6  0     0     1005.6   NA       0.0000   8000     0     0     0    
2019/06/02  03:06:00  BASE  3.74556  265  4.99212  258  -3.6  100   -3.6  0     0     1005.6   NA       0.0000   8000     0     0     0    
2019/06/02  03:07:00  BASE  3.36336  262  4.99212  258  -3.6  100   -3.6  0     0     1005.6   NA       0.0000   8000     0     0     0    
2019/06/02  03:08:00  BASE  3.46332  262  4.99212  258  -3.6  100   -3.6  0     0     1005.6   NA       0.0000   8000     0     0     0    
2019/06/02  03:09:00  BASE  3.41628  271  4.99212  258  -3.6  100   -3.6  0     0     1005.6   NA       0.0000   BR       8000  0     0    
2019/06/02  03:10:00  BASE  2.90472  284  4.99212  258  -3.6  100   -3.6  0     0     1005.6   NA       0.0000   BR       7000  0     0    
2019/06/02  03:11:00  BASE  3.02232  290  4.99212  258  -3.7  100   -3.7  0     0     1005.5   NA       0.0000   BR       8000  0     0    
2019/06/02  03:12:00  BASE  3.13404  291  4.99212  258  -3.7  100   -3.7  0     0     1005.5   NA       0.0000   BR       7000  0     0    
2019/06/02  03:13:00  BASE  3.09288  295  4.53936  253  -3.7  100   -3.7  0     0     1005.4   NA       0.0000   BR       7000  0     0    
2019/06/02  03:14:00  BASE  3.1164   286  4.53936  253  -3.7  100   -3.7  0     0     1005.5   NA       0.0000   BR       8000  0     0    
2019/06/02  03:15:00  BASE  2.5872   269  4.53936  253  -3.7  100   -3.7  0     0     1005.5   NA       0.0000   BR       6000  0     0    
2019/06/02  03:16:00  BASE  1.98156  282  4.53936  253  -3.7  100   -3.7  0     0     1005.4   NA       0.0000   BR       6000  0     0    
2019/06/02  03:17:00  BASE  2.5284   297  4.53936  253  -3.8  100   -3.8  0     0     1005.4   NA       0.0000   BR       7000  0     0    
2019/06/02  03:18:00  BASE  3.087    295  3.59856  270  -3.8  100   -3.8  0     0     1005.4   NA       0.0000   BR       3800  0     0    
2019/06/02  03:19:00  BASE  2.9988   294  3.56916  288  -3.8  100   -3.8  0     0     1005.4   NA       0.0000   BR       2600  0     0    
2019/06/02  03:20:00  BASE  2.78124  294  3.56916  288  -3.8  100   -3.8  0     0     1005.4   NA       0.0000   BR       2600  0     0    
2019/06/02  03:21:00  BASE  2.57544  295  3.56916  288  -3.8  100   -3.8  0     0     1005.4   NA       0.0000   BR       3500  0     0    
2019/06/02  03:22:00  BASE  2.54016  296  3.56916  288  -3.8  100   -3.8  0     0     1005.4   NA       0.0000   BR       7000  0     0    
2019/06/02  03:23:00  BASE  2.6166   298  3.56916  288  -3.8  100   -3.8  0     0     1005.4   NA       0.0000   BR       9999  0     0    
2019/06/02  03:24:00  BASE  2.9988   300  3.56916  288  -3.8  100   -3.8  0     0     1005.4   NA       0.0000   BR       6000  0     0    
2019/06/02  03:25:00  BASE  3.23988  299  3.56916  288  -3.8  100   -3.8  0     0     1005.4   NA       0.0000   BR       4200  0     0    
2019/06/02  03:26:00  BASE  3.25164  297  3.81024  293  -3.7  100   -3.7  0     0     1005.4   NA       0.0000   BR       4700  0     0    
2019/06/02  03:27:00  BASE  3.51624  296  3.96312  293  -3.7  100   -3.7  0     0     1005.3   NA       0.0000   BR       4100  0     0    
2019/06/02  03:28:00  BASE  3.51036  293  3.96312  293  -3.7  100   -3.7  0     0     1005.3   NA       0.0000   BR       2700  0     0    
2019/06/02  03:29:00  BASE  2.94     290  3.96312  293  -3.7  100   -3.7  0     0     1005.4   NA       0.0000   BR       2800  0     0    
2019/06/02  03:30:00  BASE  2.499    292  3.96312  293  -3.7  100   -3.7  0     0     1005.4   NA       0.0000   BR       3200  0     0    
2019/06/02  03:31:00  BASE  2.78712  290  3.96312  293  -3.7  100   -3.7  0     0     1005.3   NA       0.0000   BR       3900  0     0    
2019/06/02  03:32:00  BASE  2.86944  274  3.96312  293  -3.6  100   -3.6  0     0     1005.3   NA       0.0000   BR       6000  0     0    
2019/06/02  03:33:00  BASE  2.69304  268  3.96312  293  -3.6  100   -3.6  0     0     1005.3   NA       0.0000   BR       8000  0     0    
2019/06/02  03:34:00  BASE  2.8518   273  3.96312  293  -3.6  100   -3.6  0     0     1005.3   NA       0.0000   BR       8000  0     0    
2019/06/02  03:35:00  BASE  2.98116  269  3.96312  293  -3.6  100   -3.6  0     0     1005.3   NA       0.0000   BR       6000  0     0    
2019/06/02  03:36:00  BASE  2.84004  270  3.96312  293  -3.6  100   -3.6  0     0     1005.3   NA       0.0000   BR       7000  0     0    
2019/06/02  03:37:00  BASE  2.64012  264  3.75144  288  -3.6  100   -3.6  0     0     1005.3   NA       0.0000   BR       9000  0     0    
2019/06/02  03:38:00  BASE  2.4696   251  3.59856  258  -3.6  100   -3.6  0     0     1005.3   NA       0.0000   BR       9999  0     0    
2019/06/02  03:39:00  BASE  2.72832  247  4.29828  245  -3.6  100   -3.6  0     0     1005.3   NA       0.0000   BR       9999  0     0    
2019/06/02  03:40:00  BASE  3.37512  252  4.29828  245  -3.6  100   -3.6  0     0     1005.3   NA       0.0000   BR       9999  0     0    
2019/06/02  03:41:00  BASE  3.26928  267  4.29828  245  -3.6  100   -3.6  0     0     1005.3   NA       0.0000   BR       7000  0     0    
2019/06/02  03:42:00  BASE  3.00468  269  4.29828  245  -3.6  100   -3.6  0     0     1005.3   NA       0.0000   BR       5000  0     0    
2019/06/02  03:43:00  BASE  2.75772  263  4.29828  245  -3.6  100   -3.6  0     0     1005.3   NA       0.0000   BR       6000  0     0    
2019/06/02  03:44:00  BASE  2.9694   271  4.44528  276  -3.6  100   -3.6  0     0     1005.3   NA       0.0000   BR       9000  0     0    
2019/06/02  03:45:00  BASE  3.2046   270  4.44528  276  -3.6  100   -3.6  0     0     1005.3   NA       0.0000   BR       5000  0     0    
2019/06/02  03:46:00  BASE  3.234    266  4.44528  276  -3.6  100   -3.6  0     0     1005.3   NA       0.0000   BR       3800  0     0    
2019/06/02  03:47:00  BASE  3.37512  270  4.44528  276  -3.6  100   -3.6  0     0     1005.3   NA       0.0000   BR       3900  0     0    
2019/06/02  03:48:00  BASE  3.12816  270  4.44528  276  -3.6  100   -3.6  0     0     1005.3   NA       0.0000   BR       4200  0     0    
2019/06/02  03:49:00  BASE  3.23988  266  4.44528  276  -3.6  100   -3.6  0     0     1005.3   NA       0.0000   BR       4900  0     0    
2019/06/02  03:50:00  BASE  3.45156  259  4.44528  276  -3.6  100   -3.6  0     0     1005.3   NA       0.0000   BR       4600  0     0    
2019/06/02  03:51:00  BASE  3.28692  257  4.44528  276  -3.6  100   -3.6  0     0     1005.3   NA       0.0000   BR       3800  0     0    
2019/06/02  03:52:00  BASE  3.07524  265  4.44528  276  -3.7  100   -3.7  0     0     1005.3   NA       0.0000   BR       3200  0     0    
2019/06/02  03:53:00  BASE  2.79888  274  4.44528  276  -3.7  100   -3.7  0     0     1005.2   NA       0.0000   BR       2900  0     0    
2019/06/02  03:54:00  BASE  2.68716  278  4.2336   271  -3.7  100   -3.7  0     0     1005.2   NA       0.0000   BR       3300  0     0    
2019/06/02  03:55:00  BASE  2.96352  282  4.2336   271  -3.6  100   -3.6  0     0     1005.2   NA       0.0000   BR       3600  0     0    
2019/06/02  03:56:00  BASE  3.08112  287  4.02192  262  -3.6  100   -3.6  0     0     1005.2   NA       0.0000   BR       3500  0     0    
2019/06/02  03:57:00  BASE  3.09288  288  4.02192  262  -3.6  100   -3.6  0     0     1005.2   NA       0.0000   BR       3200  0     0    
2019/06/02  03:58:00  BASE  2.99292  284  4.02192  262  -3.6  100   -3.6  0     0     1005.2   NA       0.0000   BR       3100  0     0    
2019/06/02  03:59:00  BASE  2.69304  278  4.02192  262  -3.6  100   -3.6  0     0     1005.2   NA       0.0000   BR       3300  0     0    
2019/06/02  04:00:00  BASE  2.36964  275  3.59856  289  -3.6  100   -3.6  0     0     1005.3   NA       0.0000   BR       2900  0     0    
2019/06/02  04:01:00  BASE  2.352    272  3.59856  289  -3.6  100   -3.6  0     0     1005.2   NA       0.0000   BR       2500  0     0    
2019/06/02  04:02:00  BASE  2.66364  264  3.59856  289  -3.6  100   -3.6  0     0     1005.3   NA       0.0000   BR       3300  0     0    
2019/06/02  04:03:00  BASE  2.7636   259  3.59856  289  -3.6  100   -3.6  0     0     1005.2   NA       0.0000   BR       5000  0     0    
2019/06/02  04:04:00  BASE  2.44608  265  3.59856  289  -3.6  100   -3.6  0     0     1005.2   NA       0.0000   BR       5000  0     0    
2019/06/02  04:05:00  BASE  2.21088  276  3.59856  289  -3.6  100   -3.6  0     0     1005.2   NA       0.0000   BR       4300  0     0    
2019/06/02  04:06:00  BASE  1.97568  282  3.59856  289  -3.5  100   -3.5  0     0     1005.2   NA       0.0000   BR       3900  0     0    
2019/06/02  04:07:00  BASE  2.15208  268  3.35748  262  -3.5  100   -3.5  0     0     1005.1   NA       0.0000   BR       4000  0     0    
2019/06/02  04:08:00  BASE  2.90472  253  3.62796  252  -3.5  100   -3.5  0     0     1005.1   NA       0.0000   BR       6000  0     0    
2019/06/02  04:09:00  BASE  2.93412  254  3.62796  259  -3.5  100   -3.5  0     0     1005.1   NA       0.0000   BR       7000  0     0    
2019/06/02  04:10:00  BASE  2.95764  255  4.41588  273  -3.6  100   -3.6  0     0     1005.1   NA       0.0000   BR       7000  0     0    
2019/06/02  04:11:00  BASE  3.86904  258  4.99212  260  -3.6  100   -3.6  0     0     1005.1   NA       0.0000   BR       8000  0     0    
2019/06/02  04:12:00  BASE  4.01604  262  4.99212  260  -3.6  100   -3.6  0     0     1005.1   NA       0.0000   BR       9000  0     0    
2019/06/02  04:13:00  BASE  3.47508  265  4.99212  260  -3.6  100   -3.6  0     0     1005.1   NA       0.0000   BR       9000  0     0    
2019/06/02  04:14:00  BASE  3.27516  274  4.99212  260  -3.6  100   -3.6  0     0     1005.1   NA       0.0000   BR       8000  0     0    
2019/06/02  04:15:00  BASE  3.11052  283  4.99212  260  -3.6  100   -3.6  0     0     1005.1   NA       0.0000   BR       7000  0     0    
2019/06/02  04:16:00  BASE  3.16344  285  4.99212  260  -3.6  100   -3.6  0     0     1005.1   NA       0.0000   BR       7000  0     0    
2019/06/02  04:17:00  BASE  3.00468  287  4.99212  260  -3.6  100   -3.6  0     0     1005.1   NA       0.0000   BR       6000  0     0    
2019/06/02  04:18:00  BASE  3.03996  291  4.99212  260  -3.6  100   -3.6  0     0     1005.1   NA       0.0000   BR       6000  0     0    
2019/06/02  04:19:00  BASE  3.087    283  4.99212  260  -3.6  100   -3.6  0     0     1005.0   NA       0.0000   BR       6000  0     0    
2019/06/02  04:20:00  BASE  2.78712  274  4.99212  260  -3.6  100   -3.6  0     0     1005.1   NA       0.0000   BR       7000  0     0    
2019/06/02  04:21:00  BASE  2.91648  280  4.1454   262  -3.6  100   -3.6  0     0     1005.1   NA       0.0000   BR       7000  0     0    
2019/06/02  04:22:00  BASE  3.06936  286  3.86904  261  -3.6  100   -3.6  0     0     1005.1   NA       0.0000   BR       7000  0     0    
2019/06/02  04:23:00  BASE  3.40452  287  4.116    276  -3.6  100   -3.6  0     0     1005.0   NA       0.0000   BR       8000  0     0    
2019/06/02  04:24:00  BASE  3.53976  284  4.116    276  -3.5  100   -3.5  0     0     1005.0   NA       0.0000   BR       8000  0     0    
2019/06/02  04:25:00  BASE  3.18108  279  4.116    276  -3.5  100   -3.5  0     0     1005.1   NA       0.0000   BR       7000  0     0    
2019/06/02  04:26:00  BASE  3.01056  278  4.116    276  -3.5  100   -3.5  0     0     1005.1   NA       0.0000   BR       6000  0     0    
2019/06/02  04:27:00  BASE  3.00468  280  4.116    276  -3.5  100   -3.5  0     0     1005.0   NA       0.0000   BR       6000  0     0    
2019/06/02  04:28:00  BASE  2.99292  284  4.116    276  -3.5  100   -3.5  0     0     1005.0   NA       0.0000   BR       7000  0     0    
2019/06/02  04:29:00  BASE  2.94     283  4.116    276  -3.5  100   -3.5  0     0     1005.0   NA       0.0000   BR       8000  0     0    
2019/06/02  04:30:00  BASE  2.74596  277  4.116    276  -3.5  100   -3.5  0     0     1005.0   NA       0.0000   BR       7000  0     0    
2019/06/02  04:31:00  BASE  2.50488  282  4.116    276  -3.5  100   -3.5  0     0     1005.0   NA       0.0000   BR       6000  0     0    
2019/06/02  04:32:01  BASE  2.65188  292  4.116    276  -3.5  100   -3.5  0     0     1004.9   NA       0.0000   BR       6000  0     0    
2019/06/02  04:33:00  BASE  2.90472  291  3.78084  276  -3.5  100   -3.5  0     0     1004.9   NA       0.0000   BR       5000  0     0    
2019/06/02  04:34:00  BASE  2.646    282  3.62796  280  -3.5  100   -3.5  0     0     1004.9   NA       0.0000   BR       7000  0     0    
2019/06/02  04:35:00  BASE  2.45784  277  3.62796  280  -3.5  100   -3.5  0     0     1004.9   NA       0.0000   BR       9999  200   0    
2019/06/02  04:36:00  BASE  2.49312  279  3.53976  287  -3.5  100   -3.5  0     0     1004.9   NA       0.0000   BR       9999  0     0    
2019/06/02  04:37:00  BASE  2.36376  272  3.48096  281  -3.5  100   -3.5  0     0     1004.9   NA       0.0000   BR       9999  0     0    
2019/06/02  04:38:00  BASE  2.2638   274  3.38688  286  -3.5  100   -3.5  0     0     1004.9   NA       0.0000   BR       9999  0     0    
2019/06/02  04:39:00  BASE  2.58132  287  3.38688  286  -3.5  100   -3.5  0     0     1004.9   NA       0.0000   BR       9999  0     0    
2019/06/02  04:40:00  BASE  3.16344  298  3.81024  305  -3.5  100   -3.5  0     0     1004.9   NA       0.0000   BR       9999  0     0    
2019/06/02  04:41:00  BASE  3.41628  304  3.81024  305  -3.5  100   -3.5  0     0     1004.9   NA       0.0000   BR       9999  0     0    
2019/06/02  04:42:00  BASE  3.4986   308  3.90432  311  -3.5  100   -3.5  0     0     1004.9   NA       0.0000   BR       9999  0     0    
2019/06/02  04:43:00  BASE  3.4692   312  3.90432  311  -3.5  100   -3.5  0     0     1004.9   NA       0.0000   9000     0     0     0    
2019/06/02  04:44:00  BASE  3.36336  310  3.90432  311  -3.5  100   -3.5  0     0     1004.9   NA       0.0000   9000     0     0     0    
2019/06/02  04:45:00  BASE  3.16344  305  3.90432  311  -3.6  100   -3.6  0     0     1004.9   NA       0.0000   9999     230   0     0    
2019/06/02  04:46:00  BASE  2.71656  303  3.90432  311  -3.6  100   -3.6  0     0     1004.9   NA       0.0000   9999     260   0     0    
2019/06/02  04:47:00  BASE  2.7048   304  3.90432  311  -3.5  100   -3.5  0     0     1004.9   NA       0.0000   9999     260   0     0    
2019/06/02  04:48:00  BASE  2.93412  309  3.90432  311  -3.5  100   -3.5  0     0     1004.9   NA       0.0000   9999     300   0     0    
2019/06/02  04:49:00  BASE  3.06936  312  3.90432  311  -3.5  100   -3.5  0     0     1004.9   NA       0.0000   9999     0     0     0    
2019/06/02  04:50:00  BASE  3.09288  309  3.90432  311  -3.5  100   -3.5  0     0     1004.9   NA       0.0000   9000     0     0     0    
2019/06/02  04:51:00  BASE  2.75184  307  3.90432  311  -3.5  100   -3.5  0     0     1004.9   NA       0.0000   9999     260   0     0    
2019/06/02  04:52:00  BASE  2.28144  313  3.81024  306  -3.5  100   -3.5  0     0     1004.9   NA       0.0000   9999     300   0     0    
2019/06/02  04:53:00  BASE  2.058    312  3.81024  306  -3.5  100   -3.5  0     0     1004.9   NA       0.0000   9999     230   0     0    
2019/06/02  04:54:00  BASE  2.3226   311  3.59856  307  -3.5  100   -3.5  0     0     1004.8   NA       0.0000   9999     260   0     0    
2019/06/02  04:55:00  BASE  2.84004  311  3.59856  307  -3.5  100   -3.5  0     0     1004.8   NA       0.0000   9999     300   0     0    
2019/06/02  04:56:00  BASE  3.07524  311  3.65736  305  -3.5  100   -3.5  0     0     1004.8   NA       0.0000   9999     330   1020  0    
2019/06/02  04:57:00  BASE  3.2634   317  3.93372  309  -3.5  100   -3.5  0     0     1004.8   NA       0.0000   9999     330   0     0    
2019/06/02  04:58:00  BASE  3.28104  317  3.93372  309  -3.5  100   -3.5  0     0     1004.8   NA       0.0000   9999     360   0     0    
2019/06/02  04:59:00  BASE  2.96352  321  3.93372  309  -3.4  100   -3.4  0     0     1004.8   NA       0.0000   9999     260   1050  0    
2019/06/02  05:00:00  BASE  2.7048   312  3.93372  309  -3.5  100   -3.5  0     0     1004.8   NA       0.0000   9999     300   0     0    
2019/06/02  05:01:00  BASE  2.72832  306  3.93372  309  -3.4  100   -3.4  0     0     1004.8   NA       0.0000   9999     360   0     0    
2019/06/02  05:02:00  BASE  2.9694   316  3.93372  309  -3.4  100   -3.4  0     0     1004.8   NA       0.0000   9999     330   0     0    
2019/06/02  05:03:00  BASE  3.06348  318  3.93372  309  -3.4  100   -3.4  0     0     1004.8   NA       0.0000   9999     260   0     0    
2019/06/02  05:04:00  BASE  3.01644  313  3.93372  309  -3.5  100   -3.5  0     0     1004.8   NA       0.0000   9999     260   0     0    
2019/06/02  05:05:00  BASE  3.29868  311  4.02192  312  -3.5  100   -3.5  0     0     1004.8   NA       0.0000   9999     230   0     0    
2019/06/02  05:06:00  BASE  3.66912  310  4.29828  290  -3.5  100   -3.5  0     0     1004.8   NA       0.0000   9999     260   0     0    
2019/06/02  05:07:00  BASE  3.74556  302  4.29828  290  -3.5  100   -3.5  0     0     1004.8   NA       0.0000   9999     390   0     0    
2019/06/02  05:08:00  BASE  3.94548  292  5.2332   284  -3.5  100   -3.5  0     0     1004.8   NA       0.0000   9999     430   0     0    
2019/06/02  05:09:00  BASE  4.12188  288  5.2332   284  -3.5  100   -3.5  0     0     1004.7   NA       0.0000   9999     490   0     0    
2019/06/02  05:10:00  BASE  3.91608  288  5.2332   284  -3.5  100   -3.5  0     0     1004.7   NA       0.0000   9999     390   0     0    
2019/06/02  05:11:00  BASE  3.89256  287  5.2332   284  -3.5  100   -3.5  0     0     1004.7   NA       0.0000   9999     260   0     0    
2019/06/02  05:12:00  BASE  3.969    287  5.2332   284  -3.5  100   -3.5  0     0     1004.7   NA       0.0000   9999     300   0     0    
2019/06/02  05:13:00  BASE  3.65736  289  5.2332   284  -3.5  100   -3.5  0     0     1004.7   NA       0.0000   9999     360   0     0    
2019/06/02  05:14:00  BASE  3.60444  292  5.2332   284  -3.5  100   -3.5  0     0     1004.7   NA       0.0000   9999     330   0     0    
2019/06/02  05:15:00  BASE  3.8514   297  5.2332   284  -3.5  100   -3.5  0     0     1004.7   NA       0.0000   9999     300   0     0    
2019/06/02  05:16:00  BASE  3.85728  300  5.2332   284  -3.5  100   -3.5  0     0     1004.7   NA       0.0000   9999     230   0     0    
2019/06/02  05:17:00  BASE  3.75144  301  5.2332   284  -3.5  100   -3.5  0     0     1004.7   NA       0.0000   9999     230   0     0    
2019/06/02  05:18:00  BASE  3.75732  305  4.80984  290  -3.5  100   -3.6  0     0     1004.7   NA       0.0000   9999     0     0     0    
2019/06/02  05:19:00  BASE  3.77496  307  4.41588  284  -3.6  100   -3.6  0     0     1004.7   NA       0.0000   9999     0     0     0    
2019/06/02  05:20:00  BASE  3.57504  314  4.41588  284  -3.6  100   -3.6  0     0     1004.7   NA       0.0000   9999     0     0     0    
2019/06/02  05:21:00  BASE  3.19872  321  4.29828  297  -3.6  100   -3.6  0     0     1004.7   NA       0.0000   9999     0     0     0    
2019/06/02  05:22:00  BASE  3.1164   319  4.29828  297  -3.6  100   -3.6  0     0     1004.7   NA       0.0000   9999     0     0     0    
2019/06/02  05:23:00  BASE  3.3222   317  4.29828  297  -3.6  100   -3.6  0     0     1004.7   NA       0.0000   9999     0     0     0    
2019/06/02  05:24:00  BASE  3.40452  321  4.29828  297  -3.6  100   -3.6  0     0     1004.7   NA       0.0000   9999     0     0     0    
2019/06/02  05:25:00  BASE  3.38688  326  4.02192  303  -3.6  100   -3.6  0     0     1004.7   NA       0.0000   9999     0     0     0    
2019/06/02  05:26:00  BASE  3.43392  329  4.02192  303  -3.6  100   -3.6  0     0     1004.7   NA       0.0000   9999     0     0     0    
2019/06/02  05:27:00  BASE  3.49272  330  4.02192  303  -3.6  100   -3.6  0     0     1004.7   NA       0.0000   9999     0     0     0    
2019/06/02  05:28:00  BASE  3.32808  330  4.02192  303  -3.6  100   -3.6  0     0     1004.7   NA       0.0000   9999     200   820   0    
2019/06/02  05:29:00  BASE  3.09876  325  3.96312  327  -3.6  100   -3.6  0     0     1004.7   NA       0.0000   9999     0     0     0    
2019/06/02  05:30:00  BASE  3.06936  328  3.96312  327  -3.7  100   -3.7  0     0     1004.7   NA       0.0000   9999     0     0     0    
2019/06/02  05:31:00  BASE  3.234    338  3.96312  327  -3.7  100   -3.7  0     0     1004.7   NA       0.0000   9999     0     0     0    
2019/06/02  05:32:00  BASE  3.41628  339  3.96312  327  -3.7  100   -3.7  0     0     1004.7   NA       0.0000   9999     0     0     0    
2019/06/02  05:33:00  BASE  3.33396  339  3.96312  327  -3.7  100   -3.7  0     0     1004.7   NA       0.0000   9999     0     0     0    
2019/06/02  05:34:00  BASE  3.23988  342  3.96312  327  -3.7  100   -3.7  0     0     1004.6   NA       0.0000   9999     0     0     0    
2019/06/02  05:35:00  BASE  3.40452  347  3.96312  327  -3.7  100   -3.7  0     0     1004.6   NA       0.0000   9999     360   0     0    
2019/06/02  05:36:00  BASE  3.53976  348  3.96312  327  -3.7  100   -3.7  0     0     1004.6   NA       0.0000   9999     390   0     0    
2019/06/02  05:37:01  BASE  3.3222   351  3.90432  342  -3.7  100   -3.7  0     0     1004.6   NA       0.0000   9999     300   0     0    
2019/06/02  05:38:00  BASE  3.15168  350  3.90432  342  -3.7  100   -3.7  0     0     1004.6   NA       0.0000   9999     300   0     0    
2019/06/02  05:39:00  BASE  3.15756  347  3.90432  342  -3.7  100   -3.7  0     0     1004.6   NA       0.0000   9999     200   0     0    
2019/06/02  05:40:00  BASE  3.06936  344  3.90432  342  -3.7  100   -3.7  0     0     1004.6   NA       0.0000   9999     260   0     0    
2019/06/02  05:41:00  BASE  3.06936  340  3.90432  342  -3.7  100   -3.7  0     0     1004.6   NA       0.0000   9999     260   0     0    
2019/06/02  05:42:00  BASE  3.47508  340  3.93372  339  -3.7  100   -3.7  0     0     1004.5   NA       0.0000   9000     0     0     0    
2019/06/02  05:43:00  BASE  3.82788  340  3.96312  339  -3.7  100   -3.7  0     0     1004.5   NA       0.0000   5000     0     0     0    
2019/06/02  05:44:00  BASE  3.822    344  3.96312  339  -3.7  100   -3.7  0     0     1004.5   NA       0.0000   5000     0     0     0    
2019/06/02  05:45:00  BASE  3.71028  347  3.96312  339  -3.7  100   -3.7  0     0     1004.5   NA       0.0000   BR       4900  0     0    
2019/06/02  05:46:00  BASE  3.4986   347  3.96312  339  -3.7  100   -3.7  0     0     1004.5   NA       0.0000   BR       4500  0     0    
2019/06/02  05:47:00  BASE  3.28692  346  3.96312  339  -3.7  100   -3.7  0     0     1004.5   NA       0.0000   BR       5000  0     0    
2019/06/02  05:48:00  BASE  3.3516   347  3.96312  339  -3.7  100   -3.7  0     0     1004.5   NA       0.0000   BR       6000  0     0    
2019/06/02  05:49:00  BASE  3.59268  347  3.96312  339  -3.7  100   -3.7  0     0     1004.5   NA       0.0000   BR       5000  0     0    
2019/06/02  05:50:00  BASE  3.53976  345  3.96312  339  -3.7  100   -3.7  0     0     1004.5   NA       0.0000   BR       4400  0     0    
2019/06/02  05:51:00  BASE  3.25164  346  3.96312  339  -3.7  100   -3.7  0     0     1004.5   NA       0.0000   BR       4800  0     0    
2019/06/02  05:52:00  BASE  3.27516  347  3.96312  339  -3.7  100   -3.7  0     0     1004.5   NA       0.0000   BR       5000  0     0    
2019/06/02  05:53:00  BASE  3.44568  347  3.93372  344  -3.7  100   -3.7  0     0     1004.5   NA       0.0000   BR       7000  0     0    
2019/06/02  05:54:00  BASE  3.28104  354  3.93372  344  -3.6  100   -3.6  0     0     1004.5   NA       0.0000   BR       8000  0     0    
2019/06/02  05:55:00  BASE  3.11052  351  3.93372  344  -3.6  100   -3.6  0     0     1004.5   NA       0.0000   BR       9000  0     0    
2019/06/02  05:56:00  BASE  3.1458   344  3.93372  344  -3.6  100   -3.6  0     0     1004.4   NA       0.0000   BR       9000  0     0    
2019/06/02  05:57:00  BASE  3.25752  343  3.93372  344  -3.7  100   -3.7  0     0     1004.4   NA       0.0000   BR       9000  0     0    
2019/06/02  05:58:00  BASE  3.18108  340  3.90432  350  -3.7  100   -3.7  0     0     1004.5   NA       0.0000   BR       8000  0     0    
2019/06/02  05:59:00  BASE  2.87532  338  3.75144  348  -3.7  100   -3.7  0     0     1004.5   NA       0.0000   BR       7000  0     0    
2019/06/02  06:00:00  BASE  2.43432  340  3.75144  348  -3.7  100   -3.7  0     0     1004.5   NA       0.0000   BR       6000  0     0    
2019/06/02  06:01:00  BASE  2.18148  343  3.75144  348  -3.7  100   -3.7  0     0     1004.5   NA       0.0000   BR       4500  0     0    
2019/06/02  06:02:00  BASE  2.16384  340  3.62796  351  -3.7  100   -3.7  0     0     1004.5   NA       0.0000   BR       3800  0     0    
2019/06/02  06:03:00  BASE  1.86984  335  3.56916  342  -3.7  100   -3.7  0     0     1004.5   NA       0.0000   BR       3100  0     0    
2019/06/02  06:04:00  BASE  1.60524  339  3.56916  342  -3.7  100   -3.7  0     0     1004.5   NA       0.0000   BR       2700  0     0    
2019/06/02  06:05:00  BASE  1.54644  345  3.56916  342  -3.7  100   -3.7  0     0     1004.5   NA       0.0000   BR       3100  0     0    
2019/06/02  06:06:00  BASE  1.48176  348  3.56916  342  -3.7  100   -3.7  0     0     1004.5   NA       0.0000   BR       3200  0     0    
2019/06/02  06:07:00  BASE  1.45236  347  3.32808  342  -3.7  100   -3.7  0     0     1004.5   NA       0.0000   BR       3100  0     0    
2019/06/02  06:08:00  BASE  1.51116  336  2.93412  336  -3.7  100   -3.7  0     0     1004.5   NA       0.0000   BR       3400  0     0    
2019/06/02  06:09:00  BASE  1.40532  329  2.42256  338  -3.7  100   -3.7  0     0     1004.5   NA       0.0000   BR       3300  0     0    
2019/06/02  06:10:00  BASE  1.40532  336  2.42256  338  -3.7  100   -3.7  0     0     1004.4   NA       0.0000   BR       3300  0     0    
2019/06/02  06:11:00  BASE  1.62876  348  2.42256  338  -3.7  100   -3.7  0     0     1004.4   NA       0.0000   BR       4000  0     0    
2019/06/02  06:12:00  BASE  1.64052  357  1.96392  312  -3.7  100   -3.7  0     0     1004.4   NA       0.0000   BR       5000  0     0    
2019/06/02  06:13:00  BASE  1.65816  352  1.96392  312  -3.6  100   -3.6  0     0     1004.4   NA       0.0000   BR       5000  0     0    
2019/06/02  06:14:00  BASE  1.69344  345  1.96392  312  -3.6  100   -3.6  0     0     1004.4   NA       0.0000   BR       6000  0     0    
2019/06/02  06:15:00  BASE  1.7052   338  2.1462   327  -3.6  100   -3.6  0     0     1004.3   NA       0.0000   BR       8000  0     0    
2019/06/02  06:16:00  BASE  1.60524  334  2.1462   327  -3.6  100   -3.6  0     0     1004.3   NA       0.0000   BR       9999  0     0    
2019/06/02  06:17:00  BASE  1.53468  343  2.1462   327  -3.6  100   -3.6  0     0     1004.2   NA       0.0000   BR       9999  0     0    
2019/06/02  06:18:00  BASE  1.66404  346  2.1462   327  -3.6  100   -3.6  0     0     1004.2   NA       0.0000   BR       9999  0     0    
2019/06/02  06:19:00  BASE  1.72284  341  2.1462   327  -3.6  100   -3.6  0     0     1004.2   NA       0.0000   BR       9999  0     0    
2019/06/02  06:20:00  BASE  1.66992  340  2.1462   327  -3.6  100   -3.6  0     0     1004.2   NA       0.0000   BR       9999  0     0    
2019/06/02  06:21:00  BASE  1.72284  340  2.1462   327  -3.6  100   -3.6  0     0     1004.2   NA       0.0000   -SN      BR    9999  0    
2019/06/02  06:22:00  BASE  1.82868  346  2.1462   327  -3.6  100   -3.6  0     0     1004.2   NA       0.0000   -SN      BR    9999  0    
2019/06/02  06:23:00  BASE  1.80516  349  2.1462   327  -3.6  100   -3.6  0     0     1004.2   NA       0.0000   -SN      9999  0     0    
2019/06/02  06:24:00  BASE  1.69344  345  2.1462   327  -3.6  100   -3.6  0     0     1004.2   NA       0.0000   -SN      9999  0     0    
2019/06/02  06:25:00  BASE  1.54056  346  2.0286   342  -3.6  100   -3.6  0     0     1004.1   NA       0.0000   -SN      9999  0     0    
2019/06/02  06:26:00  BASE  1.49352  349  2.0286   342  -3.6  100   -3.6  0     0     1004.1   NA       0.0000   -SN      9999  0     0    
2019/06/02  06:27:00  BASE  1.56996  347  2.0286   342  -3.6  100   -3.6  0     0     1004.1   NA       0.0000   -SN      9999  0     0    
2019/06/02  06:28:00  BASE  1.60524  347  2.0286   342  -3.6  100   -3.6  0     0     1004.2   NA       0.0000   -SN      9999  0     0    
2019/06/02  06:29:00  BASE  1.65816  343  2.0286   342  -3.6  100   -3.6  0     0     1004.2   NA       0.0000   -SN      9999  0     0    
2019/06/02  06:30:00  BASE  1.71108  342  2.0286   342  -3.6  100   -3.6  0     0     1004.2   NA       0.0000   -SN      9999  0     0    
2019/06/02  06:31:00  BASE  1.72284  342  2.0286   342  -3.6  100   -3.6  0     0     1004.2   NA       0.0000   -SN      9999  0     0    
2019/06/02  06:32:00  BASE  1.8816   337  2.1168   335  -3.6  100   -3.6  0     0     1004.2   NA       0.0000   -SN      9999  0     0    
2019/06/02  06:33:00  BASE  1.87572  333  2.1168   335  -3.6  100   -3.6  0     0     1004.2   NA       0.0000   -SN      9999  0     0    
2019/06/02  06:34:00  BASE  1.87572  329  2.1462   327  -3.6  100   -3.6  0     0     1004.2   NA       0.0000   -SN      9999  0     0    
2019/06/02  06:35:00  BASE  2.12268  323  2.42256  320  -3.6  100   -3.6  0     0     1004.2   NA       0.0000   -SN      9999  0     0    
2019/06/02  06:36:00  BASE  2.25204  311  2.42256  305  -3.5  100   -3.5  0     0     1004.2   NA       0.0000   -SN      9999  0     0    
2019/06/02  06:37:00  BASE  2.32848  311  2.66364  318  -3.5  100   -3.5  0     0     1004.2   NA       0.0000   9999     0     0     0    
2019/06/02  06:38:00  BASE  2.54016  319  2.84592  325  -3.5  100   -3.5  0     0     1004.2   NA       0.0000   9999     0     0     0    
2019/06/02  06:39:00  BASE  2.68716  323  2.90472  329  -3.5  100   -3.5  0     0     1004.2   NA       0.0000   9999     0     0     0    
2019/06/02  06:40:00  BASE  2.87532  325  3.26928  331  -3.4  100   -3.4  0     0     1004.2   NA       0.0000   9999     0     0     0    
2019/06/02  06:41:00  BASE  2.8224   315  3.26928  331  -3.4  100   -3.4  0     0     1004.2   NA       0.0000   9999     0     0     0    
2019/06/02  06:42:00  BASE  2.59308  296  3.26928  331  -3.4  100   -3.4  0     0     1004.2   NA       0.0000   9999     0     0     0    
2019/06/02  06:43:00  BASE  3.03996  294  3.93372  303  -3.4  100   -3.4  0     0     1004.2   NA       0.0000   9000     0     0     0    
2019/06/02  06:44:00  BASE  3.63972  295  4.1454   288  -3.3  100   -3.3  0     0     1004.2   NA       0.0000   9999     0     0     0    
2019/06/02  06:45:00  BASE  3.8514   295  4.59816  302  -3.3  100   -3.3  0     0     1004.2   NA       0.0000   9999     0     0     0    
2019/06/02  06:46:00  BASE  4.09836  299  4.68636  299  -3.2  100   -3.2  0     0     1004.1   NA       0.0000   9999     0     0     0    
2019/06/02  06:47:00  BASE  4.16892  298  4.68636  299  -3.2  100   -3.2  0     0     1004.1   NA       0.0000   8000     0     0     0    
2019/06/02  06:48:00  BASE  3.96312  298  4.68636  299  -3.2  100   -3.2  0     0     1004.1   NA       0.0000   9000     0     0     0    
2019/06/02  06:49:00  BASE  4.03368  297  4.68636  299  -3.2  100   -3.2  0     0     1004.1   NA       0.0000   8000     0     0     0    
2019/06/02  06:50:00  BASE  4.04544  302  4.68636  299  -3.3  100   -3.3  0     0     1004.1   NA       0.0000   BR       7000  0     0    
2019/06/02  06:51:00  BASE  3.7926   311  4.68636  299  -3.3  100   -3.3  0     0     1004.1   NA       0.0000   BR       7000  0     0    
2019/06/02  06:52:00  BASE  3.822    313  4.68636  299  -3.3  100   -3.3  0     0     1004.1   NA       0.0000   BR       9000  0     0    
2019/06/02  06:53:00  BASE  3.91608  316  4.68636  299  -3.3  100   -3.3  0     0     1004.1   NA       0.0000   BR       9999  0     0    
2019/06/02  06:54:00  BASE  3.76908  321  4.68636  299  -3.3  100   -3.3  0     0     1004.1   NA       0.0000   BR       9000  0     0    
2019/06/02  06:55:00  BASE  3.83964  319  4.68636  299  -3.2  100   -3.2  0     0     1004.1   NA       0.0000   BR       9999  0     0    
2019/06/02  06:56:00  BASE  3.6162   311  4.47468  298  -3.2  100   -3.2  0     0     1004.1   NA       0.0000   BR       9999  0     0    
2019/06/02  06:57:00  BASE  3.25752  305  4.47468  298  -3.2  100   -3.2  0     0     1004.1   NA       0.0000   BR       9999  0     0    
2019/06/02  06:58:00  BASE  3.28104  299  4.47468  298  -3.2  100   -3.2  0     0     1004.1   NA       0.0000   BR       9999  0     0    
2019/06/02  06:59:00  BASE  3.2046   298  4.32768  315  -3.2  100   -3.2  0     0     1004.1   NA       0.0000   BR       9999  0     0    
2019/06/02  07:00:00  BASE  2.96352  299  4.32768  315  -3.3  100   -3.3  0     0     1004.1   NA       0.0000   BR       9999  0     0    
2019/06/02  07:01:00  BASE  2.7342   303  4.32768  315  -3.3  100   -3.3  0     0     1004.1   NA       0.0000   9999     0     0     0    
2019/06/02  07:02:00  BASE  2.74008  310  4.32768  315  -3.3  100   -3.3  0     0     1004.1   NA       0.0000   9999     0     0     0    
2019/06/02  07:03:00  BASE  2.94     306  4.32768  315  -3.3  100   -3.3  0     0     1004.1   NA       0.0000   9999     0     0     0    
2019/06/02  07:04:00  BASE  2.86356  299  4.32768  315  -3.3  100   -3.3  0     0     1004.1   NA       0.0000   9999     0     0     0    
2019/06/02  07:05:00  BASE  2.7342   295  3.72204  310  -3.3  100   -3.3  0     0     1004.1   NA       0.0000   9999     0     0     0    
2019/06/02  07:06:00  BASE  2.75772  291  3.53976  298  -3.3  100   -3.3  0     0     1004.1   NA       0.0000   9999     0     0     0    
2019/06/02  07:07:00  BASE  3.12228  291  3.93372  291  -3.3  100   -3.3  0     0     1004.1   NA       0.0000   9999     0     0     0    
2019/06/02  07:08:00  BASE  3.28692  293  3.93372  291  -3.3  100   -3.3  0     0     1004.1   NA       0.0000   9999     0     0     0    
2019/06/02  07:09:00  BASE  2.793    299  3.93372  291  -3.2  100   -3.2  0     0     1004.1   NA       0.0000   9999     0     0     0    
2019/06/02  07:10:00  BASE  2.75772  303  3.93372  291  -3.2  100   -3.2  0     0     1004.1   NA       0.0000   9999     0     0     0    
2019/06/02  07:11:00  BASE  3.01056  295  3.93372  291  -3.2  100   -3.2  0     0     1004.1   NA       0.0000   9999     0     0     0    
2019/06/02  07:12:00  BASE  3.0576   291  3.93372  291  -3.2  100   -3.2  0     0     1004.1   NA       0.0000   9999     0     0     0    
2019/06/02  07:13:00  BASE  3.09876  293  3.93372  291  -3.2  100   -3.2  0     0     1004.1   NA       0.0000   9999     0     0     0    
2019/06/02  07:14:00  BASE  3.09288  293  3.93372  291  -3.2  100   -3.2  0     0     1004.1   NA       0.0000   9999     0     0     0    
2019/06/02  07:15:00  BASE  3.1458   293  3.93372  291  -3.2  100   -3.2  0     0     1004.1   NA       0.0000   9999     0     0     0    
2019/06/02  07:16:00  BASE  3.45156  291  4.47468  279  -3.2  100   -3.2  0     0     1004.0   NA       0.0000   9999     200   0     0    
2019/06/02  07:17:00  BASE  3.52212  289  4.47468  279  -3.2  100   -3.2  0     0     1004.0   NA       0.0000   9999     230   0     0    
2019/06/02  07:18:00  BASE  3.5574   295  4.47468  279  -3.2  100   -3.2  0     0     1004.0   NA       0.0000   9999     200   0     0    
2019/06/02  07:19:00  BASE  3.83964  297  4.47468  279  -3.2  100   -3.2  0     0     1004.0   NA       0.0000   9999     300   0     0    
2019/06/02  07:20:00  BASE  3.79848  289  4.47468  279  -3.2  100   -3.2  0     0     1004.0   NA       0.0000   9999     300   0     0    
2019/06/02  07:21:00  BASE  4.03368  285  4.86864  287  -3.1  100   -3.1  0     0     1004.0   NA       0.0000   9999     260   0     0    
2019/06/02  07:22:00  BASE  4.00428  280  4.86864  287  -3.1  100   -3.1  0     0     1004.0   NA       0.0000   9999     230   0     0    
2019/06/02  07:23:00  BASE  3.75144  276  4.86864  287  -3.1  100   -3.1  0     0     1004.0   NA       0.0000   9999     300   0     0    
2019/06/02  07:24:00  BASE  3.58092  269  4.86864  287  -3.1  100   -3.1  0     0     1004.0   NA       0.0000   9999     390   0     0    
2019/06/02  07:25:00  BASE  3.68676  265  5.145    268  -3.1  100   -3.1  0     0     1004.0   NA       0.0000   9999     300   0     0    
2019/06/02  07:26:00  BASE  4.06308  265  5.145    268  -3.2  100   -3.2  0     0     1004.0   NA       0.0000   9999     330   0     0    
2019/06/02  07:27:00  BASE  3.98664  260  5.145    268  -3.2  100   -3.2  0     0     1004.0   NA       0.0000   9999     260   0     0    
2019/06/02  07:28:00  BASE  4.05132  259  5.145    268  -3.3  100   -3.3  0     0     1004.0   NA       0.0000   9999     260   0     0    
2019/06/02  07:29:00  BASE  4.05132  258  5.145    268  -3.3  100   -3.3  0     0     1004.0   NA       0.0000   9999     260   0     0    
2019/06/02  07:30:00  BASE  3.59268  258  5.145    268  -3.3  100   -3.3  0     0     1004.0   NA       0.0000   9999     330   0     0    
2019/06/02  07:31:00  BASE  3.12816  264  5.145    268  -3.4  100   -3.4  0     0     1004.0   NA       0.0000   9999     0     0     0    
2019/06/02  07:32:00  BASE  3.36336  272  5.145    268  -3.4  100   -3.4  0     0     1004.0   NA       0.0000   9000     0     0     0    
2019/06/02  07:33:00  BASE  3.61032  270  5.145    268  -3.4  100   -3.4  0     0     1004.0   NA       0.0000   9000     0     0     0    
2019/06/02  07:34:00  BASE  4.07484  258  5.145    268  -3.4  100   -3.4  0     0     1004.0   NA       0.0000   9999     200   0     0    
2019/06/02  07:35:00  BASE  4.52172  250  5.10972  254  -3.4  100   -3.4  0     0     1004.0   NA       0.0000   9999     200   0     0    
2019/06/02  07:36:00  BASE  4.0278   251  5.10972  254  -3.5  100   -3.5  0     0     1004.0   NA       0.0000   9999     0     0     0    
2019/06/02  07:37:00  BASE  4.09836  252  5.10972  254  -3.5  100   -3.5  0     0     1004.1   NA       0.0000   9999     0     0     0    
2019/06/02  07:38:00  BASE  4.09248  255  5.10972  254  -3.6  100   -3.6  0     0     1004.0   NA       0.0000   7000     0     0     0    
2019/06/02  07:39:00  BASE  3.1164   255  5.10972  254  -3.6  100   -3.6  0     0     1004.1   NA       0.0000   6000     0     0     0    
2019/06/02  07:40:00  BASE  3.01644  254  5.10972  254  -3.6  100   -3.6  0     0     1004.1   NA       0.0000   BR       4100  0     0    
2019/06/02  07:41:00  BASE  3.57504  254  5.10972  254  -3.7  100   -3.7  0     0     1004.0   NA       0.0000   BR       3100  0     0    
2019/06/02  07:42:00  BASE  3.56328  250  5.10972  254  -3.7  100   -3.7  0     0     1004.0   NA       0.0000   BR       3800  0     0    
2019/06/02  07:43:00  BASE  3.1458   248  5.10972  254  -3.7  100   -3.7  0     0     1004.0   NA       0.0000   BR       4200  0     0    
2019/06/02  07:44:00  BASE  2.94588  255  5.05092  244  -3.7  100   -3.7  0     0     1004.0   NA       0.0000   BR       3900  0     0    
2019/06/02  07:45:00  BASE  3.19284  259  5.05092  244  -3.7  100   -3.7  0     0     1004.0   NA       0.0000   BR       3900  0     0    
2019/06/02  07:46:00  BASE  3.60444  253  4.93332  261  -3.7  100   -3.7  0     0     1004.0   NA       0.0000   BR       4100  0     0    
2019/06/02  07:47:00  BASE  3.65736  249  4.44528  247  -3.7  100   -3.7  0     0     1004.0   NA       0.0000   BR       6000  0     0    
2019/06/02  07:48:00  BASE  3.35748  247  4.44528  247  -3.7  100   -3.7  0     0     1004.0   NA       0.0000   BR       9000  0     0    
2019/06/02  07:49:00  BASE  3.0576   243  4.44528  247  -3.7  100   -3.7  0     0     1004.0   NA       0.0000   BR       8000  0     0    
2019/06/02  07:50:00  BASE  2.45784  243  4.44528  247  -3.7  100   -3.7  0     0     1004.0   NA       0.0000   BR       8000  0     0    
2019/06/02  07:51:00  BASE  2.09328  245  4.44528  247  -3.7  100   -3.7  0     0     1004.0   NA       0.0000   BR       9000  0     0    
2019/06/02  07:52:00  BASE  2.1168   241  4.44528  247  -3.7  100   -3.7  0     0     1004.0   NA       0.0000   BR       8000  0     0    
2019/06/02  07:53:00  BASE  2.15208  235  4.44528  247  -3.7  100   -3.7  0     0     1004.0   NA       0.0000   BR       6000  0     0    
2019/06/02  07:54:00  BASE  2.15208  237  4.44528  247  -3.7  100   -3.7  0     0     1004.0   NA       0.0000   BR       5000  0     0    
2019/06/02  07:55:00  BASE  2.19324  238  4.44528  247  -3.7  100   -3.7  0     0     1004.0   NA       0.0000   BR       5000  0     0    
2019/06/02  07:56:00  BASE  2.6754   236  4.41588  244  -3.7  100   -3.7  0     0     1004.0   NA       0.0000   BR       6000  0     0    
2019/06/02  07:57:00  BASE  2.94     237  3.48096  231  -3.7  100   -3.7  0     0     1004.0   NA       0.0000   BR       8000  0     0    
2019/06/02  07:58:00  BASE  2.62248  238  3.48096  231  -3.7  100   -3.7  0     0     1004.0   NA       0.0000   BR       7000  0     0    
2019/06/02  07:59:00  BASE  2.7342   240  3.48096  231  -3.7  100   -3.7  0     0     1004.0   NA       0.0000   BR       7000  0     0    
2019/06/02  08:00:00  BASE  2.97528  241  3.48096  231  -3.7  100   -3.7  0     0     1004.0   NA       0.0000   BR       6000  0     0    
2019/06/02  08:01:00  BASE  2.88708  239  3.62796  233  -3.7  100   -3.7  0     0     1003.9   NA       0.0000   BR       5000  0     0    
2019/06/02  08:02:00  BASE  2.85768  238  3.62796  233  -3.7  100   -3.7  0     0     1003.9   NA       0.0000   -SN      BR    6000  0    
2019/06/02  08:03:00  BASE  2.92236  239  3.62796  233  -3.8  100   -3.8  0     0     1003.9   NA       0.0000   -SN      BR    9999  0    
2019/06/02  08:04:00  BASE  2.9694   234  3.62796  233  -3.8  100   -3.8  0     0     1003.9   NA       0.0000   -SN      BR    9999  0    
2019/06/02  08:05:00  BASE  2.8518   229  3.62796  233  -3.8  100   -3.8  0     0     1003.9   NA       0.0000   -SN      BR    9000  0    
2019/06/02  08:06:00  BASE  2.86356  228  3.62796  233  -3.8  100   -3.8  0     0     1003.9   NA       0.0000   -SN      BR    9000  0    
2019/06/02  08:07:00  BASE  2.92824  229  3.62796  233  -3.8  100   -3.8  0     0     1003.9   NA       0.0000   -SN      BR    9999  0    
2019/06/02  08:08:00  BASE  2.56368  230  3.62796  233  -3.8  100   -3.8  0     0     1003.9   NA       0.0000   -SN      BR    9000  0    
2019/06/02  08:09:00  BASE  2.08152  232  3.62796  233  -3.9  100   -3.9  0     0     1003.9   NA       0.0000   -SN      BR    7000  0    
2019/06/02  08:10:00  BASE  1.75224  235  3.62796  233  -3.9  100   -3.9  0     0     1003.9   NA       0.0000   -SN      BR    7000  0    
2019/06/02  08:11:00  BASE  1.53468  236  3.53976  237  -3.9  100   -3.9  0     0     1003.9   NA       0.0000   -SN      BR    9999  0    
2019/06/02  08:12:00  BASE  1.90512  236  3.53976  237  -3.9  100   -3.9  0     0     1003.8   NA       0.0000   BR       9999  0     0    
2019/06/02  08:13:00  BASE  2.22264  247  3.48096  234  -3.9  100   -3.9  0     0     1003.8   NA       0.0000   BR       9999  0     0    
2019/06/02  08:14:00  BASE  2.14032  254  3.32808  228  -3.9  100   -3.9  0     0     1003.8   NA       0.0000   BR       9999  0     0    
2019/06/02  08:15:00  BASE  2.04624  251  3.32808  228  -4.0  100   -4.0  0     0     1003.8   NA       0.0000   BR       7000  0     0    
2019/06/02  08:16:00  BASE  1.9404   256  3.1164   227  -4.0  100   -4.0  0     0     1003.7   NA       0.0000   BR       6000  0     0    
2019/06/02  08:17:00  BASE  2.04624  261  2.90472  234  -4.0  100   -4.0  0     0     1003.7   NA       0.0000   BR       5000  0     0    
2019/06/02  08:18:00  BASE  2.0874   258  2.90472  234  -4.0  100   -4.0  0     0     1003.6   NA       0.0000   BR       6000  0     0    
2019/06/02  08:19:00  BASE  2.34612  255  2.93412  256  -4.0  100   -4.0  0     0     1003.6   NA       0.0000   BR       6000  0     0    
2019/06/02  08:20:00  BASE  2.44608  258  2.93412  256  -4.0  100   -4.0  0     0     1003.7   NA       0.0000   BR       6000  0     0    
2019/06/02  08:21:00  BASE  2.21676  264  2.93412  256  -4.0  100   -4.0  0     0     1003.7   NA       0.0000   BR       5000  0     0    
2019/06/02  08:22:00  BASE  2.09916  271  2.93412  256  -4.0  100   -4.0  0     0     1003.6   NA       0.0000   BR       5000  0     0    
2019/06/02  08:23:00  BASE  2.01096  280  2.93412  256  -4.0  100   -4.0  0     0     1003.6   NA       0.0000   BR       4800  0     0    
2019/06/02  08:24:00  BASE  1.74636  287  2.93412  256  -4.0  100   -4.0  0     0     1003.6   NA       0.0000   BR       4700  0     0    
2019/06/02  08:25:00  BASE  1.54056  284  2.93412  256  -4.0  100   -4.0  0     0     1003.6   NA       0.0000   BR       4700  0     0    
2019/06/02  08:26:00  BASE  1.5582   272  2.93412  256  -3.9  100   -3.9  0     0     1003.7   NA       0.0000   BR       4900  0     0    
2019/06/02  08:27:00  BASE  1.71108  271  2.93412  256  -3.9  100   -3.9  0     0     1003.6   NA       0.0000   BR       5000  0     0    
2019/06/02  08:28:00  BASE  1.9698   278  2.93412  256  -3.9  100   -3.9  0     0     1003.6   NA       0.0000   BR       4900  0     0    
2019/06/02  08:29:00  BASE  2.1168   286  2.66364  271  -3.9  100   -3.9  0     0     1003.6   NA       0.0000   BR       5000  0     0    
2019/06/02  08:30:00  BASE  2.25792  292  2.75184  296  -3.9  100   -3.9  0     0     1003.6   NA       0.0000   BR       7000  0     0    
2019/06/02  08:31:00  BASE  2.28144  289  2.75184  296  -3.9  100   -3.9  0     0     1003.6   NA       0.0000   BR       9999  0     0    
2019/06/02  08:32:00  BASE  2.1168   281  2.75184  296  -3.9  100   -3.9  0     0     1003.6   NA       0.0000   BR       9999  0     0    
2019/06/02  08:33:00  BASE  1.911    282  2.75184  296  -3.9  100   -3.9  0     0     1003.6   NA       0.0000   BR       9000  0     0    
2019/06/02  08:34:00  BASE  1.90512  284  2.75184  296  -3.8  100   -3.8  0     0     1003.6   NA       0.0000   BR       9000  0     0    
2019/06/02  08:35:00  BASE  2.04624  284  2.75184  296  -3.8  100   -3.8  0     0     1003.6   NA       0.0000   BR       7000  0     0    
2019/06/02  08:36:00  BASE  1.98156  281  2.75184  296  -3.8  100   -3.8  0     0     1003.6   NA       0.0000   BR       7000  0     0    
2019/06/02  08:37:00  BASE  1.51704  276  2.75184  296  -3.8  100   -3.8  0     0     1003.6   NA       0.0000   BR       7000  0     0    
2019/06/02  08:38:00  BASE  1.54056  291  2.75184  296  -3.8  100   -3.8  0     0     1003.6   NA       0.0000   BR       6000  0     0    
2019/06/02  08:39:00  BASE  1.9404   303  2.75184  296  -3.8  100   -3.8  0     0     1003.6   NA       0.0000   -SN      BR    5000  0    
2019/06/02  08:40:00  BASE  1.89924  299  2.56956  290  -3.8  100   -3.8  0     0     1003.6   NA       0.0000   -SN      BR    6000  0    
2019/06/02  08:41:00  BASE  1.8816   301  2.29908  280  -3.8  100   -3.8  0     0     1003.6   NA       0.0000   -SN      BR    5000  0    
2019/06/02  08:42:00  BASE  1.66404  304  2.26968  282  -3.8  100   -3.8  0     0     1003.6   NA       0.0000   -SN      BR    4800  0    
2019/06/02  08:43:00  BASE  1.24068  301  2.26968  282  -3.8  100   -3.8  0     0     1003.6   NA       0.0000   -SN      BR    5000  0    
2019/06/02  08:44:00  BASE  1.28184  289  2.24028  280  -3.8  100   -3.8  0     0     1003.6   NA       0.0000   -SN      BR    5000  0    
2019/06/02  08:45:00  BASE  1.5288   280  2.21088  305  -3.8  100   -3.8  0     0     1003.6   NA       0.0000   -SN      BR    3600  0    
2019/06/02  08:46:00  BASE  1.48176  293  2.21088  305  -3.8  100   -3.8  0     0     1003.6   NA       0.0000   -SN      BR    3400  0    
2019/06/02  08:47:00  BASE  1.323    310  2.21088  305  -3.8  100   -3.8  0     0     1003.6   NA       0.0000   -SN      BR    4300  0    
2019/06/02  08:48:00  BASE  1.43472  313  2.1462   300  -3.8  100   -3.8  0     0     1003.6   NA       0.0000   -SN      BR    5000  0    
2019/06/02  08:49:00  BASE  1.56996  308  2.058    314  -3.8  100   -3.8  0     0     1003.6   NA       0.0000   -SN      BR    5000  0    
2019/06/02  08:50:00  BASE  1.34652  305  2.058    314  -3.8  100   -3.8  0     0     1003.6   NA       0.0000   -SN      BR    4700  0    
2019/06/02  08:51:00  BASE  1.21716  309  1.87572  316  -3.7  100   -3.7  0     0     1003.6   NA       0.0000   -SN      BR    5000  0    
2019/06/02  08:52:00  BASE  1.51116  305  2.54016  302  -3.7  100   -3.7  0     0     1003.6   NA       0.0000   -SN      BR    6000  0    
2019/06/02  08:53:00  BASE  2.16972  284  2.93412  263  -3.7  100   -3.7  0     0     1003.6   NA       0.0000   -SN      BR    6000  0    
2019/06/02  08:54:00  BASE  2.55192  266  2.93412  263  -3.7  100   -3.7  0     0     1003.6   NA       0.0000   -SN      BR    4500  0    
2019/06/02  08:55:00  BASE  2.22264  265  2.93412  263  -3.6  100   -3.6  0     0     1003.5   NA       0.0000   -SN      BR    3300  0    
2019/06/02  08:56:00  BASE  1.8228   271  2.93412  263  -3.6  100   -3.6  0     0     1003.5   NA       0.0000   -SN      BR    3700  0    
2019/06/02  08:57:00  BASE  1.54056  272  2.93412  263  -3.6  100   -3.6  0     0     1003.5   NA       0.0000   -SN      BR    3700  0    
2019/06/02  08:58:00  BASE  1.51116  268  2.93412  263  -3.6  100   -3.6  0     0     1003.5   NA       0.0000   -SN      BR    3200  0    
2019/06/02  08:59:00  BASE  1.89924  269  2.93412  263  -3.6  100   -3.6  0     0     1003.5   NA       0.0000   BR       3600  0     0    
2019/06/02  09:00:00  BASE  2.24028  280  2.93412  263  -3.6  100   -3.6  0     0     1003.5   NA       0.0000   BR       5000  0     0    
2019/06/02  09:01:00  BASE  2.06976  294  2.93412  263  -3.5  100   -3.5  0     0     1003.5   NA       0.0000   BR       4300  0     0    
2019/06/02  09:02:00  BASE  1.72284  308  2.93412  263  -3.5  100   -3.5  0     0     1003.5   NA       0.0000   BR       4600  0     0    
2019/06/02  09:03:00  BASE  1.52292  316  2.81064  262  -3.5  100   -3.5  0     0     1003.5   NA       0.0000   BR       6000  0     0    
2019/06/02  09:04:00  BASE  1.48764  321  2.81064  262  -3.5  100   -3.5  0     0     1003.5   NA       0.0000   BR       8000  0     0    
2019/06/02  09:05:00  BASE  1.52292  324  2.81064  262  -3.5  100   -3.5  0     0     1003.5   NA       0.0000   BR       7000  0     0    
2019/06/02  09:06:00  BASE  1.40532  323  2.81064  262  -3.5  100   -3.5  0     0     1003.5   NA       0.0000   BR       6000  0     0    
2019/06/02  09:07:00  BASE  1.43472  307  2.81064  262  -3.5  100   -3.5  0     0     1003.5   NA       0.0000   BR       5000  0     0    
2019/06/02  09:08:00  BASE  1.54644  275  2.81064  262  -3.5  100   -3.5  0     0     1003.4   NA       0.0000   BR       3500  0     0    
2019/06/02  09:09:00  BASE  1.75224  256  2.72244  293  -3.5  100   -3.5  0     0     1003.4   NA       0.0000   BR       2600  0     0    
2019/06/02  09:10:00  BASE  2.22264  253  2.81064  254  -3.5  100   -3.5  0     0     1003.4   NA       0.0000   BR       2700  0     0    
2019/06/02  09:11:00  BASE  2.27556  256  2.81064  254  -3.5  100   -3.5  0     0     1003.4   NA       0.0000   BR       3100  0     0    
2019/06/02  09:12:00  BASE  2.06388  256  2.81064  254  -3.4  100   -3.4  0     0     1003.4   NA       0.0000   BR       2700  0     0    
2019/06/02  09:13:00  BASE  2.09916  258  2.81064  254  -3.4  100   -3.4  0     0     1003.4   NA       0.0000   BR       2800  0     0    
2019/06/02  09:14:00  BASE  2.00508  263  2.81064  254  -3.4  100   -3.4  0     0     1003.4   NA       0.0000   BR       3400  0     0    
2019/06/02  09:15:00  BASE  2.08152  264  2.81064  254  -3.3  100   -3.3  0     0     1003.4   NA       0.0000   BR       4400  0     0    
2019/06/02  09:16:00  BASE  2.31084  266  2.81064  254  -3.3  100   -3.3  0     0     1003.4   NA       0.0000   BR       5000  0     0    
2019/06/02  09:17:00  BASE  2.3226   264  2.99292  261  -3.3  100   -3.3  0     0     1003.4   NA       0.0000   BR       5000  0     0    
2019/06/02  09:18:00  BASE  2.29908  266  2.99292  261  -3.3  100   -3.3  0     0     1003.4   NA       0.0000   BR       5000  0     0    
2019/06/02  09:19:00  BASE  1.94628  268  2.99292  261  -3.3  100   -3.3  0     0     1003.4   NA       0.0000   BR       4500  0     0    
2019/06/02  09:20:00  BASE  1.65228  266  2.99292  261  -3.3  100   -3.3  0     0     1003.3   NA       0.0000   BR       4600  0     0    
2019/06/02  09:21:00  BASE  1.8228   272  2.99292  261  -3.3  100   -3.3  0     0     1003.3   NA       0.0000   BR       6000  0     0    
2019/06/02  09:22:00  BASE  1.76988  277  2.99292  261  -3.3  100   -3.3  0     0     1003.3   NA       0.0000   BR       6000  0     0    
2019/06/02  09:23:00  BASE  1.82868  280  2.99292  261  -3.3  100   -3.3  0     0     1003.3   NA       0.0000   BR       4600  0     0    
2019/06/02  09:24:00  BASE  2.058    280  2.99292  261  -3.3  100   -3.3  0     0     1003.3   NA       0.0000   BR       3200  0     0    
2019/06/02  09:25:00  BASE  1.92276  282  2.99292  261  -3.3  100   -3.3  0     0     1003.2   NA       0.0000   BR       2600  0     0    
2019/06/02  09:26:00  BASE  1.764    287  2.99292  261  -3.3  100   -3.3  0     0     1003.2   NA       0.0000   BR       2600  0     0    
2019/06/02  09:27:00  BASE  1.86984  284  2.93412  258  -3.3  100   -3.3  0     0     1003.2   NA       0.0000   BR       2900  0     0    
2019/06/02  09:28:00  BASE  2.09916  277  2.56956  276  -3.3  100   -3.3  0     0     1003.2   NA       0.0000   BR       3000  0     0    
2019/06/02  09:29:00  BASE  2.25204  285  2.56956  276  -3.3  100   -3.3  0     0     1003.2   NA       0.0000   BR       2800  0     0    
2019/06/02  09:30:00  BASE  2.28144  296  2.56956  276  -3.3  100   -3.3  0     0     1003.2   NA       0.0000   BR       2400  0     0    
2019/06/02  09:31:00  BASE  2.26968  292  2.56956  276  -3.2  100   -3.2  0     0     1003.2   NA       0.0000   BR       2300  0     0    
2019/06/02  09:32:00  BASE  1.9404   291  2.56956  276  -3.2  100   -3.2  0     0     1003.2   NA       0.0000   BR       2300  0     0    
2019/06/02  09:33:00  BASE  1.94628  296  3.087    284  -3.2  100   -3.2  0     0     1003.2   NA       0.0000   BR       2200  0     0    
2019/06/02  09:34:00  BASE  2.4108   289  3.087    284  -3.2  100   -3.2  0     0     1003.1   NA       0.0000   BR       2700  0     0    
2019/06/02  09:35:00  BASE  2.21088  282  3.087    284  -3.2  100   -3.2  0     0     1003.1   NA       0.0000   BR       6000  0     0    
2019/06/02  09:36:00  BASE  1.89924  284  3.087    284  -3.2  100   -3.2  0     0     1003.1   NA       0.0000   BR       9000  0     0    
2019/06/02  09:37:00  BASE  2.21088  288  3.087    284  -3.2  100   -3.2  0     0     1003.0   NA       0.0000   BR       9999  0     0    
2019/06/02  09:38:00  BASE  2.50488  290  3.087    284  -3.2  100   -3.2  0     0     1003.0   NA       0.0000   BR       9999  0     0    
2019/06/02  09:39:00  BASE  2.24616  282  3.087    284  -3.2  100   -3.2  0     0     1003.0   NA       0.0000   BR       9999  0     0    
2019/06/02  09:40:00  BASE  1.83456  285  3.087    284  -3.1  100   -3.1  0     0     1003.0   NA       0.0000   BR       9999  260   0    
2019/06/02  09:41:00  BASE  1.86396  287  3.087    284  -3.1  100   -3.1  0     0     1003.0   NA       0.0000   BR       9999  260   0    
2019/06/02  09:42:00  BASE  1.8816   268  3.087    284  -3.1  100   -3.1  0     0     1003.0   NA       0.0000   BR       9999  260   0    
2019/06/02  09:43:00  BASE  1.89336  259  2.93412  294  -3.1  100   -3.1  0     0     1003.0   NA       0.0000   BR       9999  300   0    
2019/06/02  09:44:00  BASE  1.81104  269  2.75184  294  -3.1  100   -3.1  0     0     1003.0   NA       0.0000   9999     260   0     0    
2019/06/02  09:45:00  BASE  1.64052  281  2.75184  294  -3.1  100   -3.1  0     0     1003.0   NA       0.0000   9999     260   0     0    
2019/06/02  09:46:00  BASE  2.10504  279  2.81064  266  -3.1  100   -3.1  0     0     1003.0   NA       0.0000   9999     230   0     0    
2019/06/02  09:47:00  BASE  2.47548  276  2.81064  275  -3.0  100   -3.0  0     0     1003.0   NA       0.0000   9999     260   0     0    
2019/06/02  09:48:00  BASE  2.2344   278  2.81064  275  -3.0  100   -3.0  0     0     1003.0   NA       0.0000   9999     300   0     0    
2019/06/02  09:49:00  BASE  1.6758   270  2.81064  275  -3.0  100   -3.0  0     0     1003.0   NA       0.0000   9999     330   0     0    
2019/06/02  09:50:00  BASE  1.60524  275  2.81064  275  -3.0  100   -3.0  0     0     1003.0   NA       0.0000   9999     300   0     0    
2019/06/02  09:51:00  BASE  2.03448  285  2.81064  275  -3.0  100   -3.0  0     0     1003.0   NA       0.0000   9999     260   0     0    
2019/06/02  09:52:00  BASE  2.16972  280  2.81064  275  -3.0  100   -3.0  0     0     1003.0   NA       0.0000   9999     260   0     0    
2019/06/02  09:53:00  BASE  2.21676  277  2.81064  275  -3.0  100   -3.0  0     0     1002.9   NA       0.0000   9999     330   0     0    
2019/06/02  09:54:00  BASE  2.32848  275  2.87532  281  -3.0  100   -3.0  0     0     1003.0   NA       0.0000   9999     330   0     0    
2019/06/02  09:55:00  BASE  2.18148  269  2.87532  281  -3.0  100   -3.0  0     0     1003.0   NA       0.0000   9999     330   3380  0    
2019/06/02  09:56:00  BASE  2.36376  267  3.29868  267  -3.0  100   -3.0  0     0     1003.0   NA       0.0000   9999     330   0     0    
2019/06/02  09:57:00  BASE  2.63424  268  3.29868  267  -3.0  100   -3.0  0     0     1003.0   NA       0.0000   9999     330   3250  0    
2019/06/02  09:58:00  BASE  2.63424  270  3.29868  267  -3.0  100   -3.0  0     0     1003.0   NA       0.0000   9999     430   3350  0    
2019/06/02  09:59:00  BASE  2.64012  270  3.29868  263  -3.0  100   -3.0  0     0     1003.0   NA       0.0000   9999     390   0     0    
2019/06/02  10:00:00  BASE  2.55192  263  3.29868  263  -3.0  100   -3.0  0     0     1003.0   NA       0.0000   9999     5540  0     0    
2019/06/02  10:01:00  BASE  2.21088  260  3.29868  263  -3.0  100   -3.0  0     0     1002.9   NA       0.0000   9999     5480  0     0    
2019/06/02  10:02:00  BASE  2.28732  264  3.29868  263  -3.0  100   -3.0  0     0     1002.9   NA       0.0000   9999     5410  0     0    
2019/06/02  10:03:00  BASE  2.64012  264  3.48096  257  -3.0  100   -3.0  0     0     1002.9   NA       0.0000   9999     5640  0     0    
2019/06/02  10:04:00  BASE  2.34024  268  3.48096  257  -3.0  100   -3.0  0     0     1002.9   NA       0.0000   9999     5640  0     0    
2019/06/02  10:05:00  BASE  2.49312  270  3.48096  257  -3.0  100   -3.0  0     0     1002.9   NA       0.0000   9999     5640  0     0    
2019/06/02  10:06:00  BASE  2.95176  266  3.93372  256  -3.0  100   -3.0  0     0     1002.8   NA       0.0000   9999     5540  0     0    
2019/06/02  10:07:00  BASE  3.13404  266  3.96312  270  -3.0  100   -3.0  0     0     1002.8   NA       0.0000   9999     5450  0     0    
2019/06/02  10:08:00  BASE  3.19284  266  3.96312  270  -3.0  100   -3.0  0     0     1002.8   NA       0.0000   9999     5450  0     0    
2019/06/02  10:09:00  BASE  3.11052  270  4.1748   263  -3.0  100   -3.0  0     0     1002.8   NA       0.0000   9999     5480  0     0    
2019/06/02  10:10:00  BASE  2.90472  269  4.1748   263  -3.0  100   -3.0  0     0     1002.8   NA       0.0000   9999     5480  0     0    
2019/06/02  10:11:00  BASE  2.7048   266  4.1748   263  -2.9  100   -2.9  0     0     1002.8   NA       0.0000   9999     0     0     0    
2019/06/02  10:12:00  BASE  2.80476  269  4.1748   263  -2.9  100   -2.9  0     0     1002.8   NA       0.0000   9999     0     0     0    
2019/06/02  10:13:00  BASE  2.9694   269  4.1748   263  -2.9  100   -2.9  0     0     1002.8   NA       0.0000   9999     0     0     0    
2019/06/02  10:14:00  BASE  3.02232  267  4.1748   263  -2.9  100   -2.9  0     0     1002.8   NA       0.0000   9999     0     0     0    
2019/06/02  10:15:00  BASE  3.21636  267  4.1748   263  -2.9  100   -2.9  0     0     1002.8   NA       0.0000   9999     0     0     0    
2019/06/02  10:16:00  BASE  3.087    267  4.1748   263  -2.9  100   -2.9  0     0     1002.8   NA       0.0000   9999     0     0     0    
2019/06/02  10:17:00  BASE  2.78712  267  4.1748   263  -2.9  100   -2.9  0     0     1002.8   NA       0.0000   9999     0     0     0    
2019/06/02  10:18:00  BASE  3.22812  265  4.47468  263  -2.9  100   -2.9  0     0     1002.8   NA       0.0000   9999     0     0     0    
2019/06/02  10:19:00  BASE  3.41628  263  4.47468  263  -2.9  100   -2.9  0     0     1002.8   NA       0.0000   9999     0     0     0    
2019/06/02  10:20:00  BASE  3.03408  267  4.47468  263  -2.9  100   -2.9  0     0     1002.8   NA       0.0000   9999     5380  0     0    
2019/06/02  10:21:00  BASE  2.646    265  4.47468  263  -2.9  100   -2.9  0     0     1002.8   NA       0.0000   9999     330   0     0    
2019/06/02  10:22:00  BASE  2.31672  262  4.47468  263  -2.9  100   -2.9  0     0     1002.8   NA       0.0000   9999     0     0     0    
2019/06/02  10:23:00  BASE  2.42256  267  4.47468  263  -2.9  100   -2.9  0     0     1002.8   NA       0.0000   9999     5280  0     0    
2019/06/02  10:24:00  BASE  2.90472  275  4.47468  263  -2.8  100   -2.8  0     0     1002.8   NA       0.0000   9999     360   5280  0    
2019/06/02  10:25:00  BASE  3.00468  276  4.47468  263  -2.8  100   -2.8  0     0     1002.8   NA       0.0000   9999     5250  0     0    
2019/06/02  10:26:00  BASE  3.22224  274  4.47468  263  -2.8  100   -2.8  0     0     1002.7   NA       0.0000   9999     330   5250  0    
2019/06/02  10:27:00  BASE  3.45744  274  4.47468  263  -2.8  100   -2.8  0     0     1002.7   NA       0.0000   9999     330   5250  0    
2019/06/02  10:28:00  BASE  3.34572  273  4.35708  256  -2.8  100   -2.8  0     0     1002.7   NA       0.0000   9999     300   5150  0    
2019/06/02  10:29:00  BASE  3.43392  272  4.35708  256  -2.8  100   -2.8  0     0     1002.7   NA       0.0000   9999     330   5090  0    
2019/06/02  10:30:00  BASE  3.7338   273  4.72164  285  -2.8  100   -2.8  0     0     1002.7   NA       0.0000   9999     360   5020  0    
2019/06/02  10:31:00  BASE  4.00428  270  4.72164  285  -2.8  100   -2.8  0     0     1002.6   NA       0.0000   9999     360   5050  0    
2019/06/02  10:32:00  BASE  3.81024  271  4.72164  285  -2.8  100   -2.8  0     0     1002.7   NA       0.0000   9999     300   5050  0    
2019/06/02  10:33:00  BASE  3.82788  274  4.72164  285  -2.8  100   -2.8  0     0     1002.6   NA       0.0000   9999     300   5050  0    
2019/06/02  10:34:00  BASE  3.78672  271  4.72164  285  -2.8  100   -2.8  0     0     1002.6   NA       0.0000   9999     330   4990  0    
2019/06/02  10:35:00  BASE  3.37512  273  4.72164  285  -2.8  100   -2.8  0     0     1002.6   NA       0.0000   9999     260   4890  0    
2019/06/02  10:36:00  BASE  3.32808  275  4.72164  285  -2.8  100   -2.8  0     0     1002.6   NA       0.0000   9999     330   4790  0    
2019/06/02  10:37:00  BASE  3.33984  272  4.72164  285  -2.8  100   -2.8  0     0     1002.6   NA       0.0000   9999     330   4890  0    
2019/06/02  10:38:00  BASE  3.37512  273  4.72164  285  -2.8  100   -2.8  0     0     1002.6   NA       0.0000   9999     300   4890  0    
2019/06/02  10:39:00  BASE  3.59856  277  4.72164  285  -2.8  100   -2.8  0     0     1002.6   NA       0.0000   9999     260   4860  0    
2019/06/02  10:40:00  BASE  3.33984  276  4.68636  271  -2.8  100   -2.8  0     0     1002.6   NA       0.0000   9999     330   4890  0    
2019/06/02  10:41:00  BASE  3.07524  279  4.68636  271  -2.8  100   -2.8  0     0     1002.6   NA       0.0000   9999     330   4860  0    
2019/06/02  10:42:00  BASE  3.1164   276  4.68636  271  -2.7  100   -2.7  0     0     1002.6   NA       0.0000   9999     360   4760  0    
2019/06/02  10:43:00  BASE  2.95176  272  4.62756  276  -2.7  100   -2.7  0     0     1002.6   NA       0.0000   9999     4720  0     0    
2019/06/02  10:44:00  BASE  2.95764  271  4.62756  276  -2.7  100   -2.7  0     0     1002.6   NA       0.0000   9999     4720  0     0    
2019/06/02  10:45:00  BASE  3.09876  271  4.62756  276  -2.7  100   -2.7  0     0     1002.6   NA       0.0000   9999     430   4720  0    
2019/06/02  10:46:00  BASE  3.38688  267  4.62756  276  -2.7  100   -2.7  0     0     1002.6   NA       0.0000   9999     4690  0     0    
2019/06/02  10:47:00  BASE  3.34572  266  4.62756  276  -2.7  100   -2.7  0     0     1002.6   NA       0.0000   9999     560   4660  0    
2019/06/02  10:48:00  BASE  3.18696  274  4.62756  276  -2.7  100   -2.7  0     0     1002.6   NA       0.0000   9999     460   4690  0    
2019/06/02  10:49:00  BASE  3.234    279  4.29828  261  -2.7  100   -2.7  0     0     1002.6   NA       0.0000   9999     460   4660  0    
2019/06/02  10:50:00  BASE  3.1458   274  4.32768  272  -2.7  100   -2.7  0     0     1002.6   NA       0.0000   9999     460   4720  0    
2019/06/02  10:51:00  BASE  3.1752   272  4.53936  272  -2.7  100   -2.7  0     0     1002.6   NA       0.0000   9999     390   4690  0    
2019/06/02  10:52:00  BASE  3.07524  277  4.53936  272  -2.7  100   -2.7  0     0     1002.6   NA       0.0000   9999     330   4720  0    
2019/06/02  10:53:00  BASE  2.9106   275  4.53936  272  -2.7  100   -2.7  0     0     1002.6   NA       0.0000   9999     430   4630  0    
2019/06/02  10:54:00  BASE  2.793    274  4.53936  272  -2.7  100   -2.7  0     0     1002.6   NA       0.0000   9999     330   4590  0    
2019/06/02  10:55:00  BASE  2.90472  275  4.53936  272  -2.7  100   -2.7  0     0     1002.6   NA       0.0000   9999     390   4590  0    
2019/06/02  10:56:00  BASE  2.80476  276  4.53936  272  -2.7  100   -2.7  0     0     1002.6   NA       0.0000   9999     330   4720  0    
2019/06/02  10:57:00  BASE  2.66952  279  4.53936  272  -2.7  100   -2.7  0     0     1002.6   NA       0.0000   9999     4630  0     0    
2019/06/02  10:58:00  BASE  3.15756  279  4.53936  272  -2.7  100   -2.7  0     0     1002.6   NA       0.0000   9999     260   4460  0    
2019/06/02  10:59:00  BASE  3.25164  278  4.53936  272  -2.7  100   -2.7  0     0     1002.6   NA       0.0000   9999     460   4430  0    
2019/06/02  11:00:00  BASE  3.03996  277  4.53936  272  -2.7  100   -2.7  0     0     1002.6   NA       0.0000   9999     360   4360  0    
2019/06/02  11:01:00  BASE  2.79888  275  4.08072  266  -2.7  100   -2.7  0     0     1002.6   NA       0.0000   9999     360   4400  0    
2019/06/02  11:02:00  BASE  2.48136  277  4.08072  266  -2.8  100   -2.8  0     0     1002.6   NA       0.0000   9999     200   4490  0    
2019/06/02  11:03:00  BASE  2.32848  279  4.08072  266  -2.8  100   -2.8  0     0     1002.6   NA       0.0000   9999     200   0     0    
2019/06/02  11:04:00  BASE  2.28732  276  4.08072  266  -2.8  100   -2.8  0     0     1002.6   NA       0.0000   9999     230   0     0    
2019/06/02  11:05:00  BASE  2.56956  272  4.08072  266  -2.8  100   -2.8  0     0     1002.6   NA       0.0000   9999     260   4790  0    
2019/06/02  11:06:00  BASE  2.68716  271  4.08072  266  -2.8  100   -2.8  0     0     1002.6   NA       0.0000   9999     260   4760  0    
2019/06/02  11:07:00  BASE  2.5872   274  4.08072  266  -2.8  100   -2.8  0     0     1002.6   NA       0.0000   9999     230   4530  0    
2019/06/02  11:08:00  BASE  2.62836  275  3.93372  265  -2.8  100   -2.8  0     0     1002.6   NA       0.0000   9999     230   0     0    
2019/06/02  11:09:00  BASE  2.75772  275  3.93372  265  -2.8  100   -2.8  0     0     1002.6   NA       0.0000   9999     260   4230  0    
2019/06/02  11:10:00  BASE  2.95176  274  3.69264  277  -2.8  100   -2.8  0     0     1002.6   NA       0.0000   9999     200   0     0    
2019/06/02  11:11:00  BASE  2.78124  276  3.69264  277  -2.8  100   -2.8  0     0     1002.6   NA       0.0000   9999     230   0     0    
2019/06/02  11:12:00  BASE  2.84004  278  3.72204  275  -2.8  100   -2.8  0     0     1002.5   NA       0.0000   9999     200   0     0    
2019/06/02  11:13:00  BASE  2.99292  275  3.99252  271  -2.8  100   -2.8  0     0     1002.6   NA       0.0000   9999     230   0     0    
2019/06/02  11:14:00  BASE  2.74596  271  3.99252  271  -2.8  100   -2.8  0     0     1002.6   NA       0.0000   9999     200   0     0    
2019/06/02  11:15:00  BASE  2.52252  271  3.99252  271  -2.8  100   -2.8  0     0     1002.5   NA       0.0000   9999     200   0     0    
2019/06/02  11:16:00  BASE  3.02232  271  4.1454   275  -2.8  100   -2.8  0     0     1002.5   NA       0.0000   9999     230   0     0    
2019/06/02  11:17:00  BASE  3.46332  269  4.1454   275  -2.8  100   -2.8  0     0     1002.5   NA       0.0000   9999     200   0     0    
2019/06/02  11:18:00  BASE  3.15168  265  4.1454   275  -2.8  100   -2.8  0     0     1002.5   NA       0.0000   9999     230   4660  0    
2019/06/02  11:19:00  BASE  2.78124  264  4.1454   275  -2.8  100   -2.8  0     0     1002.5   NA       0.0000   9999     200   4630  0    
2019/06/02  11:20:00  BASE  2.75772  264  4.1454   275  -2.8  100   -2.8  0     0     1002.5   NA       0.0000   9999     260   0     0    
2019/06/02  11:21:00  BASE  2.75772  261  4.1454   275  -2.8  100   -2.8  0     0     1002.5   NA       0.0000   9999     230   0     0    
2019/06/02  11:22:00  BASE  2.81064  255  4.1454   275  -2.8  100   -2.8  0     0     1002.4   NA       0.0000   9999     260   4330  0    
2019/06/02  11:23:00  BASE  3.3222   253  4.1454   275  -2.8  100   -2.8  0     0     1002.4   NA       0.0000   9999     330   0     0    
2019/06/02  11:24:00  BASE  3.46332  254  4.1454   275  -2.8  100   -2.8  0     0     1002.3   NA       0.0000   9999     360   0     0    
2019/06/02  11:25:00  BASE  3.1752   255  4.1454   275  -2.8  100   -2.8  0     0     1002.3   NA       0.0000   9999     330   0     0    
2019/06/02  11:26:00  BASE  2.84004  261  4.08072  251  -2.8  100   -2.8  0     0     1002.3   NA       0.0000   9999     360   0     0    
2019/06/02  11:27:00  BASE  2.50488  266  4.08072  251  -2.8  100   -2.8  0     0     1002.3   NA       0.0000   9999     360   0     0    
2019/06/02  11:28:00  BASE  3.05172  265  4.32768  267  -2.8  100   -2.8  0     0     1002.3   NA       0.0000   9999     330   0     0    
2019/06/02  11:29:00  BASE  3.7338   260  4.32768  267  -2.8  100   -2.8  0     0     1002.2   NA       0.0000   9999     360   0     0    
2019/06/02  11:30:00  BASE  3.49272  258  4.32768  267  -2.8  100   -2.8  0     0     1002.2   NA       0.0000   9999     390   0     0    
2019/06/02  11:31:00  BASE  3.06348  260  4.32768  267  -2.8  100   -2.8  0     0     1002.2   NA       0.0000   9999     460   4590  0    
2019/06/02  11:32:00  BASE  3.08112  258  4.32768  267  -2.8  100   -2.8  0     0     1002.2   NA       0.0000   9999     4490  0     0    
2019/06/02  11:33:00  BASE  3.22224  255  4.32768  267  -2.8  100   -2.8  0     0     1002.2   NA       0.0000   9999     390   4400  0    
2019/06/02  11:34:00  BASE  3.13404  255  4.32768  267  -2.8  100   -2.8  0     0     1002.2   NA       0.0000   9999     390   4530  0    
2019/06/02  11:35:00  BASE  2.86944  256  4.32768  267  -2.8  100   -2.8  0     0     1002.2   NA       0.0000   9999     390   0     0    
2019/06/02  11:36:00  BASE  2.42844  259  4.32768  267  -2.9  100   -2.9  0     0     1002.2   NA       0.0000   9999     390   0     0    
2019/06/02  11:37:00  BASE  2.82828  259  4.32768  267  -2.9  100   -2.9  0     0     1002.2   NA       0.0000   9999     390   0     0    
2019/06/02  11:38:00  BASE  3.25752  254  4.1454   259  -2.9  100   -2.9  0     0     1002.2   NA       0.0000   9999     460   0     0    
2019/06/02  11:39:00  BASE  2.92236  255  4.02192  256  -2.9  100   -2.9  0     0     1002.2   NA       0.0000   9999     430   4400  0    
2019/06/02  11:40:00  BASE  3.03408  257  4.08072  255  -2.9  100   -2.9  0     0     1002.2   NA       0.0000   9999     460   4360  0    
2019/06/02  11:41:00  BASE  3.7044   258  4.44528  255  -2.9  100   -2.9  0     0     1002.2   NA       0.0000   9999     390   0     0    
2019/06/02  11:42:00  BASE  3.4104   260  4.44528  255  -2.9  100   -2.9  0     0     1002.2   NA       0.0000   9999     520   4330  0    
2019/06/02  11:43:00  BASE  3.41628  261  4.44528  255  -2.9  100   -2.9  0     0     1002.2   NA       0.0000   9999     460   4360  0    
2019/06/02  11:44:00  BASE  3.91608  256  4.44528  255  -2.9  100   -2.9  0     0     1002.2   NA       0.0000   9999     430   4460  0    
2019/06/02  11:45:00  BASE  3.56328  253  4.44528  255  -2.9  100   -2.9  0     0     1002.2   NA       0.0000   9999     460   4460  0    
2019/06/02  11:46:00  BASE  3.16932  253  4.44528  255  -2.8  100   -2.8  0     0     1002.2   NA       0.0000   9999     520   4430  0    
2019/06/02  11:47:00  BASE  3.11052  251  4.44528  255  -2.8  100   -2.8  0     0     1002.3   NA       0.0000   9999     520   0     0    
2019/06/02  11:48:00  BASE  3.08112  250  4.44528  255  -2.8  100   -2.8  0     0     1002.3   NA       0.0000   9999     490   0     0    
2019/06/02  11:49:00  BASE  2.89884  249  4.44528  255  -2.8  100   -2.8  0     0     1002.2   NA       0.0000   9999     490   0     0    
2019/06/02  11:50:00  BASE  2.86944  253  4.44528  255  -2.8  100   -2.8  0     0     1002.2   NA       0.0000   9999     520   0     0    
2019/06/02  11:51:00  BASE  2.78124  253  4.41588  250  -2.8  100   -2.8  0     0     1002.2   NA       0.0000   9999     520   0     0    
2019/06/02  11:52:00  BASE  2.81064  249  4.41588  250  -2.7  100   -2.7  0     0     1002.2   NA       0.0000   9999     520   0     0    
2019/06/02  11:53:00  BASE  3.13404  246  4.1454   252  -2.7  100   -2.7  0     0     1002.2   NA       0.0000   9999     490   0     0    
2019/06/02  11:54:00  BASE  3.07524  241  3.65736  249  -2.7  100   -2.7  0     0     1002.2   NA       0.0000   9999     460   0     0    
2019/06/02  11:55:00  BASE  2.793    240  3.65736  249  -2.7  100   -2.7  0     0     1002.2   NA       0.0000   9999     490   4400  0    
2019/06/02  11:56:00  BASE  2.8812   240  3.65736  249  -2.8  100   -2.8  0     0     1002.2   NA       0.0000   9999     520   0     0    
2019/06/02  11:57:00  BASE  3.51036  235  4.44528  235  -2.8  100   -2.8  0     0     1002.2   NA       0.0000   9999     490   0     0    
2019/06/02  11:58:00  BASE  3.91608  234  4.44528  235  -2.8  100   -2.8  0     0     1002.2   NA       0.0000   9999     490   0     0    
2019/06/02  11:59:00  BASE  3.822    231  4.44528  235  -2.8  100   -2.8  0     0     1002.2   NA       0.0000   9999     520   0     0    
2019/06/02  12:00:00  BASE  4.02192  228  4.59816  231  -2.8  100   -2.8  0     0     1002.2   NA       0.0000   9999     460   0     0    
2019/06/02  12:01:00  BASE  3.90432  232  4.59816  231  -2.8  100   -2.8  0     0     1002.2   NA       0.0000   9999     520   0     0    
2019/06/02  12:02:00  BASE  3.34572  236  4.59816  231  -2.8  100   -2.8  0     0     1002.2   NA       0.0000   9999     560   0     0    
2019/06/02  12:03:00  BASE  3.42804  241  4.59816  231  -2.8  100   -2.8  0     0     1002.2   NA       0.0000   9999     390   0     0    
2019/06/02  12:04:00  BASE  3.94548  244  4.93332  248  -2.8  100   -2.8  0     0     1002.2   NA       0.0000   9999     490   0     0    
2019/06/02  12:05:00  BASE  4.01604  245  4.93332  248  -2.8  100   -2.8  0     0     1002.2   NA       0.0000   9999     430   0     0    
2019/06/02  12:06:00  BASE  3.81024  239  4.93332  248  -2.9  100   -2.9  0     0     1002.2   NA       0.0000   9999     490   0     0    
2019/06/02  12:07:00  BASE  4.03956  232  5.02152  235  -2.9  100   -2.9  0     0     1002.2   NA       0.0000   9999     460   0     0    
2019/06/02  12:08:00  BASE  4.41588  235  5.145    248  -2.9  100   -2.9  0     0     1002.2   NA       0.0000   9999     520   0     0    
2019/06/02  12:09:00  BASE  4.4394   241  5.145    248  -2.9  100   -2.9  0     0     1002.2   NA       0.0000   9999     390   0     0    
2019/06/02  12:10:00  BASE  4.36296  242  5.145    248  -2.9  100   -2.9  0     0     1002.2   NA       0.0000   9999     390   0     0    
2019/06/02  12:11:00  BASE  4.09248  243  5.145    248  -2.8  100   -2.8  0     0     1002.2   NA       0.0000   9999     430   0     0    
2019/06/02  12:12:00  BASE  4.21596  246  5.145    248  -2.8  100   -2.8  0     0     1002.2   NA       0.0000   9999     490   0     0    
2019/06/02  12:13:00  BASE  4.39236  246  5.145    248  -2.8  100   -2.8  0     0     1002.2   NA       0.0000   9999     490   0     0    
2019/06/02  12:14:00  BASE  4.05132  244  5.145    248  -2.8  100   -2.8  0     0     1002.2   NA       0.0000   9999     390   0     0    
2019/06/02  12:15:00  BASE  3.83964  245  5.145    248  -2.8  100   -2.8  0     0     1002.2   NA       0.0000   9999     460   0     0    
2019/06/02  12:16:00  BASE  3.91608  247  5.145    248  -2.8  100   -2.8  0     0     1002.2   NA       0.0000   9999     490   0     0    
2019/06/02  12:17:00  BASE  3.89844  244  5.145    248  -2.8  100   -2.8  0     0     1002.2   NA       0.0000   9999     460   0     0    
2019/06/02  12:18:00  BASE  3.60444  242  4.99212  240  -2.8  100   -2.8  0     0     1002.2   NA       0.0000   9999     490   0     0    
2019/06/02  12:19:00  BASE  3.62208  240  4.99212  240  -2.8  100   -2.8  0     0     1002.2   NA       0.0000   9999     520   0     0    
2019/06/02  12:20:00  BASE  3.58092  236  4.99212  240  -2.8  100   -2.8  0     0     1002.2   NA       0.0000   9999     520   0     0    
2019/06/02  12:21:00  BASE  3.4986   230  4.99212  240  -2.8  100   -2.8  0     0     1002.2   NA       0.0000   9999     490   0     0    
2019/06/02  12:22:00  BASE  3.28692  225  4.53936  238  -2.8  100   -2.8  0     0     1002.2   NA       0.0000   9999     520   0     0    
2019/06/02  12:23:00  BASE  3.22224  225  4.53936  238  -2.8  100   -2.8  0     0     1002.2   NA       0.0000   9999     460   0     0    
2019/06/02  12:24:00  BASE  3.7338   223  4.53936  238  -2.7  100   -2.7  0     0     1002.2   NA       0.0000   9999     460   0     0    
2019/06/02  12:25:00  BASE  3.82788  221  4.53936  238  -2.7  100   -2.7  0     0     1002.2   NA       0.0000   9999     430   0     0    
2019/06/02  12:26:00  BASE  3.4692   222  4.2336   223  -2.7  100   -2.7  0     0     1002.2   NA       0.0000   9999     490   0     0    
2019/06/02  12:27:00  BASE  3.51036  222  4.2336   218  -2.8  100   -2.8  0     0     1002.2   NA       0.0000   9999     490   0     0    
2019/06/02  12:28:00  BASE  3.81024  222  4.2336   218  -2.8  100   -2.8  0     0     1002.2   NA       0.0000   9999     490   0     0    
2019/06/02  12:29:00  BASE  3.7632   220  4.2336   218  -2.8  100   -2.8  0     0     1002.2   NA       0.0000   9999     460   0     0    
2019/06/02  12:30:00  BASE  3.40452  222  4.2336   218  -2.8  100   -2.8  0     0     1002.2   NA       0.0000   9999     430   0     0    
2019/06/02  12:31:00  BASE  3.15756  219  4.2336   218  -2.8  100   -2.8  0     0     1002.2   NA       0.0000   9999     390   0     0    
2019/06/02  12:32:00  BASE  3.087    222  4.2336   218  -2.8  100   -2.8  0     0     1002.2   NA       0.0000   9999     430   0     0    
2019/06/02  12:33:00  BASE  3.087    225  4.2336   218  -2.8  100   -2.8  0     0     1002.2   NA       0.0000   9999     430   0     0    
2019/06/02  12:34:00  BASE  3.33396  218  4.2336   218  -2.8  100   -2.8  0     0     1002.2   NA       0.0000   9999     390   0     0    
2019/06/02  12:35:00  BASE  3.23988  218  4.2336   218  -2.9  100   -2.9  0     0     1002.2   NA       0.0000   9999     330   0     0    
2019/06/02  12:36:00  BASE  3.12228  216  4.2336   218  -2.9  100   -2.9  0     0     1002.2   NA       0.0000   9999     390   0     0    
2019/06/02  12:37:00  BASE  3.0576   210  4.2042   230  -2.9  100   -2.9  0     0     1002.2   NA       0.0000   9999     390   0     0    
2019/06/02  12:38:00  BASE  2.62836  210  4.1454   225  -2.9  100   -2.9  0     0     1002.2   NA       0.0000   9999     390   0     0    
2019/06/02  12:39:00  BASE  2.88708  213  3.86904  221  -2.9  100   -2.9  0     0     1002.1   NA       0.0000   9999     360   0     0    
2019/06/02  12:40:00  BASE  3.33984  214  3.86904  221  -2.9  100   -2.9  0     0     1002.1   NA       0.0000   9999     360   0     0    
2019/06/02  12:41:00  BASE  3.37512  212  3.86904  213  -2.9  100   -2.9  0     0     1002.2   NA       0.0000   9999     300   0     0    
2019/06/02  12:42:00  BASE  3.36336  215  3.86904  213  -2.9  100   -2.9  0     0     1002.2   NA       0.0000   9999     360   0     0    
2019/06/02  12:43:00  BASE  3.4104   217  3.96312  219  -2.9  100   -2.9  0     0     1002.2   NA       0.0000   9999     360   0     0    
2019/06/02  12:44:00  BASE  3.37512  220  3.96312  219  -2.9  100   -2.9  0     0     1002.2   NA       0.0000   9999     330   0     0    
2019/06/02  12:45:00  BASE  2.9106   218  3.96312  219  -2.9  100   -2.9  0     0     1002.2   NA       0.0000   9999     330   0     0    
2019/06/02  12:46:00  BASE  2.42844  216  3.96312  219  -2.9  100   -2.9  0     0     1002.2   NA       0.0000   9999     430   0     0    
2019/06/02  12:47:00  BASE  2.50488  222  3.96312  219  -2.9  100   -2.9  0     0     1002.2   NA       0.0000   9999     460   0     0    
2019/06/02  12:48:00  BASE  3.12816  229  3.96312  219  -2.9  100   -2.9  0     0     1002.2   NA       0.0000   9999     360   0     0    
2019/06/02  12:49:00  BASE  3.48096  228  3.96312  219  -2.9  100   -2.9  0     0     1002.2   NA       0.0000   9999     300   0     0    
2019/06/02  12:50:00  BASE  3.16344  226  3.96312  219  -2.9  100   -2.9  0     0     1002.2   NA       0.0000   9999     360   0     0    
2019/06/02  12:51:00  BASE  3.04584  228  4.2042   236  -2.9  100   -2.9  0     0     1002.2   NA       0.0000   9999     430   0     0    
2019/06/02  12:52:00  BASE  3.1164   233  4.2042   236  -2.9  100   -2.9  0     0     1002.2   NA       0.0000   9999     360   0     0    
2019/06/02  12:53:00  BASE  3.0576   240  4.2042   236  -2.9  100   -2.9  0     0     1002.2   NA       0.0000   9999     430   0     0    
2019/06/02  12:54:00  BASE  3.27516  244  4.2042   236  -3.0  100   -3.0  0     0     1002.2   NA       0.0000   9999     460   0     0    
2019/06/02  12:55:00  BASE  3.234    245  4.2042   236  -3.0  100   -3.0  0     0     1002.2   NA       0.0000   9999     430   0     0    
2019/06/02  12:56:00  BASE  3.16344  235  4.2042   236  -3.0  100   -3.0  0     0     1002.2   NA       0.0000   9999     430   0     0    
2019/06/02  12:57:00  BASE  2.80476  220  4.2042   236  -3.0  100   -3.0  0     0     1002.2   NA       0.0000   9999     430   0     0    
2019/06/02  12:58:00  BASE  2.56956  218  4.2042   236  -3.0  100   -3.0  0     0     1002.2   NA       0.0000   9999     490   0     0    
2019/06/02  12:59:00  BASE  2.80476  225  4.2042   236  -2.9  100   -2.9  0     0     1002.2   NA       0.0000   9999     560   0     0    
2019/06/02  13:00:00  BASE  2.72244  235  4.2042   236  -2.9  100   -2.9  0     0     1002.2   NA       0.0000   9999     520   0     0    
2019/06/02  13:01:00  BASE  2.66364  245  4.08072  243  -2.9  100   -2.9  0     0     1002.2   NA       0.0000   9999     620   0     0    
2019/06/02  13:02:00  BASE  2.87532  243  4.08072  243  -2.9  100   -2.9  0     0     1002.2   NA       0.0000   9999     560   0     0    
2019/06/02  13:03:00  BASE  3.28692  232  4.2336   225  -3.0  100   -3.0  0     0     1002.2   NA       0.0000   9999     490   0     0    
2019/06/02  13:04:00  BASE  3.1458   230  4.2336   225  -3.0  100   -3.0  0     0     1002.2   NA       0.0000   9999     430   0     0    
2019/06/02  13:05:00  BASE  2.61072  234  4.2336   225  -3.1  100   -3.1  0     0     1002.2   NA       0.0000   9999     520   0     0    
2019/06/02  13:06:00  BASE  2.8224   232  4.2336   225  -3.1  100   -3.1  0     0     1002.2   NA       0.0000   9999     430   0     0    
2019/06/02  13:07:00  BASE  3.13404  235  4.2336   225  -3.1  100   -3.1  0     0     1002.2   NA       0.0000   9999     430   0     0    
2019/06/02  13:08:00  BASE  3.07524  238  4.2336   225  -3.1  100   -3.1  0     0     1002.2   NA       0.0000   9999     390   0     0    
2019/06/02  13:09:00  BASE  3.381    236  4.38648  227  -3.1  100   -3.1  0     0     1002.2   NA       0.0000   9999     490   0     0    
2019/06/02  13:10:00  BASE  3.51036  231  4.38648  227  -3.1  100   -3.1  0     0     1002.2   NA       0.0000   9999     360   0     0    
2019/06/02  13:11:00  BASE  3.25752  225  4.38648  227  -3.1  100   -3.1  0     0     1002.1   NA       0.0000   9999     390   0     0    
2019/06/02  13:12:00  BASE  3.08112  227  4.38648  227  -3.1  100   -3.1  0     0     1002.1   NA       0.0000   9999     390   0     0    
2019/06/02  13:13:00  BASE  3.19284  231  4.38648  227  -3.1  100   -3.1  1     0     1002.1   NA       0.0000   9999     390   0     0    
2019/06/02  13:14:00  BASE  2.98704  236  4.38648  227  -3.0  100   -3.0  1     0     1002.1   NA       0.0000   9999     460   0     0    
2019/06/02  13:15:00  BASE  2.48724  237  4.38648  227  -3.0  100   -3.0  1     0     1002.1   NA       0.0000   9999     430   0     0    
2019/06/02  13:16:00  BASE  2.58132  228  4.38648  227  -3.0  100   -3.0  1     0     1002.1   NA       0.0000   9999     460   0     0    
2019/06/02  13:17:00  BASE  2.81064  224  4.38648  227  -3.0  100   -3.0  1     0     1002.1   NA       0.0000   9999     430   0     0    
2019/06/02  13:18:00  BASE  2.98704  222  4.38648  227  -3.0  100   -3.0  1     0     1002.1   NA       0.0000   9999     430   0     0    
2019/06/02  13:19:00  BASE  3.06348  222  3.81024  233  -3.0  100   -3.0  1     0     1002.1   NA       0.0000   9999     430   0     0    
2019/06/02  13:20:00  BASE  2.99292  229  3.81024  233  -3.0  100   -3.0  1     0     1002.1   NA       0.0000   9999     490   0     0    
2019/06/02  13:21:00  BASE  2.8224   236  3.81024  233  -3.0  100   -3.0  1     0     1002.1   NA       0.0000   9999     490   0     0    
2019/06/02  13:22:00  BASE  2.81652  230  3.81024  233  -3.0  100   -3.0  2     0     1002.1   NA       0.0000   9999     460   0     0    
2019/06/02  13:23:00  BASE  2.86944  219  3.35748  222  -3.0  100   -3.0  2     0     1002.1   NA       0.0000   9999     460   0     0    
2019/06/02  13:24:00  BASE  2.93412  217  3.59856  218  -3.0  100   -3.0  2     0     1002.1   NA       0.0000   9999     460   0     0    
2019/06/02  13:25:00  BASE  3.30456  214  3.86904  211  -3.0  100   -3.0  2     0     1002.1   NA       0.0000   9999     430   0     0    
2019/06/02  13:26:00  BASE  3.09288  208  3.86904  211  -3.0  100   -3.0  2     0     1002.2   NA       0.0000   9999     390   0     0    
2019/06/02  13:27:00  BASE  2.60484  208  3.86904  211  -3.0  100   -3.0  2     0     1002.2   NA       0.0000   9999     390   0     0    
2019/06/02  13:28:00  BASE  2.79888  211  3.86904  211  -3.0  100   -3.0  2     0     1002.1   NA       0.0000   9999     360   0     0    
2019/06/02  13:29:00  BASE  3.16932  210  3.86904  211  -3.1  100   -3.1  2     0     1002.2   NA       0.0000   9999     330   0     0    
2019/06/02  13:30:00  BASE  3.087    208  3.86904  211  -3.1  100   -3.1  2     0     1002.2   NA       0.0000   9999     300   0     0    
2019/06/02  13:31:00  BASE  2.9988   209  3.86904  211  -3.1  100   -3.1  2     0     1002.2   NA       0.0000   9999     360   0     0    
2019/06/02  13:32:00  BASE  2.86356  205  3.86904  211  -3.1  100   -3.1  2     0     1002.2   NA       0.0000   9999     330   0     0    
2019/06/02  13:33:00  BASE  2.5872   204  3.86904  211  -3.1  100   -3.1  2     0     1002.2   NA       0.0000   9999     390   0     0    
2019/06/02  13:34:00  BASE  2.57544  210  3.86904  211  -3.1  100   -3.1  2     0     1002.2   NA       0.0000   9999     360   0     0    
2019/06/02  13:35:00  BASE  2.76948  214  3.48096  216  -3.1  100   -3.1  2     0     1002.2   NA       0.0000   9999     390   0     0    
2019/06/02  13:36:00  BASE  2.77536  215  3.48096  216  -3.1  100   -3.1  2     0     1002.2   NA       0.0000   9999     330   0     0    
2019/06/02  13:37:00  BASE  2.83416  213  3.48096  216  -3.1  100   -3.1  2     0     1002.2   NA       0.0000   9999     360   0     0    
2019/06/02  13:38:00  BASE  3.05172  213  3.48096  223  -3.1  100   -3.1  3     0     1002.2   NA       0.0000   9999     390   0     0    
2019/06/02  13:39:00  BASE  3.2046   218  3.78084  223  -3.1  100   -3.1  3     0     1002.2   NA       0.0000   9999     460   0     0    
2019/06/02  13:40:00  BASE  3.28104  224  3.78084  223  -3.1  100   -3.1  3     0     1002.2   NA       0.0000   9999     460   0     0    
2019/06/02  13:41:00  BASE  2.89884  235  3.78084  223  -3.1  100   -3.1  3     0     1002.2   NA       0.0000   9999     460   0     0    
2019/06/02  13:42:00  BASE  2.72832  244  3.78084  223  -3.1  100   -3.1  2     0     1002.2   NA       0.0000   9999     460   0     0    
2019/06/02  13:43:00  BASE  2.49312  247  3.78084  223  -3.1  100   -3.1  2     0     1002.2   NA       0.0000   9999     390   0     0    
2019/06/02  13:44:00  BASE  1.98156  242  3.78084  223  -3.1  100   -3.1  2     0     1002.2   NA       0.0000   9999     360   0     0    
2019/06/02  13:45:00  BASE  2.15796  222  3.78084  223  -3.2  100   -3.2  2     0     1002.2   NA       0.0000   9999     300   0     0    
2019/06/02  13:46:00  BASE  2.38728  213  3.78084  223  -3.2  100   -3.2  2     0     1002.2   NA       0.0000   9999     260   0     0    
2019/06/02  13:47:00  BASE  2.56956  222  3.78084  223  -3.2  100   -3.2  3     0     1002.2   NA       0.0000   9999     360   0     0    
2019/06/02  13:48:00  BASE  2.85768  235  3.78084  223  -3.1  100   -3.1  3     0     1002.2   NA       0.0000   9999     390   0     0    
2019/06/02  13:49:00  BASE  2.98116  234  3.59856  232  -3.1  100   -3.1  3     0     1002.2   NA       0.0000   9999     390   0     0    
2019/06/02  13:50:00  BASE  2.9694   224  3.59856  232  -3.2  100   -3.2  3     0     1002.2   NA       0.0000   9999     360   0     0    
2019/06/02  13:51:00  BASE  2.90472  218  3.59856  232  -3.2  100   -3.2  3     0     1002.2   NA       0.0000   9999     390   0     0    
2019/06/02  13:52:00  BASE  2.86944  211  3.59856  232  -3.2  100   -3.2  3     0     1002.2   NA       0.0000   9999     360   0     0    
2019/06/02  13:53:00  BASE  2.7342   212  3.59856  232  -3.2  100   -3.2  3     0     1002.2   NA       0.0000   9999     230   0     0    
2019/06/02  13:54:00  BASE  3.02232  212  3.62796  207  -3.2  100   -3.2  3     0     1002.2   NA       0.0000   9999     360   0     0    
2019/06/02  13:55:00  BASE  3.18108  214  3.62796  207  -3.2  100   -3.2  3     0     1002.2   NA       0.0000   9999     300   0     0    
2019/06/02  13:56:00  BASE  2.9694   221  3.62796  207  -3.2  100   -3.2  3     0     1002.2   NA       0.0000   9999     230   0     0    
2019/06/02  13:57:00  BASE  2.86944  226  3.62796  207  -3.3  100   -3.3  3     0     1002.2   NA       0.0000   9999     300   0     0    
2019/06/02  13:58:00  BASE  2.54604  234  3.62796  207  -3.3  100   -3.3  3     0     1002.2   NA       0.0000   9999     300   0     0    
2019/06/02  13:59:00  BASE  2.4696   242  3.62796  207  -3.3  100   -3.3  3     0     1002.2   NA       0.0000   9999     300   0     0    
2019/06/02  14:00:00  BASE  2.81652  237  3.62796  207  -3.3  100   -3.3  3     0     1002.1   NA       0.0000   9999     300   0     0    
2019/06/02  14:01:00  BASE  2.77536  225  3.62796  207  -3.3  100   -3.3  3     0     1002.1   NA       0.0000   9999     230   0     0    
2019/06/02  14:02:00  BASE  2.57544  221  3.62796  207  -3.2  100   -3.2  4     0     1002.1   NA       0.0000   9999     230   0     0    
2019/06/02  14:03:00  BASE  2.69892  228  3.62796  207  -3.2  100   -3.2  4     0     1002.1   NA       0.0000   9999     230   0     0    
2019/06/02  14:04:00  BASE  2.65188  238  3.51036  230  -3.2  100   -3.2  4     0     1002.1   NA       0.0000   9000     0     0     0    
2019/06/02  14:05:00  BASE  2.51076  237  3.51036  230  -3.2  100   -3.2  4     0     1002.2   NA       0.0000   7000     0     0     0    
2019/06/02  14:06:00  BASE  2.3814   239  3.51036  230  -3.3  100   -3.3  4     0     1002.1   NA       0.0000   8000     0     0     0    
2019/06/02  14:07:00  BASE  2.28144  240  3.51036  230  -3.3  100   -3.3  4     0     1002.1   NA       0.0000   6000     0     0     0    
2019/06/02  14:08:00  BASE  2.48136  220  3.51036  230  -3.3  100   -3.3  4     0     1002.1   NA       0.0000   BR       6000  0     0    
2019/06/02  14:09:00  BASE  2.74008  209  3.51036  230  -3.3  100   -3.3  4     0     1002.1   NA       0.0000   BR       9999  0     0    
2019/06/02  14:10:00  BASE  2.77536  210  3.35748  199  -3.3  100   -3.3  4     0     1002.1   NA       0.0000   BR       9999  0     0    
2019/06/02  14:11:00  BASE  2.53428  216  3.35748  199  -3.3  100   -3.3  4     0     1002.1   NA       0.0000   BR       7000  0     0    
2019/06/02  14:12:00  BASE  2.2638   226  3.35748  199  -3.3  100   -3.3  4     0     1002.1   NA       0.0000   BR       3700  0     0    
2019/06/02  14:13:00  BASE  2.07564  230  3.35748  199  -3.3  100   -3.3  5     0     1002.1   NA       0.0000   BR       2300  0     0    
2019/06/02  14:14:00  BASE  2.01684  228  3.35748  199  -3.3  100   -3.3  5     0     1002.1   NA       0.0000   BR       2600  0     0    
2019/06/02  14:15:00  BASE  1.94628  224  3.35748  199  -3.4  100   -3.4  5     0     1002.1   NA       0.0000   BR       4600  0     0    
2019/06/02  14:16:00  BASE  1.94628  218  3.35748  199  -3.4  100   -3.4  5     0     1002.1   NA       0.0000   BR       3000  0     0    
2019/06/02  14:17:00  BASE  2.01096  213  3.35748  199  -3.4  100   -3.4  5     0     1002.1   NA       0.0000   BR       1300  0     0    
2019/06/02  14:18:00  BASE  1.99332  216  3.35748  199  -3.4  100   -3.4  5     0     1002.1   NA       0.0000   BR       0900  0     0    
2019/06/02  14:19:00  BASE  1.911    227  2.96352  212  -3.4  100   -3.4  6     0     1002.1   NA       0.0000   -SN      BR    1000  0    
2019/06/02  14:20:00  BASE  1.8522   238  2.81064  226  -3.3  100   -3.3  6     0     1002.1   NA       0.0000   -SN      BR    1500  0    
2019/06/02  14:21:00  BASE  1.97568  244  2.56956  242  -3.4  100   -3.4  6     0     1002.0   NA       0.0000   -SN      BR    3300  0    
2019/06/02  14:22:00  BASE  2.02272  242  2.56956  242  -3.4  100   -3.4  6     0     1002.1   NA       0.0000   -SN      BR    8000  230  
2019/06/02  14:23:00  BASE  2.10504  244  2.56956  243  -3.4  100   -3.4  6     0     1002.2   NA       0.0000   -SN      BR    9999  0    
2019/06/02  14:24:00  BASE  2.15208  251  2.56956  243  -3.4  100   -3.4  7     0     1002.2   NA       0.0000   -SN      BR    9999  0    
2019/06/02  14:25:00  BASE  1.8816   255  2.56956  243  -3.4  100   -3.4  7     0     1002.2   NA       0.0000   -SN      BR    9999  0    
2019/06/02  14:26:00  BASE  1.54644  255  2.56956  243  -3.5  100   -3.5  7     0     1002.2   NA       0.0000   -SN      BR    8000  0    
2019/06/02  14:27:00  BASE  1.4112   253  2.56956  243  -3.5  100   -3.5  6     0     1002.2   NA       0.0000   -SN      BR    4600  0    
2019/06/02  14:28:00  BASE  1.2936   252  2.56956  243  -3.5  100   -3.5  6     0     1002.2   NA       0.0000   BR       2500  0     0    
2019/06/02  14:29:00  BASE  1.39944  261  2.56956  243  -3.5  100   -3.5  6     0     1002.2   NA       0.0000   BR       1600  0     0    
2019/06/02  14:30:00  BASE  1.65228  262  2.56956  243  -3.5  100   -3.5  6     0     1002.2   NA       0.0000   BR       1200  0     0    
2019/06/02  14:31:00  BASE  1.47     244  2.56956  243  -3.4  100   -3.4  7     0     1002.2   NA       0.0000   BR       1300  0     0    
2019/06/02  14:32:00  BASE  1.19364  227  2.56956  243  -3.4  100   -3.4  7     0     1002.2   NA       0.0000   BR       1400  0     0    
2019/06/02  14:33:00  BASE  0.8232   210  2.29908  255  -3.4  100   -3.4  7     0     1002.2   NA       0.0000   BR       1000  0     0    
2019/06/02  14:34:00  BASE  0.68208  195  2.21088  265  -3.4  100   -3.4  7     0     1002.2   NA       0.0000   BR       0750  0     0    
2019/06/02  14:35:00  BASE  1.04076  201  2.21088  265  -3.4  100   -3.4  7     0     1002.2   NA       0.0000   BR       0700  0     0    
2019/06/02  14:36:00  BASE  1.62876  199  2.35788  194  -3.5  100   -3.5  6     0     1002.2   NA       0.0000   -SN      BR    0800  0    
2019/06/02  14:37:00  BASE  1.95216  189  2.35788  194  -3.5  100   -3.5  7     0     1002.2   NA       0.0000   -SN      BR    0800  0    
2019/06/02  14:38:00  BASE  1.74048  194  2.35788  194  -3.5  100   -3.5  7     0     1002.2   NA       0.0000   -SN      BR    0750  0    
2019/06/02  14:39:00  BASE  1.48176  196  2.35788  194  -3.5  100   -3.5  7     0     1002.2   NA       0.0000   -SN      BR    0700  0    
2019/06/02  14:40:00  BASE  1.54056  190  2.35788  194  -3.5  100   -3.5  7     0     1002.2   NA       0.0000   -SN      FZFG  0750  0    
2019/06/02  14:41:00  BASE  1.75812  185  2.35788  194  -3.5  100   -3.5  7     0     1002.2   NA       0.0000   -SN      FZFG  0800  0    
2019/06/02  14:42:00  BASE  1.94628  185  2.45196  188  -3.5  100   -3.5  7     0     1002.2   NA       0.0000   -SN      FZFG  0800  0    
2019/06/02  14:43:00  BASE  2.0874   184  2.45196  188  -3.5  100   -3.5  7     0     1002.2   NA       0.0000   -SN      FZFG  0800  0    
2019/06/02  14:44:00  BASE  2.02272  185  2.45196  188  -3.5  100   -3.5  7     0     1002.2   NA       0.0000   -SN      FZFG  0800  0    
2019/06/02  14:45:00  BASE  1.9404   188  2.45196  188  -3.5  100   -3.5  7     0     1002.2   NA       0.0000   -SN      FZFG  0800  0    
2019/06/02  14:46:00  BASE  1.92276  188  2.45196  188  -3.6  100   -3.6  7     0     1002.2   NA       0.0000   -SN      FZFG  0750  0    
2019/06/02  14:47:00  BASE  1.79928  187  2.45196  188  -3.6  100   -3.6  7     0     1002.2   NA       0.0000   -SN      FZFG  0800  0    
2019/06/02  14:48:00  BASE  1.44648  187  2.45196  188  -3.6  100   -3.6  7     0     1002.1   NA       0.0000   -SN      FZFG  0800  0    
2019/06/02  14:49:00  BASE  1.2936   191  2.45196  188  -3.6  100   -3.6  7     0     1002.1   NA       0.0000   -SN      FZFG  0800  0    
2019/06/02  14:50:00  BASE  1.13484  190  2.45196  188  -3.6  100   -3.6  7     0     1002.2   NA       0.0000   -SN      FZFG  0800  0    
2019/06/02  14:51:00  BASE  0.95256  184  2.45196  188  -3.6  100   -3.6  7     0     1002.1   NA       0.0000   -SN      FZFG  0800  0    
2019/06/02  14:52:00  BASE  1.15248  181  2.1756   199  -3.6  100   -3.6  7     0     1002.2   NA       0.0000   -SN      FZFG  0750  0    
2019/06/02  14:53:00  BASE  1.3524   181  2.1756   199  -3.6  100   -3.6  7     0     1002.2   NA       0.0000   -SN      FZFG  0750  0    
2019/06/02  14:54:00  BASE  1.35828  182  2.0874   186  -3.6  100   -3.6  7     0     1002.2   NA       0.0000   -SN      FZFG  0750  0    
2019/06/02  14:55:00  BASE  1.33476  183  2.0874   186  -3.6  100   -3.6  7     0     1002.2   NA       0.0000   -SN      FZFG  0800  0    
2019/06/02  14:56:00  BASE  1.24656  182  1.75224  192  -3.6  100   -3.6  7     0     1002.2   NA       0.0000   -SN      FZFG  0900  0    
2019/06/02  14:57:00  BASE  1.04664  176  1.63464  179  -3.6  100   -3.6  8     0     1002.2   NA       0.0000   -SN      FZFG  0800  0    
2019/06/02  14:58:00  BASE  0.84084  173  1.63464  179  -3.6  100   -3.6  8     0     1002.2   NA       0.0000   -SN      FZFG  0800  0    
2019/06/02  14:59:00  BASE  0.65268  168  1.63464  179  -3.6  100   -3.6  8     0     1002.2   NA       0.0000   -SN      FZFG  0900  0    
2019/06/02  15:00:00  BASE  0.71736  162  1.63464  179  -3.6  100   -3.6  8     0     1002.2   NA       0.0000   -SN      FZFG  1000  0    
2019/06/02  15:01:00  BASE  0.84084  164  1.63464  179  -3.6  100   -3.6  8     0     1002.2   NA       0.0000   -SN      FZFG  1000  0    
2019/06/02  15:02:00  BASE  0.59976  166  1.63464  179  -3.6  100   -3.6  8     0     1002.2   NA       0.0000   -SN      BR    1000  0    
2019/06/02  15:03:00  BASE  0.19992  169  1.63464  179  -3.6  100   -3.6  8     0     1002.2   NA       0.0000   -SN      BR    1100  0    
2019/06/02  15:04:00  BASE  0        175  1.48176  188  -3.6  100   -3.6  8     0     1002.2   NA       0.0000   -SN      BR    1400  0    
2019/06/02  15:05:00  BASE  0        197  1.24068  179  -3.6  100   -3.6  8     0     1002.2   NA       0.0000   -SN      BR    1500  0    
2019/06/02  15:06:00  BASE  0        216  1.029    183  -3.6  100   -3.6  8     0     1002.2   NA       0.0000   -SN      BR    1500  0    
2019/06/02  15:07:00  BASE  0.11172  224  0.93492  166  -3.6  100   -3.6  8     0     1002.2   NA       0.0000   -SN      BR    1400  0    
2019/06/02  15:08:00  BASE  0.11172  229  0.93492  166  -3.6  100   -3.6  8     0     1002.2   NA       0.0000   -SN      BR    1500  0    
2019/06/02  15:09:00  BASE  0.32928  241  0.9702   284  -3.6  100   -3.6  8     0     1002.2   NA       0.0000   -SN      BR    2200  0    
2019/06/02  15:10:00  BASE  1.21128  277  2.69304  306  -3.6  100   -3.6  8     0     1002.2   NA       0.0000   -SN      BR    4300  0    
2019/06/02  15:11:00  BASE  2.28732  300  3.087    292  -3.6  100   -3.6  8     0     1002.2   NA       0.0000   -SN      BR    7000  0    
2019/06/02  15:12:00  BASE  2.86356  297  3.087    292  -3.6  100   -3.6  8     0     1002.2   NA       0.0000   -SN      BR    7000  0    
2019/06/02  15:13:00  BASE  2.86944  290  3.29868  274  -3.5  100   -3.5  8     0     1002.2   NA       0.0000   -SN      BR    7000  0    
2019/06/02  15:14:00  BASE  2.793    283  3.29868  274  -3.5  100   -3.5  8     0     1002.2   NA       0.0000   -SN      BR    7000  0    
2019/06/02  15:15:00  BASE  2.78124  280  3.29868  274  -3.5  100   -3.5  9     0     1002.2   NA       0.0000   -SN      BR    6000  0    
2019/06/02  15:16:00  BASE  2.83416  277  3.29868  274  -3.5  100   -3.5  9     0     1002.2   NA       0.0000   -SN      BR    6000  0    
2019/06/02  15:17:00  BASE  2.86356  276  3.29868  268  -3.5  100   -3.5  9     0     1002.2   NA       0.0000   -SN      BR    6000  0    
2019/06/02  15:18:00  BASE  2.83416  277  3.29868  268  -3.5  100   -3.5  9     0     1002.2   NA       0.0000   -SN      BR    8000  0    
2019/06/02  15:19:00  BASE  2.86356  277  3.32808  281  -3.6  100   -3.6  9     0     1002.2   NA       0.0000   BR       9999  0     0    
2019/06/02  15:20:00  BASE  2.86944  277  3.32808  281  -3.6  100   -3.6  9     0     1002.2   NA       0.0000   BR       9999  0     0    
2019/06/02  15:21:00  BASE  2.78712  280  3.32808  281  -3.6  100   -3.6  9     0     1002.2   NA       0.0000   BR       9999  0     0    
2019/06/02  15:22:00  BASE  2.81064  281  3.32808  281  -3.6  100   -3.6  9     0     1002.2   NA       0.0000   BR       9999  0     0    
2019/06/02  15:23:00  BASE  2.8518   283  3.32808  281  -3.6  100   -3.6  9     0     1002.2   NA       0.0000   BR       9999  0     0    
2019/06/02  15:24:00  BASE  2.84004  289  3.32808  281  -3.6  100   -3.6  9     0     1002.2   NA       0.0000   BR       9999  0     0    
2019/06/02  15:25:00  BASE  2.55192  293  3.32808  281  -3.6  100   -3.6  9     0     1002.2   NA       0.0000   9999     0     0     0    
2019/06/02  15:26:00  BASE  2.21088  295  3.32808  281  -3.6  100   -3.6  9     0     1002.2   NA       0.0000   9999     0     0     0    
2019/06/02  15:27:00  BASE  2.205    299  3.32808  281  -3.6  100   -3.6  9     0     1002.2   NA       0.0000   9999     0     0     0    
2019/06/02  15:28:00  BASE  2.24028  302  3.32808  281  -3.6  100   -3.6  9     0     1002.2   NA       0.0000   9999     0     0     0    
2019/06/02  15:29:00  BASE  2.22852  301  3.26928  294  -3.6  100   -3.6  9     0     1002.2   NA       0.0000   7000     0     0     0    
2019/06/02  15:30:00  BASE  2.04624  295  3.26928  294  -3.6  100   -3.6  9     0     1002.2   NA       0.0000   4400     0     0     0    
2019/06/02  15:31:00  BASE  1.72872  295  3.26928  294  -3.6  100   -3.6  8     0     1002.1   NA       0.0000   -SN      BR    2600  0    
2019/06/02  15:32:00  BASE  1.5876   303  3.26928  294  -3.6  100   -3.6  8     0     1002.1   NA       0.0000   -SN      BR    2200  0    
2019/06/02  15:33:00  BASE  1.6464   308  3.1458   293  -3.6  100   -3.6  8     0     1002.1   NA       0.0000   -SN      BR    3000  0    
2019/06/02  15:34:00  BASE  1.6464   308  2.48136  295  -3.6  100   -3.6  8     0     1002.1   NA       0.0000   -SN      BR    3200  0    
2019/06/02  15:35:00  BASE  1.81104  296  2.48136  295  -3.6  100   -3.6  9     0     1002.1   NA       0.0000   -SN      BR    2700  0    
2019/06/02  15:36:00  BASE  2.32848  281  3.1164   264  -3.6  100   -3.6  9     0     1002.1   NA       0.0000   -SN      BR    3700  0    
2019/06/02  15:37:00  BASE  2.6166   277  3.26928  285  -3.6  100   -3.6  10    0     1002.1   NA       0.0000   -SN      BR    5000  0    
2019/06/02  15:38:00  BASE  2.71656  280  3.26928  280  -3.6  100   -3.6  10    0     1002.0   NA       0.0000   -SN      BR    5000  330  
2019/06/02  15:39:00  BASE  2.793    277  3.26928  280  -3.6  100   -3.6  10    0     1002.1   NA       0.0000   -SN      BR    9000  330  
2019/06/02  15:40:00  BASE  2.50488  270  3.26928  280  -3.6  100   -3.6  10    0     1002.1   NA       0.0000   -SN      BR    9999  490  
2019/06/02  15:41:00  BASE  2.15208  273  3.26928  280  -3.7  100   -3.7  9     0     1002.1   NA       0.0000   -SN      BR    9999  200  
2019/06/02  15:42:00  BASE  1.91688  279  3.26928  280  -3.7  100   -3.7  9     0     1002.1   NA       0.0000   -SN      BR    9999  0    
2019/06/02  15:43:00  BASE  1.72284  280  3.26928  280  -3.7  100   -3.7  9     0     1002.1   NA       0.0000   -SN      BR    9999  0    
2019/06/02  15:44:00  BASE  1.72872  278  3.26928  280  -3.7  100   -3.7  9     0     1002.1   NA       0.0000   -SN      BR    9999  0    
2019/06/02  15:45:00  BASE  1.92276  280  3.26928  280  -3.7  100   -3.7  9     0     1002.0   NA       0.0000   -SN      BR    8000  0    
2019/06/02  15:46:00  BASE  2.48724  289  3.32808  290  -3.7  100   -3.7  9     0     1002.1   NA       0.0000   -SN      BR    7000  0    
2019/06/02  15:47:00  BASE  2.84004  297  3.32808  290  -3.7  100   -3.7  9     0     1002.1   NA       0.0000   -SN      BR    7000  360  
2019/06/02  15:48:00  BASE  2.54016  294  3.32808  290  -3.7  100   -3.7  8     0     1002.1   NA       0.0000   -SN      9999  430   0    
2019/06/02  15:49:00  BASE  2.32848  282  3.32808  290  -3.7  100   -3.7  8     0     1002.1   NA       0.0000   -SN      9999  300   0    
2019/06/02  15:50:00  BASE  2.4108   278  3.32808  290  -3.7  100   -3.7  8     0     1002.1   NA       0.0000   -SN      9999  260   0    
2019/06/02  15:51:00  BASE  2.83416  282  3.69264  280  -3.7  100   -3.7  9     0     1002.1   NA       0.0000   -SN      9999  0     0    
2019/06/02  15:52:00  BASE  3.39864  282  3.83964  271  -3.7  100   -3.7  9     0     1002.1   NA       0.0000   -SN      9999  0     0    
2019/06/02  15:53:00  BASE  3.52212  283  3.83964  271  -3.7  100   -3.7  9     0     1002.1   NA       0.0000   -SN      9999  300   0    
2019/06/02  15:54:00  BASE  2.97528  286  3.83964  271  -3.7  100   -3.7  9     0     1002.1   NA       0.0000   9999     300   0     0    
2019/06/02  15:55:00  BASE  2.38728  293  3.83964  271  -3.7  100   -3.7  10    0     1002.1   NA       0.0000   9999     390   0     0    
2019/06/02  15:56:00  BASE  2.28144  298  3.83964  271  -3.7  100   -3.7  10    0     1002.0   NA       0.0000   9999     490   0     0    
2019/06/02  15:57:00  BASE  2.34612  297  3.83964  271  -3.8  100   -3.8  9     0     1002.0   NA       0.0000   9999     460   0     0    
2019/06/02  15:58:00  BASE  2.205    296  3.83964  271  -3.8  100   -3.8  9     0     1002.0   NA       0.0000   9999     260   0     0    
2019/06/02  15:59:00  BASE  1.89336  302  3.83964  271  -3.8  100   -3.8  9     0     1002.1   NA       0.0000   9999     260   0     0    
2019/06/02  16:00:00  BASE  1.76988  305  3.83964  271  -3.8  100   -3.8  9     0     1002.0   NA       0.0000   9999     0     0     0    
2019/06/02  16:01:01  BASE  1.72872  306  3.83964  271  -3.8  100   -3.8  9     0     1002.0   NA       0.0000   9999     0     0     0    
2019/06/02  16:02:01  BASE  1.61112  309  3.81024  281  -3.8  100   -3.8  9     0     1002.0   NA       0.0000   9999     0     0     0    
2019/06/02  16:03:01  BASE  1.51704  311  3.02232  288  -3.8  100   -3.8  10    0     1002.0   NA       0.0000   -SN      9999  0     0    
2019/06/02  16:04:01  BASE  1.3524   312  2.69304  291  -3.8  100   -3.8  10    0     1002.0   NA       0.0000   -SN      9999  0     0    
2019/06/02  16:05:00  BASE  1.19952  315  2.69304  291  -3.8  100   -3.8  10    0     1002.0   NA       0.0000   -SN      8000  0     0    
2019/06/02  16:06:01  BASE  1.06428  322  2.69304  291  -3.8  100   -3.8  10    0     1002.1   NA       0.0000   -SN      8000  0     0    
2019/06/02  16:07:00  BASE  1.06428  319  2.1462   288  -3.7  100   -3.7  10    0     1002.1   NA       0.0000   -SN      7000  0     0    
2019/06/02  16:08:00  BASE  1.39356  307  2.1168   307  -3.7  100   -3.7  10    0     1002.1   NA       0.0000   -SN      BR    4700  0    
2019/06/02  16:09:00  BASE  1.5582   298  2.1168   307  -3.7  100   -3.7  10    0     1002.1   NA       0.0000   -SN      BR    4300  0    
2019/06/02  16:10:00  BASE  1.50528  300  1.93452  313  -3.7  100   -3.7  10    0     1002.1   NA       0.0000   -SN      BR    5000  0    
2019/06/02  16:11:00  BASE  1.5288   306  1.81692  298  -3.7  100   -3.7  10    0     1002.0   NA       0.0000   -SN      BR    5000  0    
2019/06/02  16:12:00  BASE  1.64052  309  1.96392  311  -3.7  100   -3.7  10    0     1002.1   NA       0.0000   -SN      BR    4300  0    
2019/06/02  16:13:00  BASE  1.74048  308  1.96392  311  -3.6  100   -3.6  10    0     1002.1   NA       0.0000   -SN      BR    3100  0    
2019/06/02  16:14:00  BASE  1.65816  311  1.96392  311  -3.6  100   -3.6  11    0     1002.1   NA       0.0000   -SN      BR    2000  0    
2019/06/02  16:15:00  BASE  1.53468  316  1.96392  311  -3.6  100   -3.6  11    0     1002.1   NA       0.0000   -SN      BR    2100  0    
2019/06/02  16:16:01  BASE  1.43472  327  1.96392  311  -3.6  100   -3.6  11    0     1002.1   NA       0.0000   -SN      BR    3500  0    
2019/06/02  16:17:00  BASE  1.34652  334  1.96392  311  -3.6  100   -3.6  12    0     1002.1   NA       0.0000   -SN      BR    6000  0    
2019/06/02  16:18:01  BASE  1.27008  316  1.96392  311  -3.6  100   -3.6  12    0     1002.1   NA       0.0000   -SN      BR    7000  0    
2019/06/02  16:19:01  BASE  1.2642   288  1.96392  311  -3.6  100   -3.6  12    0     1002.1   NA       0.0000   -SN      BR    8000  590  
2019/06/02  16:20:00  BASE  1.72284  266  2.48136  253  -3.6  100   -3.6  12    0     1002.1   NA       0.0000   -SN      BR    9999  460  
2019/06/02  16:21:00  BASE  1.9992   252  2.48136  253  -3.6  100   -3.6  13    0     1002.1   NA       0.0000   -SN      BR    9999  460  
2019/06/02  16:22:00  BASE  1.83456  252  2.48136  253  -3.6  100   -3.6  13    0     1002.1   NA       0.0000   -SN      BR    9999  330  
2019/06/02  16:23:00  BASE  1.7346   252  2.48136  253  -3.7  100   -3.7  13    0     1002.1   NA       0.0000   -SN      BR    9999  620  
2019/06/02  16:24:00  BASE  1.62876  261  2.48136  253  -3.7  100   -3.7  13    0     1002.0   NA       0.0000   -SN      BR    9999  520  
2019/06/02  16:25:00  BASE  1.98744  275  2.84592  267  -3.7  100   -3.7  13    0     1002.0   NA       0.0000   -SN      BR    9999  620  
2019/06/02  16:26:00  BASE  2.22852  275  2.84592  267  -3.7  100   -3.7  13    0     1002.0   NA       0.0000   9999     490   0     0    
2019/06/02  16:27:00  BASE  2.10504  273  2.84592  267  -3.7  100   -3.7  13    0     1002.0   NA       0.0000   9999     390   0     0    
2019/06/02  16:28:00  BASE  2.1168   276  2.84592  267  -3.7  100   -3.7  13    0     1002.0   NA       0.0000   9999     430   0     0    
2019/06/02  16:29:00  BASE  1.95216  278  2.84592  267  -3.6  100   -3.6  13    0     1002.0   NA       0.0000   9999     360   0     0    
2019/06/02  16:30:00  BASE  1.85808  281  2.84592  267  -3.6  100   -3.6  12    0     1001.9   NA       0.0000   9999     430   0     0    
2019/06/02  16:31:00  BASE  1.95804  277  2.84592  267  -3.6  100   -3.6  13    0     1002.0   NA       0.0000   9999     390   0     0    
2019/06/02  16:32:00  BASE  1.83456  270  2.84592  267  -3.6  100   -3.6  13    0     1002.0   NA       0.0000   9999     330   0     0    
2019/06/02  16:33:00  BASE  1.76988  259  2.84592  267  -3.6  100   -3.6  13    0     1002.0   NA       0.0000   9999     330   0     0    
2019/06/02  16:34:00  BASE  1.65816  252  2.84592  267  -3.6  100   -3.6  12    0     1002.0   NA       0.0000   9999     330   0     0    
2019/06/02  16:35:00  BASE  1.4406   257  2.81064  269  -3.6  100   -3.6  12    0     1002.0   NA       0.0000   9999     360   0     0    
2019/06/02  16:36:00  BASE  1.92276  256  2.81064  269  -3.6  100   -3.6  12    0     1002.0   NA       0.0000   9999     360   0     0    
2019/06/02  16:37:00  BASE  2.29908  254  2.63424  248  -3.6  100   -3.6  12    0     1002.0   NA       0.0000   9999     430   0     0    
2019/06/02  16:38:00  BASE  2.21676  259  2.63424  248  -3.6  100   -3.6  12    0     1002.0   NA       0.0000   9999     430   3180  0    
2019/06/02  16:39:00  BASE  2.14032  259  2.63424  248  -3.6  100   -3.6  12    0     1002.0   NA       0.0000   9999     0     0     0    
2019/06/02  16:40:01  BASE  1.80516  255  2.63424  248  -3.6  100   -3.6  12    0     1002.0   NA       0.0000   9000     0     0     0    
2019/06/02  16:41:00  BASE  1.31712  252  2.63424  248  -3.7  100   -3.7  11    0     1002.0   NA       0.0000   9000     0     0     0    
2019/06/02  16:42:00  BASE  1.07016  254  2.63424  248  -3.7  100   -3.7  11    0     1002.0   NA       0.0000   7000     0     0     0    
2019/06/02  16:43:00  BASE  1.21716  258  2.63424  248  -3.7  100   -3.7  12    0     1002.0   NA       0.0000   -SN      6000  0     0    
2019/06/02  16:44:00  BASE  1.69344  255  2.63424  248  -3.7  100   -3.7  12    0     1002.0   NA       0.0000   -SN      9999  330   0    
2019/06/02  16:45:00  BASE  2.05212  255  2.63424  248  -3.7  100   -3.7  12    0     1002.0   NA       0.0000   -SN      9999  260   0    
2019/06/02  16:46:00  BASE  2.24616  258  2.59896  267  -3.7  100   -3.7  12    0     1002.0   NA       0.0000   -SN      9999  0     0    
2019/06/02  16:47:00  BASE  2.34024  259  2.63424  259  -3.6  100   -3.6  12    0     1002.0   NA       0.0000   -SN      9999  300   0    
2019/06/02  16:48:00  BASE  1.8816   265  2.63424  259  -3.6  100   -3.6  13    0     1002.0   NA       0.0000   -SN      9999  330   820  
2019/06/02  16:49:00  BASE  1.31124  270  2.63424  259  -3.6  100   -3.6  13    0     1002.0   NA       0.0000   -SN      9999  360   0    
2019/06/02  16:50:00  BASE  1.29948  275  2.63424  259  -3.6  100   -3.6  13    0     1002.0   NA       0.0000   -SN      9999  360   0    
2019/06/02  16:51:00  BASE  1.32888  267  2.63424  259  -3.6  100   -3.6  13    0     1001.9   NA       0.0000   -SN      9999  230   0    
2019/06/02  16:52:00  BASE  1.54056  256  2.63424  259  -3.6  100   -3.6  13    0     1001.9   NA       0.0000   9999     0     0     0    
2019/06/02  16:53:00  BASE  1.75224  256  2.63424  259  -3.5  100   -3.5  13    0     1001.9   NA       0.0000   9999     260   1120  0    
2019/06/02  16:54:00  BASE  1.59348  258  2.63424  259  -3.5  100   -3.5  13    0     1001.9   NA       0.0000   9999     560   1480  0    
2019/06/02  16:55:00  BASE  1.57584  260  2.63424  259  -3.5  100   -3.6  13    0     1002.0   NA       0.0000   9999     460   1350  0    
2019/06/02  16:56:01  BASE  1.84632  256  2.63424  259  -3.6  100   -3.6  14    0     1002.0   NA       0.0000   9999     490   1310  0    
2019/06/02  16:57:00  BASE  1.9404   256  2.45196  266  -3.6  100   -3.6  14    0     1002.0   NA       0.0000   9999     560   1280  0    
2019/06/02  16:58:00  BASE  1.69932  264  2.45196  266  -3.6  100   -3.6  14    0     1002.0   NA       0.0000   9999     590   1250  0    
2019/06/02  16:59:00  BASE  1.58172  273  2.45196  266  -3.6  100   -3.6  14    0     1002.0   NA       0.0000   9999     620   3250  0    
2019/06/02  17:00:00  BASE  1.59348  274  2.45196  266  -3.6  100   -3.6  14    0     1002.0   NA       0.0000   9999     560   950   0    
2019/06/02  17:01:00  BASE  1.58172  267  2.45196  266  -3.6  100   -3.6  14    0     1002.0   NA       0.0000   9999     790   3220  0    
2019/06/02  17:02:01  BASE  1.37004  264  2.45196  266  -3.6  100   -3.6  14    0     1002.0   NA       0.0000   9999     620   3250  0    
2019/06/02  17:03:00  BASE  1.13484  264  2.45196  266  -3.6  100   -3.6  14    0     1002.0   NA       0.0000   9999     560   0     0    
2019/06/02  17:04:00  BASE  0.90552  264  2.45196  266  -3.6  100   -3.6  14    0     1002.0   NA       0.0000   9999     560   0     0    
2019/06/02  17:05:00  BASE  1.09368  274  2.45196  266  -3.6  100   -3.6  13    0     1002.0   NA       0.0000   9999     590   1180  0    
2019/06/02  17:06:00  BASE  1.49352  271  2.1462   269  -3.6  100   -3.6  13    0     1002.0   NA       0.0000   9999     520   0     0    
2019/06/02  17:07:00  BASE  1.39944  263  2.1462   269  -3.6  100   -3.6  13    0     1002.0   NA       0.0000   9999     490   0     0    
2019/06/02  17:08:01  BASE  1.12308  267  2.1462   269  -3.6  100   -3.6  12    0     1001.9   NA       0.0000   9999     460   0     0    
2019/06/02  17:09:00  BASE  1.0878   281  2.1168   253  -3.6  100   -3.6  13    0     1001.9   NA       0.0000   9999     360   0     0    
2019/06/02  17:10:00  BASE  1.31124  284  2.1168   253  -3.6  100   -3.6  13    0     1002.0   NA       0.0000   9999     360   0     0    
2019/06/02  17:11:00  BASE  1.32888  278  1.81692  266  -3.6  100   -3.6  13    0     1002.0   NA       0.0000   9999     430   0     0    
2019/06/02  17:12:00  BASE  1.28184  270  1.81692  266  -3.6  100   -3.6  12    0     1002.0   NA       0.0000   9999     430   0     0    
2019/06/02  17:13:00  BASE  1.14072  263  1.81692  266  -3.6  100   -3.6  12    0     1002.0   NA       0.0000   9999     430   0     0    
2019/06/02  17:14:00  BASE  0.90552  274  1.81692  266  -3.6  100   -3.6  12    0     1002.0   NA       0.0000   9999     460   0     0    
2019/06/02  17:15:00  BASE  0.95844  282  1.81692  266  -3.6  100   -3.6  11    0     1002.0   NA       0.0000   9999     490   0     0    
2019/06/02  17:16:00  BASE  0.99372  272  1.66404  281  -3.6  100   -3.6  11    0     1002.0   NA       0.0000   9999     460   0     0    
2019/06/02  17:17:00  BASE  0.91728  276  1.66404  281  -3.6  100   -3.6  11    0     1001.9   NA       0.0000   9999     430   0     0    
2019/06/02  17:18:00  BASE  0.882    286  1.66404  281  -3.6  100   -3.6  11    0     1001.9   NA       0.0000   9999     360   0     0    
2019/06/02  17:19:00  BASE  0.98196  282  1.63464  283  -3.6  100   -3.6  11    0     1001.9   NA       0.0000   9999     330   0     0    
2019/06/02  17:20:00  BASE  0.86436  279  1.54056  254  -3.6  100   -3.6  11    0     1001.9   NA       0.0000   9999     300   0     0    
2019/06/02  17:21:00  BASE  0.8232   285  1.54056  254  -3.6  100   -3.6  11    0     1001.8   NA       0.0000   9999     360   0     0    
2019/06/02  17:22:01  BASE  1.05252  294  1.42296  255  -3.6  100   -3.6  11    0     1001.8   NA       0.0000   9999     360   0     0    
2019/06/02  17:23:00  BASE  1.13484  297  1.29948  299  -3.6  100   -3.6  11    0     1001.8   NA       0.0000   9999     430   0     0    
2019/06/02  17:24:00  BASE  1.02312  302  1.27008  292  -3.6  100   -3.6  11    0     1001.8   NA       0.0000   9999     430   0     0    
2019/06/02  17:25:00  BASE  0.95844  314  1.24068  299  -3.6  100   -3.6  11    0     1001.8   NA       0.0000   9999     430   0     0    
2019/06/02  17:26:00  BASE  1.16424  320  1.54056  322  -3.6  100   -3.6  11    0     1001.8   NA       0.0000   9999     360   0     0    
2019/06/02  17:27:00  BASE  1.176    325  1.54056  322  -3.6  100   -3.6  10    0     1001.8   NA       0.0000   9999     390   0     0    
2019/06/02  17:28:00  BASE  1.11132  330  1.54056  322  -3.5  100   -3.5  10    0     1001.8   NA       0.0000   9999     390   0     0    
2019/06/02  17:29:00  BASE  0.86436  322  1.54056  322  -3.5  100   -3.5  10    0     1001.8   NA       0.0000   9999     390   0     0    
2019/06/02  17:30:00  BASE  0.78204  328  1.54056  322  -3.5  100   -3.5  10    0     1001.8   NA       0.0000   9999     390   0     0    
2019/06/02  17:31:00  BASE  0.89376  348  1.54056  322  -3.5  100   -3.5  10    0     1001.8   NA       0.0000   9999     390   0     0    
2019/06/02  17:32:00  BASE  0.75852  345  1.54056  322  -3.5  100   -3.5  10    0     1001.8   NA       0.0000   9999     360   0     0    
2019/06/02  17:33:00  BASE  0.80556  337  1.54056  322  -3.5  100   -3.5  10    0     1001.8   NA       0.0000   9999     360   0     0    
2019/06/02  17:34:00  BASE  0.55272  342  1.54056  322  -3.5  100   -3.5  10    0     1001.8   NA       0.0000   9999     390   0     0    
2019/06/02  17:35:00  BASE  0.31752  346  1.54056  322  -3.5  100   -3.5  10    0     1001.8   NA       0.0000   9999     390   0     0    
2019/06/02  17:36:00  BASE  0.19404  341  1.39356  324  -3.5  100   -3.5  10    0     1001.8   NA       0.0000   9999     390   0     0    
2019/06/02  17:37:00  BASE  0        331  1.39356  324  -3.5  100   -3.5  9     0     1001.8   NA       0.0000   9999     390   0     0    
2019/06/02  17:38:01  BASE  0        337  1.29948  343  -3.5  100   -3.5  9     0     1001.8   NA       0.0000   9999     360   0     0    
2019/06/02  17:39:00  BASE  0        360  1.29948  343  -3.5  100   -3.5  9     0     1001.8   NA       0.0000   9999     360   0     0    
2019/06/02  17:40:00  BASE  0        47   0.9702   337  -3.5  100   -3.5  9     0     1001.8   NA       0.0000   9999     360   0     0    
2019/06/02  17:41:00  BASE  0        60   0.9702   337  -3.5  100   -3.5  9     0     1001.8   NA       0.0000   9999     330   0     0    
2019/06/02  17:42:01  BASE  0        32   0.9702   337  -3.5  100   -3.5  8     0     1001.8   NA       0.0000   9000     300   0     0    
2019/06/02  17:43:00  BASE  0        42   0.81732  341  -3.5  100   -3.5  8     0     1001.8   NA       0.0000   9000     300   0     0    
2019/06/02  17:44:00  BASE  0        94   0.75852  352  -3.5  100   -3.5  8     0     1001.8   NA       0.0000   8000     260   0     0    
2019/06/02  17:45:00  BASE  0        162  0        M    -3.5  100   -3.5  8     0     1001.8   NA       0.0000   7000     0     0     0    
2019/06/02  17:46:00  BASE  0        169  0        M    -3.5  100   -3.5  8     0     1001.8   NA       0.0000   UP       6000  0     0    
2019/06/02  17:47:00  BASE  0        181  0        M    -3.5  100   -3.5  7     0     1001.8   NA       0.0000   UP       BR    3700  0    
2019/06/02  17:48:00  BASE  0        182  0        M    -3.5  100   -3.5  7     0     1001.8   NA       0.0000   UP       BR    2700  0    
2019/06/02  17:49:00  BASE  0        165  0        M    -3.5  100   -3.5  7     0     1001.8   NA       0.0000   -SN      BR    2800  0    
2019/06/02  17:50:00  BASE  0        134  0        M    -3.5  100   -3.5  7     0     1001.8   NA       0.0000   -SN      BR    3200  0    
2019/06/02  17:51:00  BASE  0        101  0        M    -3.5  100   -3.5  7     0     1001.8   NA       0.0000   -SN      BR    3900  0    
2019/06/02  17:52:01  BASE  0        72   0        M    -3.5  100   -3.5  7     0     1001.7   NA       0.0000   -SN      BR    4000  0    
2019/06/02  17:53:00  BASE  0        49   0        M    -3.5  100   -3.5  7     0     1001.7   NA       0.0000   -SN      BR    3900  0    
2019/06/02  17:54:00  BASE  0        28   0        M    -3.5  100   -3.5  6     0     1001.7   NA       0.0000   -SN      BR    4200  0    
2019/06/02  17:55:00  BASE  0        357  0        M    -3.5  100   -3.5  6     0     1001.7   NA       0.0000   -SN      BR    4700  0    
2019/06/02  17:56:00  BASE  0        347  0        M    -3.5  100   -3.5  6     0     1001.7   NA       0.0000   -SN      BR    4600  0    
2019/06/02  17:57:00  BASE  0        37   0        M    -3.5  100   -3.5  6     0     1001.7   NA       0.0000   -SN      BR    4900  0    
2019/06/02  17:58:00  BASE  0        103  0        M    -3.5  100   -3.5  6     0     1001.7   NA       0.0000   -SN      BR    7000  0    
2019/06/02  17:59:00  BASE  0.11172  95   0.69384  85   -3.5  100   -3.5  5     0     1001.7   NA       0.0000   -SN      BR    8000  260  
2019/06/02  18:00:00  BASE  0.46452  85   0.81732  88   -3.5  100   -3.5  5     0     1001.7   NA       0.0000   -SN      BR    8000  0    
2019/06/02  18:01:00  BASE  0.77616  86   0.90552  74   -3.5  100   -3.5  5     0     1001.7   NA       0.0000   -SN      BR    8000  0    
2019/06/02  18:02:00  BASE  0.71148  71   0.90552  74   -3.5  100   -3.5  4     0     1001.8   NA       0.0000   -SN      BR    7000  0    
2019/06/02  18:03:00  BASE  0.37632  53   0.90552  74   -3.6  100   -3.6  4     0     1001.8   NA       0.0000   -SN      BR    7000  0    
2019/06/02  18:04:00  BASE  0.55272  29   1.0878   214  -3.6  100   -3.6  4     0     1001.7   NA       0.0000   -SN      BR    8000  0    
2019/06/02  18:05:00  BASE  0.81732  337  1.0878   289  -3.6  100   -3.6  4     0     1001.7   NA       0.0000   -SN      BR    9999  0    
2019/06/02  18:06:00  BASE  0.3528   341  1.0878   289  -3.6  100   -3.6  4     0     1001.7   NA       0.0000   -SN      BR    8000  0    
2019/06/02  18:07:00  BASE  0.0294   11   1.0878   289  -3.5  100   -3.5  4     0     1001.7   NA       0.0000   -SN      BR    5000  0    
2019/06/02  18:08:00  BASE  0.2352   15   1.0878   8    -3.5  100   -3.5  4     0     1001.7   NA       0.0000   -SN      BR    4300  0    
2019/06/02  18:09:00  BASE  0.66444  10   1.29948  360  -3.5  100   -3.5  3     0     1001.7   NA       0.0000   -SN      BR    5000  0    
2019/06/02  18:10:00  BASE  0.88788  12   1.29948  360  -3.5  100   -3.5  3     0     1001.7   NA       0.0000   -SN      BR    6000  0    
2019/06/02  18:11:00  BASE  0.92904  23   1.29948  360  -3.5  100   -3.5  3     0     1001.7   NA       0.0000   -SN      BR    5000  0    
2019/06/02  18:12:00  BASE  0.80556  26   1.29948  360  -3.5  100   -3.5  3     0     1001.7   NA       0.0000   -SN      BR    5000  0    
2019/06/02  18:13:00  BASE  0.31164  34   1.29948  360  -3.5  100   -3.5  3     0     1001.7   NA       0.0000   -SN      BR    4900  0    
2019/06/02  18:14:00  BASE  0        38   1.29948  360  -3.5  100   -3.5  3     0     1001.7   NA       0.0000   -SN      BR    4100  0    
2019/06/02  18:15:00  BASE  0.16464  35   1.29948  360  -3.5  100   -3.5  3     0     1001.6   NA       0.0000   -SN      BR    3600  0    
2019/06/02  18:16:00  BASE  0.46452  32   1.29948  360  -3.5  100   -3.5  3     0     1001.6   NA       0.0000   -SN      BR    2800  0    
2019/06/02  18:17:00  BASE  0.71736  19   1.29948  360  -3.5  100   -3.5  3     0     1001.6   NA       0.0000   -SN      BR    3000  0    
2019/06/02  18:18:00  BASE  0.68208  24   1.29948  360  -3.5  100   -3.5  3     0     1001.6   NA       0.0000   -SN      BR    4400  0    
2019/06/02  18:19:00  BASE  0.71736  40   1.1466   19   -3.5  100   -3.5  3     0     1001.6   NA       0.0000   -SN      BR    4900  0    
2019/06/02  18:20:00  BASE  0.84084  40   1.1172   29   -3.5  100   -3.5  3     0     1001.6   NA       0.0000   -SN      BR    5000  0    
2019/06/02  18:21:00  BASE  0.72324  42   0.9996   42   -3.4  100   -3.4  3     0     1001.6   NA       0.0000   -SN      BR    4900  0    
2019/06/02  18:22:00  BASE  0.68796  41   0.9996   42   -3.4  100   -3.4  3     0     1001.6   NA       0.0000   -SN      BR    4700  0    
2019/06/02  18:23:00  BASE  0.735    29   0.9996   42   -3.4  100   -3.4  2     0     1001.6   NA       0.0000   -SN      BR    5000  0    
2019/06/02  18:24:00  BASE  0.8526   11   1.029    360  -3.4  100   -3.4  2     0     1001.6   NA       0.0000   -SN      BR    5000  0    
2019/06/02  18:25:00  BASE  0.74676  0    1.029    360  -3.4  100   -3.4  2     0     1001.6   NA       0.0000   -SN      BR    5000  0    
2019/06/02  18:26:00  BASE  0.65856  5    1.029    360  -3.4  100   -3.4  2     0     1001.7   NA       0.0000   -SN      BR    5000  0    
2019/06/02  18:27:00  BASE  0.48804  11   1.029    360  -3.4  100   -3.4  2     0     1001.6   NA       0.0000   -SN      BR    5000  0    
2019/06/02  18:28:00  BASE  0.12936  2    1.029    360  -3.4  100   -3.4  2     0     1001.6   NA       0.0000   -SN      BR    5000  0    
2019/06/02  18:29:00  BASE  0.02352  347  1.029    360  -3.4  100   -3.4  2     0     1001.6   NA       0.0000   -SN      BR    7000  0    
2019/06/02  18:30:00  BASE  0        341  1.029    360  -3.4  100   -3.4  2     0     1001.6   NA       0.0000   -SN      BR    9999  260  
2019/06/02  18:31:00  BASE  0        339  1.029    360  -3.4  100   -3.4  2     0     1001.6   NA       0.0000   -SN      BR    9999  300  
2019/06/02  18:32:00  BASE  0        339  1.029    360  -3.4  100   -3.4  3     0     1001.6   NA       0.0000   BR       9999  330   0    
2019/06/02  18:33:00  BASE  0        352  1.029    360  -3.4  100   -3.4  3     0     1001.6   NA       0.0000   BR       9999  360   0    
2019/06/02  18:34:00  BASE  0        50   0.90552  1    -3.4  100   -3.4  3     0     1001.6   NA       0.0000   BR       9999  430   0    
2019/06/02  18:35:00  BASE  0        86   0.84672  9    -3.4  100   -3.4  3     0     1001.6   NA       0.0000   BR       9999  430   0    
2019/06/02  18:36:01  BASE  0        90   0.63504  10   -3.4  100   -3.4  3     0     1001.6   NA       0.0000   BR       9999  430   0    
2019/06/02  18:37:00  BASE  0        97   0.60564  345  -3.4  100   -3.4  3     0     1001.6   NA       0.0000   9999     430   0     0    
2019/06/02  18:38:01  BASE  0.14112  104  1.27008  189  -3.4  100   -3.4  3     0     1001.6   NA       0.0000   9999     490   0     0    
2019/06/02  18:39:00  BASE  0.7938   164  1.63464  190  -3.4  100   -3.4  3     0     1001.6   NA       0.0000   9999     520   0     0    
2019/06/02  18:40:00  BASE  1.4112   208  1.84632  211  -3.4  100   -3.4  3     0     1001.6   NA       0.0000   9999     490   0     0    
2019/06/02  18:41:00  BASE  1.45236  215  1.84632  211  -3.3  100   -3.3  3     0     1001.6   NA       0.0000   9999     430   0     0    
2019/06/02  18:42:00  BASE  1.2642   214  1.84632  211  -3.3  100   -3.3  3     0     1001.6   NA       0.0000   9999     430   0     0    
2019/06/02  18:43:00  BASE  1.3524   208  1.93452  212  -3.2  100   -3.2  3     0     1001.6   NA       0.0000   9999     430   0     0    
2019/06/02  18:44:00  BASE  1.63464  207  1.93452  212  -3.2  100   -3.2  3     0     1001.6   NA       0.0000   9999     390   0     0    
2019/06/02  18:45:00  BASE  1.74048  208  2.0286   216  -3.2  100   -3.2  3     0     1001.6   NA       0.0000   9999     360   0     0    
2019/06/02  18:46:01  BASE  1.81692  213  2.0286   216  -3.1  100   -3.1  3     0     1001.6   NA       0.0000   9999     390   0     0    
2019/06/02  18:47:00  BASE  1.68168  218  2.0286   216  -3.1  100   -3.1  2     0     1001.6   NA       0.0000   9999     360   0     0    
2019/06/02  18:48:00  BASE  1.57584  215  2.0286   216  -3.1  100   -3.1  2     0     1001.6   NA       0.0000   9999     390   0     0    
2019/06/02  18:49:00  BASE  1.72284  211  2.0286   216  -3.1  100   -3.1  2     0     1001.6   NA       0.0000   9999     330   0     0    
2019/06/02  18:50:00  BASE  1.69344  213  2.0286   216  -3.1  100   -3.1  2     0     1001.6   NA       0.0000   9999     360   0     0    
2019/06/02  18:51:00  BASE  1.4994   213  2.0286   216  -3.1  100   -3.1  2     0     1001.5   NA       0.0000   9999     330   0     0    
2019/06/02  18:52:01  BASE  1.33476  212  2.0286   216  -3.1  100   -3.1  2     0     1001.6   NA       0.0000   9999     330   0     0    
2019/06/02  18:53:00  BASE  1.30536  214  2.0286   216  -3.1  100   -3.1  2     0     1001.6   NA       0.0000   9999     330   0     0    
2019/06/02  18:54:00  BASE  1.31712  215  2.0286   216  -3.1  100   -3.1  2     0     1001.6   NA       0.0000   9999     300   0     0    
2019/06/02  18:55:00  BASE  1.15836  213  1.96392  215  -3.1  100   -3.1  1     0     1001.6   NA       0.0000   9999     300   0     0    
2019/06/02  18:56:00  BASE  0.95844  216  1.93452  209  -3.1  100   -3.1  1     0     1001.5   NA       0.0000   9999     360   0     0    
2019/06/02  18:57:00  BASE  0.78792  216  1.93452  209  -3.1  100   -3.1  1     0     1001.5   NA       0.0000   9999     360   0     0    
2019/06/02  18:58:00  BASE  0.3528   216  1.93452  209  -3.1  100   -3.1  1     0     1001.5   NA       0.0000   9999     360   0     0    
2019/06/02  18:59:00  BASE  0        214  1.75224  210  -3.1  100   -3.1  1     0     1001.5   NA       0.0000   9999     430   0     0    
2019/06/02  19:00:00  BASE  0.05292  213  1.57584  211  -3.1  100   -3.1  1     0     1001.5   NA       0.0000   9999     430   0     0    
2019/06/02  19:01:00  BASE  0.05292  222  1.51116  212  -3.1  100   -3.1  1     0     1001.5   NA       0.0000   9999     430   0     0    
2019/06/02  19:02:01  BASE  0        235  1.48176  213  -3.1  100   -3.1  1     0     1001.5   NA       0.0000   9999     430   0     0    
2019/06/02  19:03:00  BASE  0        242  1.35828  214  -3.1  100   -3.1  1     0     1001.5   NA       0.0000   9999     390   0     0    
2019/06/02  19:04:01  BASE  0        254  1.21128  212  -3.1  100   -3.1  1     0     1001.4   NA       0.0000   9999     360   0     0    
2019/06/02  19:05:01  BASE  0        290  0.93492  219  -3.1  100   -3.1  0     0     1001.4   NA       0.0000   9999     360   0     0    
2019/06/02  19:06:00  BASE  0        318  0.84672  217  -3.1  100   -3.1  0     0     1001.4   NA       0.0000   9999     430   0     0    
2019/06/02  19:07:00  BASE  0        318  0.63504  217  -3.2  100   -3.2  0     0     1001.4   NA       0.0000   9999     490   0     0    
2019/06/02  19:08:00  BASE  0        316  0.63504  217  -3.2  100   -3.2  0     0     1001.4   NA       0.0000   9999     490   0     0    
2019/06/02  19:09:00  BASE  0        322  0.63504  217  -3.2  100   -3.2  0     0     1001.4   NA       0.0000   9999     430   0     0    
2019/06/02  19:10:00  BASE  0.0882   248  0.72324  204  -3.2  100   -3.2  0     0     1001.4   NA       0.0000   9999     360   0     0    
2019/06/02  19:11:00  BASE  0.0882   250  0.72324  204  -3.2  100   -3.2  0     0     1001.4   NA       0.0000   9999     460   0     0    
2019/06/02  19:12:00  BASE  0        271  0.72324  204  -3.2  100   -3.2  0     0     1001.4   NA       0.0000   9999     490   0     0    
2019/06/02  19:13:00  BASE  0.16464  237  0.75852  254  -3.1  100   -3.1  0     0     1001.4   NA       0.0000   9999     490   0     0    
2019/06/02  19:14:00  BASE  0.32928  251  0.75852  254  -3.1  100   -3.1  0     0     1001.4   NA       0.0000   9999     490   0     0    
2019/06/02  19:15:01  BASE  0.15876  253  0.75852  254  -3.1  100   -3.1  0     0     1001.4   NA       0.0000   9999     490   0     0    
2019/06/02  19:16:00  BASE  0        249  0.75852  254  -3.1  100   -3.1  0     0     1001.4   NA       0.0000   9999     490   0     0    
2019/06/02  19:17:00  BASE  0        224  0.75852  254  -3.1  100   -3.1  0     0     1001.4   NA       0.0000   9999     490   0     0    
2019/06/02  19:18:00  BASE  0        209  0.75852  254  -3.1  100   -3.1  0     0     1001.4   NA       0.0000   9999     490   0     0    
2019/06/02  19:19:00  BASE  0        198  0.75852  254  -3.1  100   -3.1  0     0     1001.4   NA       0.0000   9999     490   0     0    
2019/06/02  19:20:00  BASE  0        182  0.75852  254  -3.1  100   -3.1  0     0     1001.4   NA       0.0000   9999     490   0     0    
2019/06/02  19:21:00  BASE  0        172  0.75852  254  -3.1  100   -3.1  0     0     1001.4   NA       0.0000   9999     560   0     0    
2019/06/02  19:22:00  BASE  0        146  0.75852  254  -3.1  100   -3.1  0     0     1001.4   NA       0.0000   9999     560   0     0    
2019/06/02  19:23:00  BASE  0        69   0.72324  235  -3.1  100   -3.1  0     0     1001.4   NA       0.0000   9999     520   0     0    
2019/06/02  19:24:00  BASE  0        16   0        M    -3.1  100   -3.1  0     0     1001.4   NA       0.0000   9999     560   0     0    
2019/06/02  19:25:00  BASE  0        18   0        M    -3.1  100   -3.1  0     0     1001.4   NA       0.0000   9999     590   0     0    
2019/06/02  19:26:00  BASE  0        64   0        M    -3.1  100   -3.1  0     0     1001.3   NA       0.0000   9999     590   0     0    
2019/06/02  19:27:00  BASE  0        236  0        M    -3.2  100   -3.2  0     0     1001.3   NA       0.0000   9999     590   0     0    
2019/06/02  19:28:00  BASE  0        282  0        M    -3.2  100   -3.2  0     0     1001.3   NA       0.0000   9999     590   0     0    
2019/06/02  19:29:00  BASE  0        77   0        M    -3.2  100   -3.2  0     0     1001.3   NA       0.0000   9999     590   0     0    
2019/06/02  19:30:00  BASE  0        76   0        M    -3.2  100   -3.2  0     0     1001.3   NA       0.0000   9999     560   0     0    
2019/06/02  19:31:00  BASE  0.27636  67   0.69384  45   -3.2  100   -3.2  0     0     1001.3   NA       0.0000   9999     590   0     0    
2019/06/02  19:32:00  BASE  0.45864  46   0.69384  45   -3.2  100   -3.2  0     0     1001.3   NA       0.0000   9999     590   0     0    
2019/06/02  19:33:00  BASE  0.48216  30   0.93492  11   -3.2  100   -3.2  0     0     1001.3   NA       0.0000   9999     460   0     0    
2019/06/02  19:34:00  BASE  0.32928  21   0.93492  11   -3.2  100   -3.2  0     0     1001.3   NA       0.0000   9999     520   0     0    
2019/06/02  19:35:00  BASE  0.0294   55   0.93492  11   -3.2  100   -3.2  0     0     1001.3   NA       0.0000   9999     520   0     0    
2019/06/02  19:36:00  BASE  0        70   0.93492  11   -3.2  100   -3.2  0     0     1001.3   NA       0.0000   9999     660   0     0    
2019/06/02  19:37:00  BASE  0        62   0.93492  11   -3.2  100   -3.2  0     0     1001.3   NA       0.0000   9999     690   0     0    
2019/06/02  19:38:00  BASE  0.11172  78   0.93492  11   -3.2  100   -3.2  0     0     1001.3   NA       0.0000   9999     660   0     0    
2019/06/02  19:39:00  BASE  0.11172  98   0.93492  11   -3.2  100   -3.2  0     0     1001.3   NA       0.0000   9999     590   0     0    
2019/06/02  19:40:00  BASE  0        91   0.93492  11   -3.2  100   -3.2  0     0     1001.3   NA       0.0000   9999     560   0     0    
2019/06/02  19:41:00  BASE  0        59   0.93492  11   -3.2  100   -3.2  0     0     1001.3   NA       0.0000   9999     590   0     0    
2019/06/02  19:42:00  BASE  0.0588   41   0.93492  11   -3.2  100   -3.2  0     0     1001.3   NA       0.0000   9999     520   0     0    
2019/06/02  19:43:00  BASE  0.21756  40   0.84672  44   -3.2  100   -3.2  0     0     1001.3   NA       0.0000   9999     690   0     0    
2019/06/02  19:44:00  BASE  0.47628  40   0.84672  39   -3.2  100   -3.2  0     0     1001.3   NA       0.0000   9999     660   0     0    
2019/06/02  19:45:00  BASE  0.42924  2    0.84672  39   -3.2  100   -3.2  0     0     1001.3   NA       0.0000   9999     690   0     0    
2019/06/02  19:46:00  BASE  0.33516  309  1.18188  309  -3.2  100   -3.2  0     0     1001.3   NA       0.0000   9999     620   0     0    
2019/06/02  19:47:00  BASE  0.75852  275  1.69344  264  -3.2  100   -3.2  0     0     1001.3   NA       0.0000   9999     660   0     0    
2019/06/02  19:48:00  BASE  1.2054   237  1.69344  264  -3.2  100   -3.2  0     0     1001.3   NA       0.0000   9999     690   0     0    
2019/06/02  19:49:00  BASE  1.37004  236  1.84632  241  -3.2  100   -3.2  0     0     1001.3   NA       0.0000   9999     690   0     0    
2019/06/02  19:50:00  BASE  1.56408  233  2.21088  222  -3.1  100   -3.1  0     0     1001.3   NA       0.0000   9999     690   0     0    
2019/06/02  19:51:00  BASE  1.5582   215  2.21088  222  -3.1  100   -3.1  0     0     1001.3   NA       0.0000   9999     690   0     0    
2019/06/02  19:52:00  BASE  1.44648  210  2.21088  222  -3.0  100   -3.0  0     0     1001.3   NA       0.0000   9999     660   0     0    
2019/06/02  19:53:00  BASE  1.617    218  2.21088  222  -3.0  100   -3.0  0     0     1001.3   NA       0.0000   9999     620   0     0    
2019/06/02  19:54:00  BASE  1.617    225  2.21088  222  -3.0  100   -3.0  0     0     1001.3   NA       0.0000   9999     660   0     0    
2019/06/02  19:55:00  BASE  1.3818   238  2.21088  222  -3.0  100   -3.0  0     0     1001.3   NA       0.0000   9999     660   0     0    
2019/06/02  19:56:00  BASE  1.58172  247  2.21088  222  -3.0  100   -3.0  0     0     1001.3   NA       0.0000   9999     460   0     0    
2019/06/02  19:57:00  BASE  1.92276  249  2.21088  222  -3.0  100   -3.0  0     0     1001.3   NA       0.0000   9999     590   0     0    
2019/06/02  19:58:00  BASE  2.0874   246  2.35788  245  -3.0  100   -3.0  0     0     1001.3   NA       0.0000   9999     660   0     0    
2019/06/02  19:59:00  BASE  2.06976  247  2.35788  245  -2.9  100   -2.9  0     0     1001.3   NA       0.0000   9999     660   0     0    
2019/06/02  20:00:00  BASE  2.19324  254  2.84592  249  -2.9  100   -2.9  0     0     1001.3   NA       0.0000   9999     690   0     0    
2019/06/02  20:01:00  BASE  2.45196  251  2.93412  242  -2.9  100   -2.9  0     0     1001.3   NA       0.0000   9999     720   0     0    
2019/06/02  20:02:01  BASE  2.56368  244  3.1458   235  -2.9  100   -2.9  0     0     1001.4   NA       0.0000   9999     430   0     0    
2019/06/02  20:03:00  BASE  2.57544  245  3.1458   235  -2.9  100   -2.9  0     0     1001.4   NA       0.0000   9999     560   0     0    
2019/06/02  20:04:00  BASE  2.39904  246  3.1458   235  -2.9  100   -2.9  0     0     1001.4   NA       0.0000   9999     690   0     0    
2019/06/02  20:05:00  BASE  2.40492  248  3.1458   235  -2.9  100   -2.9  0     0     1001.4   NA       0.0000   9999     660   0     0    
2019/06/02  20:06:00  BASE  2.24028  252  3.1458   235  -2.9  100   -2.9  0     0     1001.4   NA       0.0000   9999     590   0     0    
2019/06/02  20:07:00  BASE  2.2932   251  3.1458   235  -2.9  100   -2.9  0     0     1001.3   NA       0.0000   9999     560   0     0    
2019/06/02  20:08:00  BASE  2.49312  243  3.1458   235  -2.9  100   -2.9  0     0     1001.3   NA       0.0000   9999     720   0     0    
2019/06/02  20:09:00  BASE  2.19912  233  3.1458   235  -2.9  100   -2.9  0     0     1001.4   NA       0.0000   9999     690   0     0    
2019/06/02  20:10:00  BASE  2.0874   227  3.1458   235  -2.9  100   -2.9  0     0     1001.3   NA       0.0000   9999     590   0     0    
2019/06/02  20:11:00  BASE  2.12856  229  3.1458   235  -2.9  100   -2.9  0     0     1001.3   NA       0.0000   9999     620   0     0    
2019/06/02  20:12:01  BASE  1.78164  235  2.87532  244  -2.9  100   -2.9  0     0     1001.3   NA       0.0000   9999     660   0     0    
2019/06/02  20:13:00  BASE  1.80516  239  2.87532  244  -2.9  100   -2.9  0     0     1001.3   NA       0.0000   9999     560   0     0    
2019/06/02  20:14:00  BASE  2.10504  242  2.87532  244  -2.9  100   -2.9  0     0     1001.3   NA       0.0000   9999     660   0     0    
2019/06/02  20:15:00  BASE  2.22852  251  3.1164   251  -2.9  100   -2.9  0     0     1001.3   NA       0.0000   9999     660   0     0    
2019/06/02  20:16:00  BASE  2.46372  249  3.1164   251  -2.9  100   -2.9  0     0     1001.3   NA       0.0000   9999     520   0     0    
2019/06/02  20:17:01  BASE  2.45196  240  3.1164   251  -2.9  100   -2.9  0     0     1001.3   NA       0.0000   9999     430   0     0    
2019/06/02  20:18:00  BASE  2.38728  242  3.1164   251  -2.9  100   -2.9  0     0     1001.3   NA       0.0000   9999     460   0     0    
2019/06/02  20:19:00  BASE  2.25792  247  3.1164   251  -2.9  100   -2.9  0     0     1001.3   NA       0.0000   9999     490   0     0    
2019/06/02  20:20:00  BASE  2.13444  244  3.1164   251  -2.9  100   -2.9  0     0     1001.3   NA       0.0000   9999     520   0     0    
2019/06/02  20:21:00  BASE  2.24616  241  3.1164   251  -2.9  100   -2.9  0     0     1001.3   NA       0.0000   9999     520   0     0    
2019/06/02  20:22:00  BASE  2.13444  246  3.1164   251  -2.9  100   -2.9  0     0     1001.3   NA       0.0000   9999     490   0     0    
2019/06/02  20:23:00  BASE  1.96392  245  3.1164   251  -2.9  100   -2.9  0     0     1001.3   NA       0.0000   9999     690   0     0    
2019/06/02  20:24:00  BASE  2.15796  240  3.1164   251  -2.9  100   -2.9  0     0     1001.3   NA       0.0000   9999     620   0     0    
2019/06/02  20:25:00  BASE  2.48724  240  2.93412  231  -2.9  100   -2.9  0     0     1001.4   NA       0.0000   9999     360   0     0    
2019/06/02  20:26:00  BASE  2.4402   236  2.87532  243  -2.9  100   -2.9  0     0     1001.3   NA       0.0000   9999     660   0     0    
2019/06/02  20:27:00  BASE  2.13444  231  2.87532  243  -2.9  100   -2.9  0     0     1001.4   NA       0.0000   9999     690   0     0    
2019/06/02  20:28:01  BASE  2.28144  232  3.62796  227  -2.9  100   -2.9  0     0     1001.4   NA       0.0000   9999     690   0     0    
2019/06/02  20:29:00  BASE  2.93412  228  3.78084  223  -2.9  100   -2.9  0     0     1001.4   NA       0.0000   9999     660   0     0    
2019/06/02  20:30:00  BASE  3.01056  226  3.78084  223  -2.9  100   -2.9  0     0     1001.4   NA       0.0000   9999     660   0     0    
2019/06/02  20:31:00  BASE  2.48136  234  3.78084  223  -2.9  100   -2.9  0     0     1001.4   NA       0.0000   9999     690   0     0    
2019/06/02  20:32:00  BASE  2.09916  242  3.78084  223  -2.9  100   -2.9  0     0     1001.4   NA       0.0000   9999     750   0     0    
2019/06/02  20:33:00  BASE  2.52252  240  3.78084  223  -2.9  100   -2.9  0     0     1001.3   NA       0.0000   9999     460   0     0    
2019/06/02  20:34:01  BASE  2.81652  233  3.78084  223  -2.9  100   -2.9  0     0     1001.4   NA       0.0000   9999     390   0     0    
2019/06/02  20:35:00  BASE  3.03996  230  4.263    231  -2.9  100   -2.9  0     0     1001.3   NA       0.0000   9999     690   0     0    
2019/06/02  20:36:00  BASE  3.56916  228  4.263    231  -2.9  100   -2.9  0     0     1001.3   NA       0.0000   9999     660   0     0    
2019/06/02  20:37:00  BASE  3.0576   233  4.263    231  -2.9  100   -2.9  0     0     1001.4   NA       0.0000   9999     460   0     0    
2019/06/02  20:38:01  BASE  2.44608  234  4.263    231  -2.9  100   -2.9  0     0     1001.4   NA       0.0000   9999     490   0     0    
2019/06/02  20:39:00  BASE  2.16384  231  4.263    231  -2.9  100   -2.9  0     0     1001.4   NA       0.0000   9999     620   0     0    
2019/06/02  20:40:00  BASE  1.75812  232  4.263    231  -3.0  100   -3.0  0     0     1001.4   NA       0.0000   9999     690   0     0    
2019/06/02  20:41:00  BASE  1.51704  236  4.263    231  -3.0  100   -3.0  0     0     1001.4   NA       0.0000   9999     690   0     0    
2019/06/02  20:42:00  BASE  1.71108  254  4.263    231  -3.0  100   -3.0  0     0     1001.4   NA       0.0000   9999     620   0     0    
2019/06/02  20:43:00  BASE  2.21088  270  4.263    231  -3.0  100   -3.0  0     0     1001.4   NA       0.0000   9999     560   0     0    
2019/06/02  20:44:00  BASE  2.80476  262  4.263    231  -2.9  100   -2.9  0     0     1001.4   NA       0.0000   9999     490   0     0    
2019/06/02  20:45:00  BASE  2.84592  254  4.1454   229  -2.9  100   -2.9  0     0     1001.4   NA       0.0000   9999     390   0     0    
2019/06/02  20:46:00  BASE  2.63424  257  3.59856  256  -2.9  100   -2.9  0     0     1001.4   NA       0.0000   9999     520   0     0    
2019/06/02  20:47:00  BASE  2.78124  254  3.59856  256  -2.9  100   -2.9  0     0     1001.4   NA       0.0000   9999     460   0     0    
2019/06/02  20:48:01  BASE  2.71068  245  3.59856  256  -2.9  100   -2.9  0     0     1001.3   NA       0.0000   9999     460   0     0    
2019/06/02  20:49:00  BASE  2.55192  239  3.59856  256  -2.9  100   -2.9  0     0     1001.4   NA       0.0000   9999     590   0     0    
2019/06/02  20:50:00  BASE  2.646    247  3.59856  256  -2.9  100   -2.9  0     0     1001.3   NA       0.0000   9999     460   0     0    
2019/06/02  20:51:00  BASE  2.69304  260  3.59856  256  -2.9  100   -2.9  0     0     1001.3   NA       0.0000   9999     360   0     0    
2019/06/02  20:52:01  BASE  2.352    267  3.59856  256  -2.9  100   -2.9  0     0     1001.3   NA       0.0000   9999     460   0     0    
2019/06/02  20:53:00  BASE  2.2932   274  3.59856  256  -2.9  100   -2.9  0     0     1001.3   NA       0.0000   9999     490   0     0    
2019/06/02  20:54:00  BASE  2.66364  276  3.29868  257  -2.9  100   -2.9  0     0     1001.3   NA       0.0000   9999     490   0     0    
2019/06/02  20:55:00  BASE  2.56956  270  3.29868  257  -2.9  100   -2.9  0     0     1001.3   NA       0.0000   9999     520   0     0    
2019/06/02  20:56:00  BASE  2.31672  268  3.29868  257  -2.9  100   -2.9  0     0     1001.3   NA       0.0000   9999     560   0     0    
2019/06/02  20:57:00  BASE  1.98156  270  3.29868  257  -2.9  100   -2.9  0     0     1001.3   NA       0.0000   9999     560   0     0    
2019/06/02  20:58:00  BASE  1.8522   262  3.29868  257  -2.9  100   -2.9  0     0     1001.3   NA       0.0000   9999     560   0     0    
2019/06/02  20:59:00  BASE  2.22852  253  3.29868  257  -2.9  100   -2.9  0     0     1001.3   NA       0.0000   9999     620   0     0    
2019/06/02  21:00:00  BASE  2.59308  240  3.41628  229  -2.9  100   -2.9  0     0     1001.3   NA       0.0000   9999     620   0     0    
2019/06/02  21:01:00  BASE  2.63424  233  3.41628  229  -2.9  100   -2.9  0     0     1001.3   NA       0.0000   9999     460   0     0    
2019/06/02  21:02:00  BASE  2.7342   243  3.48096  255  -2.9  100   -2.9  0     0     1001.3   NA       0.0000   9999     620   0     0    
2019/06/02  21:03:00  BASE  3.21636  249  4.02192  255  -2.9  100   -2.9  0     0     1001.3   NA       0.0000   9999     620   0     0    
2019/06/02  21:04:00  BASE  3.09876  247  4.02192  255  -2.9  100   -2.9  0     0     1001.3   NA       0.0000   9999     330   0     0    
2019/06/02  21:05:00  BASE  2.8812   250  4.02192  255  -3.0  100   -3.0  0     0     1001.3   NA       0.0000   9999     490   0     0    
2019/06/02  21:06:00  BASE  3.18696  253  4.02192  255  -3.0  100   -3.0  0     0     1001.3   NA       0.0000   9999     520   0     0    
2019/06/02  21:07:00  BASE  3.58092  252  4.02192  255  -3.0  100   -3.0  0     0     1001.2   NA       0.0000   9999     360   0     0    
2019/06/02  21:08:00  BASE  3.6456   250  4.02192  255  -3.0  100   -3.0  0     0     1001.3   NA       0.0000   9999     430   0     0    
2019/06/02  21:09:00  BASE  3.15168  251  4.02192  255  -2.9  100   -2.9  0     0     1001.3   NA       0.0000   9999     560   0     0    
2019/06/02  21:10:00  BASE  2.83416  258  4.02192  255  -2.9  100   -2.9  0     0     1001.3   NA       0.0000   9999     460   0     0    
2019/06/02  21:11:00  BASE  2.6754   263  4.02192  255  -2.9  100   -2.9  0     0     1001.3   NA       0.0000   9999     590   0     0    
2019/06/02  21:12:00  BASE  2.52252  258  4.02192  255  -2.9  100   -2.9  0     0     1001.3   NA       0.0000   9999     490   0     0    
2019/06/02  21:13:00  BASE  2.43432  250  3.93372  248  -2.9  100   -2.9  0     0     1001.3   NA       0.0000   9999     660   0     0    
2019/06/02  21:14:00  BASE  2.49312  244  3.93372  248  -2.9  100   -2.9  0     0     1001.3   NA       0.0000   9999     490   0     0    
2019/06/02  21:15:00  BASE  2.7636   236  3.93372  248  -2.9  100   -2.9  0     0     1001.3   NA       0.0000   9999     390   0     0    
2019/06/02  21:16:00  BASE  2.74008  236  3.93372  248  -2.9  100   -2.9  0     0     1001.3   NA       0.0000   9999     360   0     0    
2019/06/02  21:17:00  BASE  2.29908  235  3.78084  246  -2.9  100   -2.9  0     0     1001.3   NA       0.0000   9999     460   0     0    
2019/06/02  21:18:00  BASE  2.16972  229  3.38688  246  -2.9  100   -2.9  0     0     1001.3   NA       0.0000   9999     490   0     0    
2019/06/02  21:19:00  BASE  2.48724  223  3.1752   232  -2.9  100   -2.9  0     0     1001.4   NA       0.0000   9999     490   0     0    
2019/06/02  21:20:00  BASE  2.6754   223  3.1752   232  -2.9  100   -2.9  0     0     1001.4   NA       0.0000   9999     590   0     0    
2019/06/02  21:21:00  BASE  2.69304  228  3.1752   232  -2.9  100   -2.9  0     0     1001.4   NA       0.0000   9999     430   0     0    
2019/06/02  21:22:00  BASE  2.58132  239  3.59856  241  -2.9  100   -2.9  0     0     1001.4   NA       0.0000   9999     390   0     0    
2019/06/02  21:23:00  BASE  2.81064  242  3.59856  241  -2.9  100   -2.9  0     0     1001.3   NA       0.0000   9999     430   0     0    
2019/06/02  21:24:01  BASE  3.04584  243  3.59856  241  -2.9  100   -2.9  0     0     1001.4   NA       0.0000   9999     490   0     0    
2019/06/02  21:25:00  BASE  2.89296  245  3.59856  241  -2.9  100   -2.9  0     0     1001.4   NA       0.0000   9999     390   0     0    
2019/06/02  21:26:00  BASE  2.57544  237  3.59856  241  -2.9  100   -2.9  0     0     1001.4   NA       0.0000   9999     430   0     0    
2019/06/02  21:27:00  BASE  2.53428  231  3.59856  241  -2.9  100   -2.9  0     0     1001.4   NA       0.0000   9999     430   0     0    
2019/06/02  21:28:00  BASE  2.74596  229  3.59856  241  -2.9  100   -2.9  0     0     1001.4   NA       0.0000   9999     750   0     0    
2019/06/02  21:29:00  BASE  2.78712  227  3.59856  241  -2.9  100   -2.9  0     0     1001.4   NA       0.0000   9999     720   0     0    
2019/06/02  21:30:00  BASE  2.64012  227  3.59856  241  -2.9  100   -2.9  0     0     1001.4   NA       0.0000   9999     720   0     0    
2019/06/02  21:31:00  BASE  2.56956  223  3.59856  241  -2.9  100   -3.0  0     0     1001.4   NA       0.0000   9999     720   0     0    
2019/06/02  21:32:00  BASE  3.01056  221  3.56916  231  -3.0  100   -3.0  0     0     1001.4   NA       0.0000   9999     620   0     0    
2019/06/02  21:33:00  BASE  3.16344  219  3.53976  223  -3.0  100   -3.0  0     0     1001.4   NA       0.0000   9999     590   0     0    
2019/06/02  21:34:00  BASE  2.92824  216  3.53976  223  -3.0  100   -3.0  0     0     1001.4   NA       0.0000   9999     460   0     0    
2019/06/02  21:35:00  BASE  2.75772  214  3.53976  223  -3.0  100   -3.0  0     0     1001.4   NA       0.0000   9999     660   0     0    
2019/06/02  21:36:00  BASE  2.59308  217  3.53976  223  -3.0  100   -3.0  0     0     1001.4   NA       0.0000   9999     620   0     0    
2019/06/02  21:37:00  BASE  2.65776  221  3.53976  223  -3.0  100   -3.0  0     0     1001.4   NA       0.0000   9999     560   0     0    
2019/06/02  21:38:00  BASE  2.63424  220  3.53976  223  -3.0  100   -3.0  0     0     1001.4   NA       0.0000   9999     750   0     0    
2019/06/02  21:39:00  BASE  2.4402   225  3.53976  223  -2.9  100   -2.9  0     0     1001.4   NA       0.0000   9999     720   0     0    
2019/06/02  21:40:00  BASE  2.5578   230  3.53976  223  -2.9  100   -2.9  0     0     1001.4   NA       0.0000   9999     430   0     0    
2019/06/02  21:41:00  BASE  2.45784  235  3.53976  223  -2.9  100   -2.9  0     0     1001.4   NA       0.0000   9999     490   0     0    
2019/06/02  21:42:00  BASE  2.1462   233  3.234    226  -2.9  100   -2.9  0     0     1001.4   NA       0.0000   9999     690   0     0    
2019/06/02  21:43:00  BASE  2.12268  228  3.2046   238  -2.9  100   -2.9  0     0     1001.4   NA       0.0000   9999     720   0     0    
2019/06/02  21:44:00  BASE  1.9698   224  3.2046   238  -2.9  100   -2.9  0     0     1001.4   NA       0.0000   9999     790   0     0    
2019/06/02  21:45:01  BASE  2.10504  215  3.2046   238  -3.0  100   -3.0  0     0     1001.4   NA       0.0000   9999     790   0     0    
2019/06/02  21:46:00  BASE  2.28144  209  3.2046   238  -3.0  100   -3.0  0     0     1001.4   NA       0.0000   9999     720   0     0    
2019/06/02  21:47:00  BASE  2.2932   211  3.2046   238  -3.0  100   -3.0  0     0     1001.4   NA       0.0000   9999     750   0     0    
2019/06/02  21:48:01  BASE  2.205    211  3.2046   238  -3.0  100   -3.0  0     0     1001.4   NA       0.0000   9999     750   0     0    
2019/06/02  21:49:00  BASE  1.90512  211  3.2046   238  -3.0  100   -3.0  0     0     1001.4   NA       0.0000   9999     790   0     0    
2019/06/02  21:50:00  BASE  1.91688  216  2.72244  206  -3.0  100   -3.0  0     0     1001.4   NA       0.0000   9999     660   0     0    
2019/06/02  21:51:00  BASE  2.1168   219  2.72244  206  -3.0  100   -3.0  0     0     1001.4   NA       0.0000   9999     690   0     0    
2019/06/02  21:52:01  BASE  2.1168   224  2.72244  206  -3.0  100   -3.0  0     0     1001.4   NA       0.0000   9999     520   0     0    
2019/06/02  21:53:00  BASE  2.04036  231  2.72244  206  -3.0  100   -3.0  0     0     1001.4   NA       0.0000   9999     790   0     0    
2019/06/02  21:54:01  BASE  2.03448  232  2.72244  206  -2.9  100   -2.9  0     0     1001.3   NA       0.0000   9999     750   0     0    
2019/06/02  21:55:00  BASE  1.85808  229  2.63424  210  -2.9  100   -2.9  0     0     1001.4   NA       0.0000   9999     750   0     0    
2019/06/02  21:56:00  BASE  1.71108  234  2.54016  214  -2.9  100   -2.9  0     0     1001.3   NA       0.0000   9999     720   0     0    
2019/06/02  21:57:00  BASE  2.25204  238  3.35748  251  -2.9  100   -2.9  0     0     1001.3   NA       0.0000   9999     690   0     0    
2019/06/02  21:58:00  BASE  2.7048   231  3.35748  251  -2.9  100   -2.9  0     0     1001.3   NA       0.0000   9999     690   0     0    
2019/06/02  21:59:00  BASE  2.45784  232  3.35748  251  -2.9  100   -2.9  0     0     1001.3   NA       0.0000   9999     520   0     0    
2019/06/02  22:00:00  BASE  2.02272  231  3.35748  251  -2.9  100   -2.9  0     0     1001.3   NA       0.0000   9999     360   0     0    
2019/06/02  22:01:00  BASE  1.81104  226  3.35748  251  -2.9  100   -2.9  0     0     1001.3   NA       0.0000   9999     460   0     0    
2019/06/02  22:02:00  BASE  1.77576  224  3.35748  251  -2.9  100   -2.9  0     0     1001.3   NA       0.0000   9999     520   0     0    
2019/06/02  22:03:00  BASE  1.61112  223  3.35748  251  -2.9  100   -2.9  0     0     1001.3   NA       0.0000   9999     560   0     0    
2019/06/02  22:04:00  BASE  1.69344  221  3.35748  251  -2.9  100   -2.9  0     0     1001.3   NA       0.0000   9999     590   0     0    
2019/06/02  22:05:00  BASE  1.98744  219  3.35748  251  -2.9  100   -2.9  0     0     1001.3   NA       0.0000   9999     560   0     0    
2019/06/02  22:06:00  BASE  2.19912  223  3.35748  251  -2.9  100   -2.9  0     0     1001.3   NA       0.0000   9999     520   0     0    
2019/06/02  22:07:00  BASE  2.30496  225  2.96352  226  -2.9  100   -2.9  0     0     1001.3   NA       0.0000   9999     590   0     0    
2019/06/02  22:08:01  BASE  2.26968  222  2.66364  219  -2.9  100   -2.9  0     0     1001.3   NA       0.0000   9999     520   0     0    
2019/06/02  22:09:00  BASE  2.26968  220  2.66364  219  -2.9  100   -2.9  0     0     1001.3   NA       0.0000   9999     360   0     0    
2019/06/02  22:10:00  BASE  2.52252  218  3.087    220  -2.8  100   -2.8  0     0     1001.3   NA       0.0000   9999     360   0     0    
2019/06/02  22:11:00  BASE  2.92824  218  3.29868  225  -2.8  100   -2.8  0     0     1001.3   NA       0.0000   9999     460   0     0    
2019/06/02  22:12:00  BASE  3.087    221  3.32808  232  -2.8  100   -2.8  0     0     1001.3   NA       0.0000   9999     560   0     0    
2019/06/02  22:13:00  BASE  3.01056  222  3.38688  221  -2.8  100   -2.8  0     0     1001.3   NA       0.0000   9999     430   0     0    
2019/06/02  22:14:00  BASE  2.8812   218  3.38688  221  -2.8  100   -2.8  0     0     1001.3   NA       0.0000   9999     360   0     0    
2019/06/02  22:15:00  BASE  2.5284   216  3.38688  221  -2.8  100   -2.8  0     0     1001.3   NA       0.0000   9999     460   0     0    
2019/06/02  22:16:00  BASE  2.40492  220  3.38688  221  -2.9  100   -2.9  0     0     1001.3   NA       0.0000   9999     590   0     0    
2019/06/02  22:17:00  BASE  2.51076  220  3.38688  221  -2.9  100   -2.9  0     0     1001.3   NA       0.0000   9999     360   0     0    
2019/06/02  22:18:00  BASE  2.35788  220  3.38688  221  -2.9  100   -2.9  0     0     1001.3   NA       0.0000   9999     430   0     0    
2019/06/02  22:19:00  BASE  2.24028  225  3.38688  221  -2.9  100   -2.9  0     0     1001.3   NA       0.0000   9999     430   0     0    
2019/06/02  22:20:00  BASE  2.43432  226  3.38688  221  -2.9  100   -2.9  0     0     1001.3   NA       0.0000   9999     560   0     0    
2019/06/02  22:21:00  BASE  2.48724  227  3.38688  221  -2.9  100   -2.9  0     0     1001.3   NA       0.0000   9999     390   0     0    
2019/06/02  22:22:00  BASE  2.42256  224  3.38688  221  -2.8  100   -2.8  0     0     1001.3   NA       0.0000   9999     490   0     0    
2019/06/02  22:23:00  BASE  2.47548  222  3.087    219  -2.8  100   -2.8  0     0     1001.2   NA       0.0000   9999     560   0     0    
2019/06/02  22:24:00  BASE  2.24616  226  3.0576   230  -2.8  100   -2.8  0     0     1001.2   NA       0.0000   9999     560   0     0    
2019/06/02  22:25:00  BASE  1.86984  241  3.0576   230  -2.8  100   -2.8  0     0     1001.3   NA       0.0000   9999     460   0     0    
2019/06/02  22:26:00  BASE  2.02272  258  3.0576   230  -2.8  100   -2.8  0     0     1001.2   NA       0.0000   9999     520   0     0    
2019/06/02  22:27:00  BASE  2.35788  262  3.0576   230  -2.8  100   -2.8  0     0     1001.2   NA       0.0000   9999     360   0     0    
2019/06/02  22:28:00  BASE  2.2932   266  3.0576   230  -2.8  100   -2.8  0     0     1001.2   NA       0.0000   9999     390   0     0    
2019/06/02  22:29:00  BASE  2.00508  266  3.0576   230  -2.8  100   -2.8  0     0     1001.2   NA       0.0000   9999     490   0     0    
2019/06/02  22:30:00  BASE  2.22264  263  3.0576   258  -2.7  100   -2.7  0     0     1001.2   NA       0.0000   9999     390   0     0    
2019/06/02  22:31:00  BASE  2.2638   261  3.0576   258  -2.7  100   -2.7  0     0     1001.2   NA       0.0000   9999     360   0     0    
2019/06/02  22:32:00  BASE  2.45784  255  3.35748  252  -2.7  100   -2.7  0     0     1001.2   NA       0.0000   9999     330   0     0    
2019/06/02  22:33:00  BASE  2.8518   252  3.35748  252  -2.7  100   -2.7  0     0     1001.2   NA       0.0000   9999     360   0     0    
2019/06/02  22:34:00  BASE  2.34612  257  3.35748  252  -2.7  100   -2.7  0     0     1001.2   NA       0.0000   9999     460   0     0    
2019/06/02  22:35:00  BASE  2.03448  262  3.35748  252  -2.8  100   -2.8  0     0     1001.2   NA       0.0000   9999     430   0     0    
2019/06/02  22:36:00  BASE  2.69892  257  3.78084  253  -2.8  100   -2.8  0     0     1001.1   NA       0.0000   9999     430   0     0    
2019/06/02  22:37:00  BASE  3.03996  254  3.78084  253  -2.8  100   -2.8  0     0     1001.1   NA       0.0000   9999     430   0     0    
2019/06/02  22:38:00  BASE  2.79888  261  3.78084  253  -2.8  100   -2.8  0     0     1001.1   NA       0.0000   9999     430   0     0    
2019/06/02  22:39:00  BASE  2.78712  263  3.78084  253  -2.8  100   -2.8  0     0     1001.1   NA       0.0000   9999     490   0     0    
2019/06/02  22:40:00  BASE  2.79888  263  3.78084  253  -2.8  100   -2.8  0     0     1001.1   NA       0.0000   9999     520   0     0    
2019/06/02  22:41:00  BASE  2.92824  266  3.78084  253  -2.8  100   -2.8  0     0     1001.1   NA       0.0000   9999     490   0     0    
2019/06/02  22:42:00  BASE  2.81064  265  3.78084  253  -2.8  100   -2.8  0     0     1001.1   NA       0.0000   9999     300   0     0    
2019/06/02  22:43:00  BASE  2.499    270  3.78084  253  -2.8  100   -2.8  0     0     1001.1   NA       0.0000   9999     520   0     0    
2019/06/02  22:44:00  BASE  2.3226   271  3.78084  253  -2.8  100   -2.8  0     0     1001.1   NA       0.0000   9999     560   0     0    
2019/06/02  22:45:00  BASE  2.31672  266  3.78084  253  -2.8  100   -2.8  0     0     1001.1   NA       0.0000   9999     490   0     0    
2019/06/02  22:46:00  BASE  2.19912  266  3.32808  269  -2.8  100   -2.8  0     0     1001.1   NA       0.0000   9999     520   0     0    
2019/06/02  22:47:00  BASE  2.2932   266  3.59856  258  -2.9  100   -2.9  0     0     1001.1   NA       0.0000   9999     460   0     0    
2019/06/02  22:48:00  BASE  2.54016  265  3.59856  258  -2.9  100   -2.9  0     0     1001.1   NA       0.0000   9999     590   2200  0    
2019/06/02  22:49:01  BASE  2.78124  258  3.65736  246  -2.9  100   -2.9  0     0     1001.1   NA       0.0000   9999     590   1440  0    
2019/06/02  22:50:01  BASE  3.03996  251  3.65736  246  -2.9  100   -2.9  0     0     1001.1   NA       0.0000   9999     430   0     0    
2019/06/02  22:51:00  BASE  2.95176  251  3.65736  246  -2.9  100   -2.9  0     0     1001.1   NA       0.0000   9999     430   0     0    
2019/06/02  22:52:01  BASE  2.78124  251  3.65736  246  -2.9  100   -2.9  0     0     1001.1   NA       0.0000   9999     390   0     0    
2019/06/02  22:53:01  BASE  2.94588  250  3.65736  246  -2.9  100   -2.9  0     0     1001.1   NA       0.0000   9999     460   0     0    
2019/06/02  22:54:00  BASE  3.07524  250  3.65736  246  -2.9  100   -2.9  0     0     1001.1   NA       0.0000   9999     460   0     0    
2019/06/02  22:55:01  BASE  3.06936  251  3.65736  246  -2.9  100   -2.9  0     0     1001.1   NA       0.0000   9999     560   0     0    
2019/06/02  22:56:00  BASE  3.2634   251  3.65736  246  -2.9  100   -2.9  0     0     1001.1   NA       0.0000   9999     460   0     0    
2019/06/02  22:57:00  BASE  3.3516   250  3.65736  246  -2.9  100   -2.9  0     0     1001.1   NA       0.0000   9999     460   0     0    
2019/06/02  22:58:00  BASE  3.37512  249  4.05132  250  -2.9  100   -2.9  0     0     1001.1   NA       0.0000   9999     520   0     0    
2019/06/02  22:59:00  BASE  3.2634   247  4.05132  250  -2.9  100   -2.9  0     0     1001.1   NA       0.0000   9999     430   0     0    
2019/06/02  23:00:00  BASE  2.92236  249  4.05132  250  -2.9  100   -2.9  0     0     1001.1   NA       0.0000   9999     430   0     0    
2019/06/02  23:01:00  BASE  2.75184  253  4.05132  250  -2.9  100   -2.9  0     0     1001.1   NA       0.0000   9999     490   0     0    
2019/06/02  23:02:00  BASE  2.91648  252  4.05132  250  -2.9  100   -2.9  0     0     1001.1   NA       0.0000   9999     460   1710  0    
2019/06/02  23:03:01  BASE  3.19284  252  4.05132  250  -2.9  100   -2.9  0     0     1001.1   NA       0.0000   9999     690   1740  0    
2019/06/02  23:04:00  BASE  3.35748  254  4.05132  250  -2.9  100   -2.9  0     0     1001.1   NA       0.0000   9999     520   1770  0    
2019/06/02  23:05:00  BASE  3.51624  256  4.05132  250  -2.9  100   -2.9  0     0     1001.1   NA       0.0000   9999     490   1970  0    
2019/06/02  23:06:00  BASE  3.75144  254  4.08072  252  -3.0  100   -3.0  0     0     1001.1   NA       0.0000   9999     460   2200  0    
2019/06/02  23:07:00  BASE  3.72204  250  4.08072  252  -3.0  100   -3.0  0     0     1001.1   NA       0.0000   9999     360   2260  0    
2019/06/02  23:08:00  BASE  3.41628  250  4.08072  252  -3.0  100   -3.0  0     0     1001.1   NA       0.0000   9999     430   0     0    
2019/06/02  23:09:00  BASE  3.24576  252  4.08072  252  -3.0  100   -3.0  0     0     1001.1   NA       0.0000   9999     520   2260  0    
2019/06/02  23:10:00  BASE  2.97528  256  4.08072  252  -3.0  100   -3.0  0     0     1001.1   NA       0.0000   9999     490   1770  0    
2019/06/02  23:11:01  BASE  2.91648  254  4.08072  252  -3.0  100   -3.0  0     0     1001.1   NA       0.0000   9999     690   2100  0    
2019/06/02  23:12:01  BASE  2.82828  246  4.08072  252  -3.0  100   -3.0  0     0     1001.1   NA       0.0000   9999     560   2230  0    
2019/06/02  23:13:01  BASE  2.86944  249  4.08072  252  -3.0  100   -3.0  0     0     1001.1   NA       0.0000   9999     490   0     0    
2019/06/02  23:14:00  BASE  3.11052  249  4.08072  252  -3.0  100   -3.0  0     0     1001.0   NA       0.0000   9999     590   1610  0    
2019/06/02  23:15:01  BASE  2.96352  248  4.08072  252  -3.0  100   -3.0  0     0     1001.0   NA       0.0000   9999     1410  2200  0    
2019/06/02  23:16:00  BASE  2.86944  249  3.90432  251  -3.0  100   -3.0  0     0     1001.0   NA       0.0000   9999     1020  1440  2000 
2019/06/02  23:17:01  BASE  2.92824  247  3.69264  252  -3.1  100   -3.1  0     0     1001.0   NA       0.0000   9999     1480  1970  0    
2019/06/02  23:18:01  BASE  2.77536  249  3.69264  252  -3.1  100   -3.1  0     0     1001.0   NA       0.0000   9999     1440  2130  0    
2019/06/02  23:19:00  BASE  2.59896  248  3.51036  251  -3.1  100   -3.1  0     0     1001.0   NA       0.0000   9999     460   1480  0    
2019/06/02  23:20:01  BASE  2.59896  247  3.51036  251  -3.1  100   -3.1  0     0     1000.9   NA       0.0000   9999     1380  2100  0    
2019/06/02  23:21:00  BASE  2.54016  244  3.48096  245  -3.1  100   -3.1  0     0     1000.9   NA       0.0000   9999     1380  2260  0    
2019/06/02  23:22:00  BASE  2.46372  242  3.48096  245  -3.1  100   -3.1  0     0     1000.9   NA       0.0000   9999     1440  2300  0    
2019/06/02  23:23:00  BASE  2.45784  243  3.26928  243  -3.2  100   -3.2  0     0     1000.9   NA       0.0000   9999     1480  2300  0    
2019/06/02  23:24:00  BASE  2.35788  248  3.2046   246  -3.2  100   -3.2  0     0     1000.9   NA       0.0000   9999     2300  0     0    
2019/06/02  23:25:00  BASE  2.41668  251  3.2046   246  -3.2  100   -3.2  0     0     1000.9   NA       0.0000   9999     490   1350  0    
2019/06/02  23:26:00  BASE  2.52252  247  3.2046   246  -3.2  100   -3.2  0     0     1000.9   NA       0.0000   9999     1350  2200  0    
2019/06/02  23:27:00  BASE  2.4402   244  3.1164   246  -3.2  100   -3.2  0     0     1000.9   NA       0.0000   9999     430   1410  0    
2019/06/02  23:28:00  BASE  2.2932   247  3.1164   246  -3.2  100   -3.2  0     0     1000.9   NA       0.0000   9999     2300  0     0    
2019/06/02  23:29:00  BASE  2.1462   250  2.93412  256  -3.2  100   -3.2  0     0     1000.9   NA       0.0000   9999     790   2330  0    
2019/06/02  23:30:00  BASE  2.05212  251  2.93412  256  -3.2  100   -3.2  0     0     1000.9   NA       0.0000   9999     390   2460  0    
2019/06/02  23:31:00  BASE  1.92276  253  2.93412  256  -3.2  100   -3.2  0     0     1000.9   NA       0.0000   9999     360   0     0    
2019/06/02  23:32:00  BASE  2.01096  253  2.93412  256  -3.2  100   -3.2  0     0     1000.9   NA       0.0000   9999     300   0     0    
2019/06/02  23:33:00  BASE  2.01684  257  2.93412  256  -3.2  100   -3.2  0     0     1000.9   NA       0.0000   9999     330   0     0    
2019/06/02  23:34:00  BASE  2.05212  258  2.93412  256  -3.2  100   -3.2  0     0     1000.9   NA       0.0000   9999     360   1570  0    
2019/06/02  23:35:00  BASE  2.32848  253  2.84592  245  -3.2  100   -3.2  0     0     1000.9   NA       0.0000   9999     1410  0     0    
2019/06/02  23:36:00  BASE  2.50488  253  2.72244  259  -3.2  100   -3.2  0     0     1000.9   NA       0.0000   9999     2230  0     0    
2019/06/02  23:37:00  BASE  2.44608  256  2.72244  259  -3.2  100   -3.2  0     0     1000.9   NA       0.0000   9999     1280  2200  0    
2019/06/02  23:38:00  BASE  2.19324  257  2.72244  259  -3.2  100   -3.2  0     0     1000.9   NA       0.0000   9999     590   1310  0    
2019/06/02  23:39:00  BASE  1.97568  261  2.72244  259  -3.3  100   -3.3  0     0     1000.9   NA       0.0000   9999     430   0     0    
2019/06/02  23:40:00  BASE  1.78164  261  2.72244  259  -3.3  100   -3.3  0     0     1000.9   NA       0.0000   9999     360   0     0    
2019/06/02  23:41:00  BASE  1.63464  261  2.72244  259  -3.3  100   -3.3  0     0     1000.9   NA       0.0000   9999     330   2230  0    
2019/06/02  23:42:00  BASE  1.5288   262  2.72244  259  -3.2  100   -3.2  0     0     1000.9   NA       0.0000   9999     390   2400  0    
2019/06/02  23:43:00  BASE  1.72872  256  2.72244  259  -3.2  100   -3.2  0     0     1000.9   NA       0.0000   9999     390   2400  0    
2019/06/02  23:44:00  BASE  1.92276  255  2.72244  259  -3.2  100   -3.2  0     0     1000.9   NA       0.0000   9999     1310  2300  0    
2019/06/02  23:45:00  BASE  1.92864  255  2.69304  259  -3.2  100   -3.2  0     0     1000.9   NA       0.0000   9999     2300  0     0    
2019/06/02  23:46:00  BASE  1.96392  251  2.56956  248  -3.2  100   -3.2  0     0     1000.9   NA       0.0000   9999     2230  0     0    
2019/06/02  23:47:00  BASE  1.8522   251  2.29908  251  -3.2  100   -3.2  0     0     1000.9   NA       0.0000   9999     2200  0     0    
2019/06/02  23:48:00  BASE  1.81692  254  2.29908  251  -3.2  100   -3.2  0     0     1000.9   NA       0.0000   9999     2200  0     0    
2019/06/02  23:49:00  BASE  1.7052   260  2.29908  251  -3.2  100   -3.2  0     0     1000.9   NA       0.0000   9999     300   1120  0    
2019/06/02  23:50:00  BASE  1.55232  260  2.29908  251  -3.2  100   -3.2  0     0     1000.9   NA       0.0000   9999     330   2330  0    
2019/06/02  23:51:00  BASE  1.7052   254  2.29908  251  -3.2  100   -3.2  0     0     1000.9   NA       0.0000   9999     330   2330  0    
2019/06/02  23:52:01  BASE  1.85808  257  2.29908  251  -3.2  100   -3.2  0     0     1000.9   NA       0.0000   9999     300   2360  0    
2019/06/02  23:53:00  BASE  1.85808  260  2.29908  251  -3.2  100   -3.2  0     0     1000.9   NA       0.0000   9999     300   2260  0    
2019/06/02  23:54:00  BASE  1.95804  259  2.29908  251  -3.2  100   -3.2  0     0     1000.9   NA       0.0000   9999     300   2230  0    
2019/06/02  23:55:00  BASE  1.92864  257  2.24028  259  -3.2  100   -3.2  0     0     1000.9   NA       0.0000   9999     330   2260  0    
2019/06/02  23:56:00  BASE  1.6464   261  2.24028  259  -3.2  100   -3.2  0     0     1000.9   NA       0.0000   9999     300   1210  0    
2019/06/02  23:57:00  BASE  1.72284  263  2.45196  252  -3.2  100   -3.2  0     0     1000.9   NA       0.0000   9999     300   1120  0    
2019/06/02  23:58:00  BASE  2.04036  254  2.45196  252  -3.2  100   -3.2  0     0     1000.9   NA       0.0000   9999     490   1150  0    
2019/06/02  23:59:00  BASE  1.89924  256  2.45196  252  -3.2  100   -3.2  0     0     1000.9   NA       0.0000   9999     300   1280  0